[[[{"header":{"parameterUnit":"kt","parameterCategory":2,"dx":1,"dy":1,"la1":29.285339999999998,"la2":30.599998999999997,"lo1":-89.70041500000002,"lo2":-87.6738589999976,"nx":112,"ny":82,"refTime":"2022-10-02T18:00:00:Z","depth":0,"parameterNumber":1,"parameterNumberName":"U-component_of_WINDS"},"data":[1.8637,1.8685,1.8322,1.5378,1.4488,1.3084,0.8391,0.8372,0.9547,1.0312,1.0865,1.1321,1.1696,1.0594,0.0,0.0,0.0,0.0,0.0,0.4322,0.3715,0.3633,0.3988,0.0,0.0,0.5352,0.6418,0.7979,0.7889,0.8327,0.9642,0.9716,0.9716,0.9716,0.9716,0.9716,0.9716,0.9716,0.9753,0.987,1.0013,1.0163,1.0253,1.0407,1.0476,1.0476,1.0476,1.0529,1.0562,1.0562,1.0663,1.0826,1.0821,1.0927,1.1079,1.0879,1.0779,1.0689,1.0689,1.0689,1.0737,1.1,1.1057,1.1057,1.1057,1.1057,1.1057,1.1057,1.1057,1.1057,1.1057,1.1057,1.1057,1.1057,1.1057,1.1057,1.1057,1.1057,1.1057,1.1057,1.1057,1.1057,1.1057,1.1057,1.1057,1.1057,1.1057,1.1057,1.1057,1.1057,1.1057,1.1057,1.1057,1.1057,1.1057,1.1057,1.1057,1.1057,1.1057,1.1057,1.1057,1.1057,1.1057,1.1057,1.1057,1.1057,1.1057,1.1057,1.1057,1.1057,1.1057,1.1057,1.674,1.6753,1.6374,1.2903,1.3012,1.2607,0.7404,0.7841,0.9052,0.8099,0.9015,0.9757,0.9067,0.0,0.0,0.0,0.0,0.0,0.0,0.4364,0.3927,0.3835,0.4523,0.5046,0.518,0.5997,0.6975,0.8011,0.7979,0.8433,0.9648,0.9716,0.9716,0.9716,0.9716,0.9716,0.9716,0.9716,0.9716,0.9716,0.9902,0.9971,0.9976,1.0174,1.0243,1.0243,1.0243,1.029,1.0354,1.0354,1.0457,1.0616,1.0562,1.0684,1.0879,1.0673,1.0571,1.0476,1.0476,1.0375,1.0296,1.0532,1.0848,1.1057,1.1057,1.1057,1.1057,1.1057,1.1057,1.1057,1.1057,1.1057,1.1057,1.1057,1.1057,1.1057,1.1057,1.1057,1.1057,1.1057,1.1057,1.1057,1.1057,1.1057,1.1057,1.1057,1.1057,1.1057,1.1057,1.1057,1.1057,1.1057,1.1057,1.1057,1.1057,1.1057,1.1057,1.1057,1.1057,1.1057,1.1057,1.1057,1.1057,1.1057,1.1057,1.1057,1.1057,1.1057,1.1057,1.1057,1.1057,1.1057,1.4696,1.4267,1.383,1.0229,1.0272,1.0348,0.6992,0.778,0.8998,0.825,0.8886,0.9422,0.8937,0.8618,0.0,0.0,0.0,0.0,0.0,0.4205,0.4139,0.4139,0.4808,0.5628,0.6552,0.6068,0.647,0.8269,0.7569,0.7815,0.9616,0.9716,0.9716,0.9716,0.9716,0.9716,0.9716,0.9716,0.9716,0.9716,0.9716,0.9716,0.9716,0.9716,0.9716,0.9716,0.9716,0.9875,1.011,1.011,1.0248,1.0455,1.0351,1.0378,1.0455,1.0455,1.0455,1.0455,1.0455,1.0124,0.9716,0.9716,1.0321,1.1058,1.1058,1.1058,1.1058,1.1058,1.1058,1.1058,1.1058,1.1079,1.1057,1.1057,1.1057,1.1057,1.1057,1.1057,1.1057,1.1057,1.1057,1.1057,1.1057,1.1079,1.1058,1.1058,1.1041,1.1057,1.1057,1.1057,1.1057,1.1057,1.1057,1.1057,1.1057,1.1057,1.1057,1.1057,1.1057,1.1057,1.1057,1.1057,1.1057,1.1057,1.1057,1.1057,1.1057,1.1057,1.1057,1.1057,1.1057,1.1057,1.2346,1.2247,1.2474,0.9959,0.9745,0.9534,0.7175,0.6576,0.6526,0.6604,0.6602,0.0,0.0,0.0,0.5629,0.0,0.0,0.5347,0.4528,0.5043,0.5415,0.5226,0.5407,0.5994,0.7183,0.7321,0.7905,0.9232,0.8507,0.8496,0.9653,0.9716,0.9716,0.9716,0.9716,0.9716,0.9716,0.9716,0.9716,0.9716,0.9716,0.9716,0.9716,0.9716,0.9716,0.9716,0.9716,0.9748,0.9844,0.9844,0.9976,1.0216,1.0174,1.0083,0.9939,0.9939,0.9939,0.9939,0.9939,0.9854,0.9716,0.9716,0.9884,1.0095,1.0095,1.0095,1.0095,1.0095,1.0095,1.0095,1.0095,1.0595,1.1057,1.1057,1.1057,1.1057,1.1057,1.1057,1.1057,1.1057,1.1057,1.1057,1.1057,1.0542,1.0095,1.0095,1.0669,1.1057,1.1057,1.1057,1.1057,1.1057,1.1057,1.1057,1.1057,1.1057,1.1057,1.1057,1.1057,1.1057,1.1057,1.1057,1.1057,1.1057,1.1057,1.1057,1.1057,1.1057,1.1057,1.1057,1.1057,1.1057,1.1822,1.1661,1.1856,0.9441,0.9524,0.9507,0.6838,0.6123,0.5967,0.581,0.0,0.0,0.0,0.0,0.0,0.0,0.4899,0.5151,0.4625,0.5361,0.5927,0.5895,0.6408,0.6985,0.7529,0.7801,0.8416,0.9484,0.8795,0.8766,0.9663,0.9716,0.9716,0.9716,0.9716,0.9716,0.9716,0.9716,0.9716,0.9716,0.9716,0.9716,0.9716,0.9716,0.9716,0.9716,0.9716,0.9716,0.9716,0.9716,0.979,0.9944,0.9944,0.9865,0.9716,0.9716,0.9716,0.9716,0.9716,0.9716,0.9716,0.9716,0.9716,0.9716,0.9716,0.9716,0.9716,0.9716,0.9716,0.9716,0.9716,1.0116,1.0521,1.0521,1.0521,1.0521,1.0521,1.0521,1.0521,1.0521,1.0521,1.0521,1.0521,1.0069,0.9716,0.9716,1.0174,1.0521,1.0521,1.0521,1.0521,1.0521,1.0521,1.0679,1.1026,1.1057,1.1057,1.1057,1.1057,1.1057,1.1057,1.1057,1.1057,1.1057,1.1057,1.1057,1.1057,1.1057,1.1057,1.1057,1.1057,1.1057,1.2006,1.1508,1.1329,0.8768,0.9246,0.9557,0.6522,0.0,0.6686,0.6114,0.0,0.5627,0.5208,0.0,0.0,0.4266,0.4989,0.5444,0.4921,0.5569,0.6204,0.6448,0.7598,0.8195,0.7712,0.7937,0.8453,0.9295,0.8832,0.8877,0.9669,0.9716,0.9716,0.9716,0.9716,0.9716,0.9716,0.9716,0.9716,0.9716,0.9716,0.9716,0.9716,0.9716,0.9716,0.9716,0.9716,0.9716,0.9716,0.9716,0.9716,0.9716,0.9716,0.9716,0.9716,0.9716,0.9716,0.9716,0.9716,0.9716,0.9716,0.9716,0.9716,0.9716,0.9716,0.9716,0.9716,0.9716,0.9716,0.9716,0.9716,0.9716,0.9716,0.9716,0.9716,0.9716,0.9716,0.9716,0.9716,0.9716,0.9716,0.9716,0.9716,0.9716,0.9716,0.9716,0.9716,0.9716,0.9716,0.9716,0.9716,0.9716,0.9716,1.0048,1.0874,1.0942,1.099,1.1052,1.1057,1.1057,1.1057,1.1057,1.1057,1.1057,1.1057,1.1057,1.1057,1.1057,1.1057,1.1057,1.1057,1.1057,0.9618,0.881,0.8792,0.8044,0.7477,0.729,0.0,0.0,0.0,0.9064,0.9101,0.868,0.8068,0.744,0.6771,0.6041,0.6363,0.6523,0.5987,0.7055,0.7874,0.7952,0.8195,0.8322,0.8232,0.8635,0.9113,0.96,0.9521,0.9527,0.9706,0.9716,0.9716,0.9716,0.9716,0.9716,0.9716,0.9716,0.9716,0.9716,0.9716,0.9716,0.9716,0.9716,0.9716,0.9716,0.9716,0.9716,0.9716,0.9716,0.9716,0.9716,0.9716,0.9716,0.9716,0.9716,0.9716,0.9716,0.9716,0.9716,0.9716,0.9716,0.9716,0.9716,0.9716,0.9716,0.9716,0.9716,0.9716,0.9716,0.9716,0.9716,0.9716,0.9716,0.9716,0.9716,0.9716,0.9716,0.9716,0.9716,0.9716,0.9716,0.9716,0.9716,0.9716,0.9716,0.9716,0.9716,0.9716,0.9716,0.9716,0.9716,0.9716,0.979,0.9969,0.9979,1.03,1.101,1.1057,1.1057,1.1057,1.1057,1.1057,1.1057,1.1057,1.1057,1.1057,1.1057,1.1057,1.1057,1.1057,1.1057,0.9022,0.8365,0.8212,0.7157,0.6993,0.0,0.0,0.6693,0.7017,0.8459,0.8164,0.777,0.8112,0.7514,0.6783,0.6122,0.6677,0.7203,0.7292,0.7915,0.8359,0.8359,0.8359,0.8359,0.8359,0.8699,0.9084,0.941,0.9617,0.9716,0.9716,0.9716,0.9716,0.9716,0.9716,0.9716,0.9716,0.9716,0.9716,0.9716,0.9716,0.9716,0.9716,0.9716,0.9716,0.9716,0.9716,0.9716,0.9716,0.9716,0.9716,0.9716,0.9716,0.9716,0.9716,0.9716,0.9716,0.9716,0.9716,0.9716,0.9716,0.9716,0.9716,0.9716,0.9716,0.9716,0.9716,0.9716,0.9716,0.9716,0.9716,0.9716,0.9716,0.9716,0.9716,0.9716,0.9716,0.9716,0.9716,0.9716,0.9716,0.9716,0.9716,0.838,0.7849,0.9484,0.9716,0.9716,0.9716,0.9716,0.9716,0.9716,0.9716,0.9716,0.9716,0.9716,0.9911,1.0379,1.0406,1.0406,1.0406,1.0853,1.1057,1.1057,1.1057,1.1057,1.1057,1.1057,1.1057,1.1057,1.1057,1.1057,0.8805,0.8339,0.8013,0.6729,0.6926,0.0,0.6319,0.6388,0.6919,0.7924,0.7507,0.7167,0.7835,0.7478,0.6889,0.6264,0.6949,0.7764,0.828,0.8359,0.8359,0.8359,0.8359,0.8359,0.8359,0.8593,0.8855,0.913,0.9442,0.9663,0.9711,0.9716,0.9716,0.9716,0.9716,0.9716,0.9716,0.9716,0.9716,0.9716,0.9716,0.9716,0.9716,0.9716,0.9716,0.9716,0.9716,0.9716,0.9716,0.9716,0.9716,0.9716,0.9716,0.9716,0.9716,0.9716,0.9716,0.9716,0.9716,0.9716,0.9716,0.9716,0.9716,0.9716,0.9716,0.9716,0.9716,0.9716,0.9716,0.9716,0.9716,0.9716,0.9716,0.9716,0.9716,0.9716,0.9716,0.9716,0.9716,0.9716,0.9716,0.9716,0.9716,0.7542,0.6703,0.9332,0.9716,0.9716,0.9716,0.9716,0.9716,0.9716,0.9716,0.9716,0.9716,0.9716,0.9716,0.9716,0.9716,0.9716,0.9716,1.0432,1.0832,1.0832,1.0832,1.0921,1.1057,1.0921,1.0927,1.1057,1.1057,1.1057,0.7816,0.0,0.0,0.76,0.6641,0.0,0.9804,0.9648,0.9313,1.1141,1.1619,1.1192,0.9606,0.9442,0.9188,0.8209,0.8158,0.8269,0.8348,0.8359,0.8359,0.8359,0.8359,0.8359,0.8359,0.8593,0.8855,0.913,0.9289,0.949,0.9706,0.9716,0.9716,0.9716,0.9716,0.9716,0.9716,0.9716,0.9716,0.9716,0.9716,0.9716,0.9716,0.9716,0.9716,0.9716,0.9716,0.9716,0.9716,0.9716,0.9716,0.9716,0.9716,0.9716,0.9716,0.9716,0.9716,0.9716,0.9716,0.9716,0.9716,0.9716,0.9716,0.9716,0.9716,0.9716,0.9716,0.9716,0.9716,0.9716,0.9716,0.9716,0.9716,0.9716,0.9716,0.9716,0.9716,0.9716,0.9716,0.9716,0.9716,0.9716,0.9716,0.9408,0.9294,0.9673,0.9716,0.9716,0.9716,0.9716,0.9716,0.9716,0.9716,0.9716,0.9716,0.9716,0.9716,0.9716,0.9716,0.9716,0.9716,0.9811,0.9869,0.9869,0.9869,1.0274,1.11,1.0274,1.0295,1.1057,1.1057,1.1057,0.7102,0.6705,0.6501,0.6491,0.0,0.0,0.823,0.8563,0.8967,1.0776,1.0457,0.9935,1.0265,0.9475,0.8698,0.8403,0.8359,0.8359,0.8359,0.8359,0.8359,0.8359,0.8359,0.8359,0.8359,0.8593,0.8797,0.8898,0.9183,0.9369,0.95,0.9637,0.9716,0.9716,0.9716,0.9716,0.9716,0.9716,0.9716,0.9716,0.9716,0.9716,0.9716,0.9716,0.9716,0.9716,0.9716,0.9716,0.9716,0.9716,0.9716,0.9716,0.9716,0.9716,0.9716,0.9716,0.9716,0.9716,0.9716,0.9716,0.9716,0.9716,0.9716,0.9716,0.9716,0.9716,0.9716,0.9716,0.9716,0.9716,0.9716,0.9716,0.9716,0.9716,0.9716,0.9716,0.9716,0.9716,0.9716,0.9716,0.9716,0.9716,0.9716,0.9716,0.9716,0.9716,0.9716,0.9029,0.7124,0.8532,0.9716,0.9716,0.9716,0.9716,0.9716,0.9716,0.9716,0.9716,0.9716,0.9716,0.9716,0.9716,0.9716,0.9716,0.9716,0.9906,1.029,0.9906,0.9911,1.0295,1.0295,1.0295,0.6887,0.0,0.0,0.0,0.0,0.0,0.7875,0.828,0.877,1.0066,0.9477,0.9021,0.9952,0.9166,0.8339,0.8264,0.8317,0.8359,0.8359,0.8359,0.8359,0.8359,0.8359,0.8359,0.8359,0.854,0.8657,0.8749,0.9009,0.9221,0.9316,0.9521,0.9648,0.9711,0.9716,0.9716,0.9716,0.9716,0.9716,0.9716,0.9716,0.9716,0.9716,0.9716,0.9716,0.9716,0.9716,0.9716,0.9716,0.9716,0.9716,0.9716,0.9716,0.9716,0.9716,0.9716,0.9716,0.9716,0.9716,0.9716,0.9716,0.9716,0.9716,0.9716,0.9716,0.9716,0.9716,0.9716,0.9716,0.9716,0.9716,0.9716,0.9716,0.9716,0.9716,0.9716,0.9716,0.9716,0.9716,0.9716,0.9716,0.9716,0.9716,0.9716,0.9716,0.9716,0.9716,0.8878,0.6513,0.8267,0.9716,0.9716,0.9716,0.9716,0.9716,0.9716,0.9716,0.9716,0.9716,0.9716,0.9716,0.9716,0.9716,0.9716,0.9716,0.9716,0.9716,0.9716,0.9716,0.9716,0.9716,0.9716,0.0,0.0,0.0,0.9124,0.8187,0.7614,1.0781,1.0468,0.9574,0.9857,1.029,1.0115,0.8543,0.8802,0.8998,0.8135,0.8211,0.8359,0.8359,0.8359,0.8359,0.8359,0.8359,0.8359,0.8359,0.8364,0.8492,0.8738,0.877,0.8948,0.9301,0.9327,0.9479,0.9706,0.9716,0.9716,0.9716,0.9716,0.9716,0.9716,0.9716,0.9716,0.9716,0.9716,0.9716,0.9716,0.9716,0.9716,0.9716,0.9716,0.9716,0.9716,0.9716,0.9716,0.9716,0.9716,0.9716,0.9716,0.9716,0.9716,0.9716,0.9716,0.9716,0.9716,0.9716,0.9716,0.9716,0.9716,0.9716,0.9716,0.9716,0.9716,0.9716,0.9716,0.9716,0.9716,0.9716,0.9716,0.9716,0.9716,0.9716,0.9716,0.9716,0.9716,0.9716,0.9716,0.9716,0.9678,0.9602,0.9673,0.9716,0.9716,0.9716,0.9716,0.9716,0.9716,0.9716,0.9716,0.9716,0.9716,0.9716,0.9716,0.9716,0.9716,0.9716,0.9716,0.9716,0.9716,0.9716,0.9716,0.9716,0.9716,0.8775,0.831,0.8022,0.991,0.9482,0.8963,1.0319,1.0524,1.0455,1.0528,1.0348,0.995,0.9212,0.9692,0.987,0.8791,0.8833,0.8845,0.8435,0.8359,0.8359,0.8359,0.8359,0.8359,0.8359,0.8359,0.8391,0.8497,0.8641,0.8795,0.8954,0.919,0.9358,0.9479,0.9632,0.9716,0.9716,0.9716,0.9716,0.9716,0.9716,0.9716,0.9716,0.9716,0.9716,0.9716,0.9716,0.9716,0.9716,0.9716,0.9716,0.9716,0.9716,0.9716,0.9716,0.9716,0.9716,0.9716,0.9716,0.9716,0.9716,0.9716,0.9716,0.9716,0.9716,0.9716,0.9716,0.9716,0.9716,0.9716,0.9716,0.9716,0.9716,0.9716,0.9716,0.9716,0.9716,0.9716,0.9716,0.9716,0.9716,0.9716,0.9716,0.9716,0.9716,0.9716,0.9716,0.9716,0.9716,0.9716,0.9716,0.9716,0.9716,0.9716,0.9716,0.9716,0.9716,0.9716,0.9716,0.9716,0.9716,0.9716,0.9716,0.9716,0.9716,0.9716,0.9716,0.9716,0.9716,0.9716,0.9716,0.9716,0.9797,0.9474,0.9214,1.095,1.0823,1.0333,1.0493,1.0605,1.067,1.067,1.0449,1.0137,0.9739,1.0147,1.0283,0.95,0.9342,0.9155,0.8645,0.8256,0.7997,0.7997,0.7997,0.7997,0.7997,0.7997,0.79,0.7607,0.8024,0.8268,0.8316,0.8838,0.9183,0.9268,0.9421,0.9537,0.9584,0.9669,0.9716,0.9716,0.9716,0.9716,0.9716,0.9716,0.9716,0.9716,0.9716,0.9716,0.9716,0.9716,0.9716,0.9716,0.9716,0.9716,0.9716,0.9716,0.9716,0.9716,0.9716,0.9716,0.9716,0.9716,0.9716,0.9716,0.9716,0.9716,0.9716,0.9716,0.9716,0.9716,0.9716,0.9716,0.9716,0.9716,0.9716,0.9716,0.9716,0.9716,0.9716,0.9716,0.9716,0.9716,0.9716,0.9716,0.9716,0.9716,0.9716,0.9716,0.9716,0.9716,0.9716,0.9716,0.9716,0.9716,0.9716,0.9716,0.9716,0.9716,0.9716,0.9716,0.9716,0.9716,0.9716,0.9716,0.9716,0.9716,0.9716,0.9716,0.9716,0.9716,0.9716,0.9716,1.0525,1.0773,1.089,1.2471,1.2302,1.1667,1.1408,1.0804,1.0297,1.0297,1.059,1.0689,1.0068,1.0171,1.0297,1.0154,0.974,0.9319,0.8939,0.8079,0.7436,0.7338,0.7338,0.7338,0.7338,0.7338,0.7014,0.6274,0.6916,0.7389,0.7554,0.8282,0.8826,0.9089,0.9146,0.9187,0.9301,0.9579,0.9706,0.9716,0.9716,0.9716,0.9716,0.9716,0.9716,0.9716,0.97,0.9706,0.9716,0.9716,0.9716,0.9716,0.9716,0.9716,0.9716,0.9716,0.9716,0.9716,0.9716,0.9716,0.9716,0.9716,0.9716,0.9716,0.9716,0.9716,0.9716,0.9716,0.9716,0.9716,0.9716,0.9716,0.9716,0.9716,0.9716,0.9716,0.9716,0.9716,0.9716,0.9716,0.9716,0.9716,0.9716,0.9716,0.9716,0.9716,0.9716,0.9716,0.9716,0.9716,0.9716,0.9716,0.9716,0.9716,0.9716,0.9716,0.9716,0.9716,0.9716,0.9716,0.9716,0.9716,0.9716,0.9716,0.9716,0.9716,0.9716,0.9716,0.9716,0.9716,0.9716,0.9716,1.2324,1.3132,1.3652,1.5512,1.4234,1.2518,1.2453,1.1319,1.0297,1.0297,1.0377,1.0476,1.0609,1.0682,1.0695,1.0557,1.0665,1.021,0.8603,0.8482,0.8052,0.6693,0.653,0.653,0.653,0.653,0.6433,0.6238,0.64,0.6779,0.7413,0.7728,0.8177,0.881,0.902,0.9143,0.9171,0.9332,0.9542,0.9716,0.9716,0.9716,0.9716,0.9716,0.9716,0.9706,0.9527,0.9553,0.9716,0.9716,0.9716,0.9716,0.9716,0.9716,0.9716,0.9716,0.9716,0.9716,0.9716,0.9716,0.9716,0.9716,0.9716,0.9716,0.9716,0.9716,0.9716,0.9716,0.9716,0.9716,0.9716,0.9716,0.9716,0.9716,0.9716,0.9716,0.9716,0.9716,0.9716,0.9716,0.9716,0.9716,0.9716,0.9716,0.9716,0.9716,0.9716,0.9716,0.9716,0.9716,0.9716,0.9716,0.9716,0.9716,0.9716,0.9716,0.9716,0.9716,0.9716,0.9716,0.9716,0.9716,0.9716,0.9716,0.9716,0.9716,0.9716,0.9716,0.9716,0.9716,0.9716,0.9716,1.238,1.3847,1.5277,1.6609,1.5249,1.3426,1.2816,1.1425,1.0297,1.0297,1.0716,1.0973,1.0689,1.0769,1.091,1.1021,1.094,1.0497,0.9504,0.9105,0.8674,0.7944,0.7176,0.6726,0.6726,0.6169,0.5681,0.5391,0.5619,0.5974,0.6425,0.7116,0.7709,0.8136,0.857,0.886,0.8956,0.9054,0.9221,0.9558,0.9663,0.9716,0.9711,0.9605,0.95,0.9473,0.9374,0.94,0.9558,0.9558,0.9621,0.9706,0.96,0.9621,0.9716,0.9716,0.9716,0.9716,0.9716,0.9716,0.9716,0.9716,0.9716,0.9716,0.9716,0.9716,0.9716,0.9716,0.9716,0.9716,0.9716,0.9716,0.9716,0.9716,0.9716,0.9716,0.9716,0.9716,0.9716,0.9716,0.9716,0.9716,0.9716,0.9716,0.9716,0.9716,0.9716,0.9716,0.9716,0.9716,0.9716,0.9716,0.9716,0.9716,0.9716,0.9716,0.9716,0.9716,0.9716,0.9716,0.9716,0.9716,0.9716,0.9716,0.9716,0.9716,0.9716,0.9716,0.9716,0.9716,0.9716,0.9716,1.2547,1.4347,1.6348,1.6846,1.5895,1.4496,1.3237,1.1822,1.0724,1.0564,1.1337,1.1725,1.0716,1.0689,1.0929,1.1341,1.0865,1.0516,1.0717,0.9794,0.9269,0.9664,0.8403,0.7533,0.7533,0.6392,0.5417,0.4869,0.5156,0.5417,0.5514,0.6522,0.7139,0.7241,0.7862,0.835,0.8572,0.8676,0.8932,0.9269,0.9505,0.9659,0.9648,0.9374,0.9204,0.9127,0.9226,0.9284,0.9316,0.9316,0.9432,0.9605,0.9427,0.9484,0.9669,0.9706,0.9716,0.9716,0.9716,0.9716,0.9716,0.9716,0.9716,0.9716,0.9716,0.9716,0.9716,0.9716,0.9716,0.9716,0.9716,0.9716,0.9716,0.9716,0.9716,0.9716,0.9716,0.9716,0.9716,0.9716,0.9716,0.9716,0.9716,0.9716,0.9716,0.9716,0.9716,0.9716,0.9716,0.9716,0.9716,0.9716,0.9716,0.9716,0.9716,0.9716,0.9716,0.9716,0.9716,0.9716,0.9716,0.9716,0.9716,0.9716,0.9716,0.9716,0.9716,0.9716,0.9716,0.9716,0.9716,1.0051,1.7374,1.7954,1.7814,1.8219,1.7165,1.5957,1.5724,1.4388,1.2931,1.1946,1.191,1.1989,1.1787,1.1,1.0526,1.0931,1.1148,1.0953,1.0039,0.9992,0.9718,0.8757,0.8365,0.8203,0.8203,0.7977,0.7782,0.7653,0.6644,0.6323,0.6977,0.6132,0.5872,0.64,0.7148,0.7585,0.7618,0.8358,0.8797,0.8848,0.9121,0.9239,0.9228,0.8954,0.8967,0.914,0.8951,0.8959,0.9175,0.9175,0.9201,0.9255,0.93,0.9348,0.9406,0.9642,0.9716,0.9716,0.9716,0.9716,0.9716,0.9716,0.9716,0.9716,0.9716,0.9716,0.9716,0.9716,0.9716,0.9716,0.9716,0.9716,0.9716,0.9716,0.9716,0.9716,0.9716,0.9716,0.9716,0.9716,0.9716,0.9716,0.9716,0.9716,0.9716,0.9716,0.9716,0.9716,0.9716,0.9716,0.9716,0.9716,0.9716,0.9716,0.9716,0.9716,0.9716,0.9716,0.9716,0.9716,0.9716,0.9716,0.9716,0.9716,0.9716,0.9716,0.9716,0.9716,0.9716,0.9716,0.9716,1.1843,1.6092,1.6819,1.7428,1.8087,1.7391,1.6434,1.6113,1.4975,1.4087,1.4417,1.4109,1.3426,1.228,1.1602,1.108,1.0636,1.0735,1.0866,1.0848,1.0881,1.0888,1.0792,1.0004,0.9457,0.9457,0.8785,0.8365,0.8365,0.7713,0.7162,0.681,0.7162,0.7199,0.6856,0.8246,0.8996,0.8996,0.9044,0.9102,0.9259,0.9042,0.8994,0.914,0.871,0.8614,0.872,0.8754,0.8823,0.893,0.893,0.8999,0.9116,0.9065,0.9142,0.9337,0.949,0.9605,0.9716,0.9716,0.9716,0.9716,0.9716,0.9716,0.9716,0.9716,0.9716,0.9716,0.9716,0.9716,0.9716,0.9716,0.9716,0.9716,0.9716,0.9716,0.9716,0.9716,0.9716,0.9716,0.9716,0.9716,0.9716,0.9716,0.9716,0.9716,0.9716,0.9716,0.9716,0.9716,0.9716,0.9716,0.9716,0.9716,0.9716,0.9716,0.9716,0.9716,0.9716,0.9716,0.9716,0.9716,0.9716,0.9716,0.9716,0.9716,0.9716,0.9716,0.9716,1.0127,1.0978,1.2662,1.4718,1.5461,1.6309,1.7737,1.8816,1.8013,1.689,1.6574,1.576,1.5417,1.6626,1.6185,1.499,1.3112,1.2622,1.2122,1.0875,1.067,1.0908,1.157,1.1536,1.1786,1.2723,1.1707,1.0911,1.0911,0.9914,0.9237,0.9237,0.8979,0.8327,0.719,0.8387,0.8656,0.763,0.9313,1.0288,1.0384,0.99,0.9805,1.0074,0.9347,0.9119,0.929,0.8881,0.8581,0.837,0.8577,0.8651,0.8651,0.8651,0.8797,0.8951,0.8813,0.8919,0.9216,0.9263,0.9432,0.9637,0.9637,0.9669,0.9716,0.9716,0.9716,0.9716,0.9716,0.9716,0.9716,0.9716,0.9716,0.9716,0.9716,0.9716,0.9716,0.9716,0.9716,0.9716,0.9716,0.9716,0.9716,0.9716,0.9716,0.9716,0.9716,0.9716,0.9716,0.9716,0.9716,0.9716,0.9716,0.9716,0.9716,0.9716,0.9716,0.9716,0.9716,0.9716,0.9716,0.9716,0.9716,0.9716,0.9716,0.9716,0.9716,0.9716,0.9716,0.983,1.0089,1.0089,1.1134,1.3142,1.5714,1.6918,2.0711,2.0801,2.0984,2.2609,2.0375,1.7991,1.8743,1.839,1.7803,1.7487,1.6793,1.6008,1.5197,1.4481,1.3531,1.2122,1.1884,1.1662,1.1069,1.1269,1.1639,1.2104,1.2211,1.2248,1.2248,1.2152,1.2055,1.2055,1.0975,1.0261,1.0101,0.9038,0.8397,0.8268,0.9043,0.9592,0.9952,1.0468,1.0938,1.1296,1.0288,0.9809,0.9833,0.9784,0.9249,0.8359,0.838,0.8391,0.8391,0.8391,0.8401,0.8438,0.8651,0.8786,0.881,0.9068,0.9226,0.9358,0.9358,0.9532,0.9716,0.9716,0.9716,0.9716,0.9716,0.9716,0.9716,0.9716,0.9716,0.9716,0.9716,0.9716,0.9716,0.9716,0.9716,0.9716,0.9716,0.9716,0.9716,0.9716,0.9716,0.9716,0.9716,0.9716,0.9716,0.9716,0.9716,0.9716,0.9716,0.9716,0.9716,0.9716,0.9716,0.9716,0.9716,0.9716,0.9716,0.9716,0.9716,0.9716,0.9716,0.9716,0.9716,0.9716,0.9716,1.024,1.1323,1.1323,1.3074,1.6465,1.6761,1.6918,1.7065,1.7618,1.8616,1.9443,1.9938,2.0162,1.9892,1.9931,1.9709,1.8554,1.7937,1.7162,1.5644,1.5094,1.4262,1.235,1.2042,1.1788,1.0993,1.1217,1.1602,1.1995,1.229,1.2448,1.2448,1.2448,1.2448,1.2448,1.1952,1.1335,1.0551,1.0686,1.0468,0.9682,1.0654,1.1278,1.1439,1.1463,1.156,1.1695,1.1117,1.1182,1.1752,1.05,0.9701,0.9255,0.8645,0.8359,0.8359,0.8359,0.8359,0.837,0.8487,0.8604,0.8765,0.8866,0.9072,0.9322,0.9322,0.9516,0.9716,0.9716,0.9716,0.9716,0.9716,0.9716,0.9716,0.9716,0.9716,0.9716,0.9716,0.9716,0.9716,0.9716,0.9716,0.9716,0.9716,0.9716,0.9716,0.9716,0.9716,0.9716,0.9716,0.9716,0.9716,0.9716,0.9716,0.9716,0.9716,0.9716,0.9716,0.9716,0.9716,0.9716,0.9716,0.9716,0.9716,0.9716,0.9716,0.9716,0.9716,0.9716,1.0051,1.0763,1.0763,1.1398,1.2632,1.3337,1.4457,1.5871,1.6576,1.6918,1.5234,1.572,1.6881,1.7282,1.9116,2.0644,2.0151,2.0769,2.1043,1.9563,1.886,1.8042,1.6395,1.6119,1.5503,1.3627,1.2884,1.225,1.137,1.1374,1.1562,1.183,1.2195,1.2448,1.2448,1.2448,1.2448,1.2448,1.2448,1.2048,1.1135,1.1952,1.2016,1.1103,1.1952,1.2504,1.26,1.2432,1.236,1.2488,1.2112,1.2304,1.2975,1.1495,1.0661,1.0345,0.961,0.9099,0.8807,0.8807,0.8645,0.8359,0.8359,0.8454,0.8625,0.8625,0.8845,0.9163,0.9232,0.9411,0.9621,0.9695,0.9716,0.9716,0.9716,0.9716,0.9716,0.9716,0.9716,0.9716,0.9716,0.9716,0.9716,0.9716,0.9716,0.9716,0.9716,0.9716,0.9716,0.9716,0.9716,0.9716,0.9716,0.9716,0.9716,0.9716,0.9716,0.9716,0.9716,0.9716,0.9716,0.9716,0.9716,0.9716,0.9716,0.9716,0.9716,0.9716,0.9716,0.9716,0.9716,1.0051,1.0612,1.1467,1.1843,1.2662,1.3935,1.4756,1.5351,1.5686,1.6539,1.6918,1.7696,1.7097,1.7096,1.7878,1.8292,1.8709,1.9447,2.0939,2.1786,2.0454,1.9382,1.8492,1.7948,1.787,1.7515,1.6474,1.4881,1.3368,1.2201,1.172,1.1475,1.1483,1.2053,1.2448,1.2448,1.2448,1.2448,1.2448,1.2448,1.2448,1.2408,1.2448,1.2448,1.2408,1.2448,1.2632,1.3007,1.3271,1.3598,1.3963,1.3326,1.3007,1.3039,1.3007,1.244,1.1446,1.1446,1.086,0.9888,0.9888,0.9287,0.8359,0.8359,0.8359,0.8364,0.8364,0.854,0.8797,0.9036,0.9235,0.9364,0.9637,0.9716,0.9716,0.9716,0.9716,0.9716,0.9716,0.9716,0.9716,0.9716,0.9716,0.9716,0.9716,0.9716,0.9716,0.9716,0.9716,0.9716,0.9716,0.9716,0.9716,0.9716,0.9716,0.9716,0.9716,0.9716,0.9716,0.9716,0.9716,0.9716,0.9716,0.9716,0.9716,0.9716,0.9716,0.9716,0.9716,0.9716,0.9716,0.9716,1.0833,1.1467,1.1473,1.2744,1.3972,1.5128,1.5165,1.576,1.6909,1.6918,1.6918,1.5066,1.5682,1.6867,1.7833,1.9208,2.0406,2.0647,2.1946,2.3074,2.3011,2.1663,2.0132,1.8918,1.7951,1.6741,1.4902,1.4145,1.3106,1.1141,1.1201,1.1475,1.1475,1.2053,1.2448,1.2448,1.2448,1.2448,1.2448,1.2448,1.2448,1.2448,1.2448,1.2448,1.2448,1.2448,1.2504,1.2632,1.3151,1.347,1.3598,1.3653,1.3676,1.3676,1.323,1.2847,1.2496,1.1767,1.1285,1.0932,1.0217,1.0152,1.0481,1.0481,1.0481,1.0384,0.9675,1.0031,1.0778,1.0171,1.0476,1.1103,1.0662,1.0526,1.0413,0.9889,0.9716,0.9716,0.9716,0.9716,1.0127,1.1805,1.2256,1.2256,1.2256,1.2256,1.2256,1.2256,1.2256,1.1993,1.1097,1.0908,1.065,0.9862,0.9716,0.9716,0.9716,0.9716,0.9716,0.9716,0.9716,0.9716,0.9716,0.9716,0.9716,0.9716,0.9716,0.9716,0.9716,1.0461,1.0908,1.0908,1.2144,1.3187,1.3972,1.442,1.5202,1.6354,1.6354,1.6539,1.6918,1.6918,1.6918,1.5486,1.5979,1.6727,1.8208,1.97,2.0866,2.1003,2.1144,2.1312,2.1535,2.0797,1.9686,1.8217,1.7719,1.7176,1.6044,1.5237,1.4013,1.192,1.186,1.1899,1.1504,1.2053,1.2448,1.2448,1.2448,1.2448,1.2448,1.2448,1.2448,1.2448,1.2448,1.2448,1.2448,1.2448,1.2448,1.2448,1.2983,1.3271,1.3271,1.3781,1.4003,1.4003,1.374,1.3604,1.3581,1.2943,1.2432,1.2023,1.1367,1.1246,1.1478,1.1478,1.1478,1.1389,1.0732,1.101,1.1651,1.1066,1.1473,1.2124,1.176,1.1708,1.1752,1.1273,1.1103,1.1103,1.1103,1.1103,1.1448,1.2828,1.3207,1.3236,1.339,1.3419,1.3419,1.3419,1.3419,1.3187,1.2369,1.2219,1.1956,1.1247,1.1103,1.0952,1.0461,1.0386,1.024,0.9786,0.9716,0.9716,0.9716,0.9716,0.9716,0.9716,0.9716,0.9716,0.9716,1.1285,1.2219,1.2219,1.3419,1.442,1.5165,1.5611,1.6168,1.6918,1.6918,1.6918,1.6918,1.6918,1.6918,1.7763,1.7345,1.6742,1.8751,1.9871,2.0539,2.0995,1.9249,1.7495,1.7325,1.7682,1.7673,1.6503,1.7345,1.8362,1.8874,1.7476,1.5768,1.4156,1.3467,1.277,1.1801,1.2155,1.2463,1.2408,1.2432,1.2448,1.2448,1.2448,1.2448,1.2448,1.2448,1.2448,1.2448,1.2448,1.2448,1.2448,1.2815,1.3007,1.2975,1.3645,1.394,1.3963,1.4407,1.4589,1.4589,1.4589,1.4017,1.3135,1.3039,1.2496,1.1671,1.1606,1.1638,1.1671,1.1606,1.1638,1.1715,1.1871,1.2238,1.2623,1.2842,1.3149,1.3465,1.3441,1.3419,1.3411,1.339,1.3494,1.3547,1.32,1.3134,1.3207,1.3569,1.3673,1.3673,1.3614,1.3643,1.3599,1.3465,1.348,1.3457,1.3382,1.3397,1.3007,1.1805,1.1624,1.121,1.0127,0.9976,0.9976,0.9976,0.9976,0.9976,0.9976,0.9976,0.997,0.9954,1.2212,1.3531,1.3531,1.4681,1.5277,1.5277,1.6354,1.6918,1.6918,1.6918,1.6918,1.6918,1.6918,1.6918,1.3975,1.5583,1.7376,1.7595,2.0139,2.2835,2.3732,2.0815,1.8144,1.8876,1.8288,1.7627,1.7626,1.7574,1.7266,1.639,1.6298,1.6038,1.5264,1.4591,1.4089,1.3726,1.3214,1.2702,1.2187,1.2314,1.2448,1.2448,1.2448,1.2448,1.2448,1.2448,1.2448,1.2448,1.2448,1.2448,1.2448,1.2815,1.2879,1.2568,1.3247,1.3534,1.3566,1.428,1.4589,1.4589,1.4589,1.443,1.4144,1.3358,1.3358,1.3763,1.2975,1.3167,1.3772,1.2943,1.3167,1.3749,1.3001,1.3342,1.4049,1.3797,1.3777,1.3802,1.3488,1.3419,1.3368,1.3054,1.4254,1.5682,1.5911,1.5963,1.5989,1.6077,1.6094,1.6015,1.5699,1.563,1.5291,1.4108,1.4099,1.4008,1.3135,1.3221,1.3306,1.3007,1.2969,1.2857,1.2594,1.2557,1.2557,1.2557,1.2557,1.2557,1.2557,1.2557,1.2424,1.2133,1.3762,1.4756,1.4756,1.5871,1.6502,1.6502,1.677,1.6918,1.6918,1.6918,1.6918,1.6918,1.6918,1.6918,1.6032,1.7833,1.8846,1.6244,1.8495,2.126,2.0928,1.8812,1.6995,1.7262,1.7032,1.6923,1.7382,1.7555,1.7568,1.7275,1.7033,1.6553,1.5607,1.4842,1.4312,1.4051,1.3163,1.2567,1.2504,1.2464,1.2448,1.2448,1.2448,1.2448,1.2448,1.2448,1.2448,1.2448,1.2448,1.2448,1.2448,1.2664,1.2664,1.2448,1.3087,1.3407,1.3439,1.4217,1.4589,1.4589,1.4589,1.4589,1.4534,1.3954,1.409,1.4525,1.3954,1.4081,1.4493,1.3954,1.4081,1.4493,1.3922,1.4238,1.4828,1.4589,1.4638,1.4776,1.4753,1.4621,1.4515,1.4662,1.5235,1.5825,1.6037,1.6092,1.6173,1.6312,1.6358,1.6303,1.6092,1.6046,1.5797,1.4958,1.5123,1.5125,1.4309,1.4637,1.4717,1.3816,1.3996,1.3956,1.3222,1.3287,1.3419,1.3419,1.3419,1.3419,1.3419,1.325,1.3119,1.3097,1.491,1.5983,1.5983,1.6576,1.6918,1.6918,1.6918,1.6918,1.6918,1.6918,1.6918,1.6918,1.6918,1.6918,1.9107,2.0982,2.1078,1.6594,1.7583,1.9237,1.7589,1.6412,1.5514,1.495,1.5226,1.5771,1.6458,1.6977,1.7732,1.9023,1.8064,1.6894,1.6111,1.5302,1.4637,1.417,1.3151,1.2582,1.2836,1.2622,1.2448,1.2448,1.2448,1.2448,1.2448,1.2448,1.2448,1.2448,1.2448,1.2448,1.2448,1.2448,1.2448,1.2448,1.3055,1.3375,1.3439,1.4153,1.4525,1.4589,1.4589,1.4589,1.4589,1.4589,1.4589,1.4589,1.4589,1.4589,1.4589,1.4589,1.4589,1.4589,1.4589,1.4797,1.5068,1.5133,1.5381,1.5731,1.611,1.6026,1.5887,1.6532,1.5989,1.517,1.5234,1.5243,1.5335,1.5657,1.574,1.5722,1.5667,1.5648,1.563,1.5565,1.5897,1.6037,1.5713,1.6265,1.6171,1.4524,1.482,1.4784,1.3448,1.358,1.3783,1.3783,1.3829,1.3859,1.3859,1.3618,1.3588,1.3852,1.566,1.6762,1.6826,1.6826,1.6854,1.6918,1.6918,1.6918,1.6918,1.6918,1.6918,1.6918,1.6918,1.6983,1.5355,2.002,2.4572,2.3324,2.2781,2.2422,2.2135,1.9033,1.6174,1.6077,1.4845,1.4253,1.5787,1.4816,1.4794,1.7799,1.6828,1.6457,1.8672,1.8114,1.7227,1.6491,1.5273,1.3899,1.2343,1.233,1.2448,1.2448,1.2448,1.2448,1.2448,1.2448,1.2448,1.2448,1.2448,1.2448,1.2448,1.2448,1.2448,1.2448,1.2887,1.3207,1.3439,1.3876,1.428,1.4589,1.4589,1.4589,1.4589,1.4589,1.4589,1.4589,1.4589,1.4589,1.4589,1.4589,1.4589,1.4589,1.4589,1.4603,1.4714,1.5041,1.5197,1.5326,1.5713,1.5795,1.5768,1.5887,1.5556,1.5234,1.5565,1.5648,1.5667,1.5722,1.574,1.5648,1.5317,1.5243,1.5142,1.4815,1.5092,1.5326,1.5262,1.5621,1.5809,1.5518,1.5565,1.5559,1.5322,1.5367,1.5402,1.5402,1.567,1.5874,1.5874,1.6123,1.6158,1.5892,1.5906,1.6081,1.6404,1.6422,1.6578,1.6909,1.6918,1.6918,1.6918,1.6918,1.6918,1.6918,1.6918,1.7251,1.897,2.1659,2.3933,2.1924,2.1918,2.2116,2.1058,1.951,1.8089,1.7242,1.5852,1.5183,1.6542,1.495,1.4831,1.9079,1.7116,1.6129,1.9286,1.8239,1.7238,1.7498,1.5708,1.4222,1.3688,1.2904,1.2448,1.2448,1.2448,1.2448,1.2448,1.2448,1.2448,1.2448,1.2448,1.2448,1.2448,1.2448,1.2448,1.2448,1.2847,1.3071,1.3207,1.3526,1.3781,1.394,1.394,1.4067,1.428,1.428,1.4407,1.4589,1.4589,1.4589,1.4589,1.4589,1.4589,1.4589,1.4589,1.4589,1.4594,1.4788,1.4852,1.4926,1.5298,1.5295,1.512,1.512,1.499,1.4889,1.5073,1.512,1.512,1.512,1.512,1.5073,1.4889,1.4852,1.4797,1.4603,1.4898,1.5087,1.4889,1.5359,1.5593,1.5184,1.5455,1.5667,1.5455,1.5805,1.5989,1.5768,1.6266,1.656,1.6349,1.6496,1.6523,1.634,1.6349,1.6349,1.633,1.6532,1.6735,1.6909,1.6918,1.7103,1.7556,1.7556,1.7778,1.8174,1.8174,1.8358,2.4644,0.0,2.4286,2.1453,2.1976,2.2573,0.0,2.019,1.9984,1.8272,1.6734,1.6005,1.6961,1.531,1.521,1.9535,1.7334,1.6153,1.9209,1.7936,1.6963,1.7664,1.605,1.4918,1.5082,1.3798,1.2951,1.2951,1.2632,1.2448,1.2448,1.2448,1.2448,1.2448,1.2448,1.2448,1.2448,1.2448,1.2448,1.2448,1.276,1.2943,1.3039,1.3239,1.3343,1.3407,1.3407,1.3598,1.3844,1.3844,1.409,1.443,1.443,1.4493,1.4589,1.4589,1.4589,1.4589,1.4589,1.4589,1.4589,1.4589,1.4589,1.4653,1.4944,1.4815,1.4589,1.4589,1.4589,1.4589,1.4589,1.4589,1.4589,1.4589,1.4589,1.4589,1.4589,1.4589,1.4589,1.4589,1.4824,1.4935,1.4644,1.5073,1.5276,1.4681,1.5092,1.5344,1.5083,1.5639,1.5926,1.5639,1.6237,1.6551,1.6349,1.6736,1.6923,1.6688,1.6963,1.7,1.6688,1.6972,1.7228,1.7463,1.7473,1.7768,1.8341,1.8341,1.8662,1.925,1.925,1.926,0.0,3.0286,2.8933,2.7359,2.708,2.6444,2.3668,2.2398,0.0,1.9047,1.6695,1.5252,1.5934,1.482,1.459,1.7019,1.663,1.6749,1.8823,1.8334,1.7536,1.6897,1.7175,1.6925,1.5634,1.4844,1.443,1.443,1.3198,1.2448,1.2448,1.2448,1.2448,1.2448,1.2448,1.2448,1.2448,1.2448,1.2448,1.2448,1.248,1.2664,1.3039,1.3039,1.3175,1.3407,1.3407,1.3439,1.347,1.347,1.3685,1.4026,1.4026,1.4249,1.4589,1.4589,1.4589,1.4589,1.4589,1.4589,1.4589,1.4589,1.4589,1.4598,1.4626,1.4616,1.4589,1.4589,1.4589,1.4589,1.4589,1.4589,1.4589,1.4589,1.4589,1.4589,1.4589,1.4589,1.4589,1.4589,1.4616,1.4626,1.4598,1.4644,1.4631,1.4598,1.4644,1.464,1.4612,1.5,1.5234,1.5197,1.5575,1.597,1.6303,1.798,1.8688,1.7828,1.7797,1.7797,1.7776,1.7797,1.8222,1.9046,1.9093,1.9103,1.9166,1.9166,1.9176,1.925,1.925,1.9372,3.2137,3.2323,3.1745,2.8544,2.8209,2.7807,2.437,2.2758,2.138,1.9331,1.693,1.5448,1.6277,1.4983,1.5213,1.9555,1.7456,1.659,2.0338,1.9145,1.7921,1.8034,1.8131,1.7963,1.7412,1.6398,1.578,1.578,1.4525,1.3772,1.3772,1.2919,1.2855,1.374,1.2919,1.2448,1.2448,1.2448,1.2448,1.2448,1.2448,1.2512,1.2664,1.2664,1.2728,1.28,1.28,1.2951,0.0,1.3175,1.3494,1.4003,1.4003,1.4249,1.4589,1.4589,1.4589,1.4589,1.4589,1.4589,1.4589,1.4589,1.4589,1.4589,1.4589,1.4589,1.4589,1.4589,1.4589,1.4589,1.4589,1.4589,1.4589,1.4589,1.4589,1.4589,1.4589,1.4589,1.4589,1.4589,1.4589,1.4589,1.4589,1.4915,1.5168,1.5168,1.5525,1.5778,1.5778,1.6125,1.6394,1.647,1.7076,1.764,1.8115,1.8586,1.8726,1.8369,1.8596,1.8627,1.8359,1.8596,1.8884,1.9239,1.925,1.9067,1.875,2.0302,2.1707,2.2851,2.1969,2.1838,3.3711,3.3619,3.3113,2.9609,2.9267,2.8804,2.4992,2.3307,2.1861,1.9532,1.7339,1.6017,1.6617,1.5694,1.6242,2.0541,1.8773,1.813,2.1721,2.0555,1.9457,1.9692,1.9418,1.9108,1.8855,1.7819,1.713,1.713,1.5937,1.519,1.519,1.3867,1.3581,1.4557,1.3175,1.2448,1.2448,1.2448,1.2448,1.2448,1.2448,1.2448,1.2448,1.2448,1.2448,1.2448,1.2448,1.26,1.2847,1.2847,1.3167,1.3708,1.3781,1.4058,1.4407,1.4534,1.4589,1.4589,1.4589,1.4589,1.4589,1.4589,1.4589,1.4589,1.4589,1.4589,1.4589,1.4589,1.4589,1.4589,1.4589,1.4589,1.4589,1.4589,1.4589,1.4589,1.4589,1.4589,1.4589,1.4589,1.4747,1.4883,1.4883,1.5421,1.5841,1.5841,1.623,1.6524,1.6524,1.6993,1.7401,1.7467,1.8101,1.8927,1.9892,1.9729,1.9514,1.9362,1.9953,2.0165,1.9913,2.0305,2.0618,2.0778,2.0547,2.0226,1.9886,2.1561,2.3115,2.4359,2.3384,2.3128,3.527,3.4503,3.3,3.118,3.0711,2.9708,2.5952,2.4375,2.2857,1.9705,1.792,1.6875,1.6757,1.695,1.7579,1.9032,2.0448,2.17,2.2615,2.2629,2.2312,2.1678,2.1134,2.0526,1.9725,1.894,1.847,1.847,1.7286,1.6534,1.6534,1.5316,1.462,1.4589,1.3198,1.2448,1.2448,1.2448,1.2448,1.2448,1.2448,1.2448,1.2448,1.2448,1.2448,1.2448,1.2448,1.2448,1.2448,1.2448,1.2664,1.3039,1.3311,1.3662,1.4058,1.443,1.4589,1.4589,1.4589,1.4589,1.4589,1.4589,1.4589,1.4589,1.4589,1.4589,1.4589,1.4589,1.4589,1.4589,1.4589,1.4589,1.4589,1.4589,1.4589,1.4589,1.4589,1.4589,1.4589,1.4589,1.5105,1.5557,1.5557,1.6104,1.6524,1.6524,1.6555,1.6555,1.6555,1.734,1.7884,1.7895,1.8407,1.9512,2.1443,2.1635,2.1376,2.0871,2.1917,2.2577,2.253,2.3055,2.3551,2.4081,2.3317,2.2941,2.2928,2.2928,2.2974,2.2947,2.2974,2.2684,3.4252,3.3747,3.3122,3.1966,3.1183,3.0108,2.7674,2.5382,2.3082,2.0878,1.8827,1.749,1.7651,1.7509,1.813,2.0391,2.0947,2.1558,2.2835,2.2736,2.2644,2.2913,2.2009,2.1403,2.1547,2.0583,1.9962,1.9962,1.8668,1.7879,1.7879,1.7536,1.6911,1.5969,1.4652,1.3453,1.2448,1.2448,1.2448,1.2448,1.2448,1.2448,1.2448,1.2448,1.2448,1.2448,1.2448,1.2448,1.2448,1.2448,1.276,1.3303,1.3375,1.3812,1.4407,1.4534,1.4589,1.4589,1.4589,1.4589,1.4589,1.4589,1.4589,1.4589,1.4589,1.4589,1.4589,1.4589,1.4589,1.4589,1.4589,1.4589,1.4589,1.4589,1.4589,1.4589,1.4589,1.4946,1.5263,1.5263,1.5778,1.623,1.623,1.6786,1.7194,1.7194,1.7612,1.8029,1.8401,1.8663,1.9116,1.9875,2.1906,2.3391,2.4,2.4062,2.3778,2.317,2.3441,2.3393,2.2834,2.2982,2.3135,2.3277,2.3068,2.2772,2.2401,2.3571,2.3768,2.2995,2.4633,2.4822,3.3716,3.3432,3.3229,3.2303,3.1672,3.0666,2.8495,2.6364,2.4145,2.1546,2.0014,1.9126,1.9018,1.8927,1.9756,2.2341,2.2468,2.2722,2.4089,2.4372,2.4349,2.4222,2.3297,2.2579,2.2384,2.127,2.0622,2.0622,1.9795,1.9319,1.9319,1.8793,1.8097,1.7317,1.5527,1.4153,1.3294,1.2728,1.2448,1.2448,1.2448,1.2448,1.2448,1.2448,1.2448,1.2448,1.2448,1.2448,1.2448,1.2448,1.2672,1.3055,1.3207,1.3621,1.4122,1.428,1.443,1.4589,1.4589,1.4589,1.4589,1.4589,1.5275,1.6032,1.5506,1.5338,1.5253,1.4715,1.4589,1.4589,1.4589,1.4589,1.4589,1.4589,1.4969,1.5285,1.501,1.5673,1.6251,1.5999,1.6471,1.7037,1.7464,1.8058,1.8618,1.8979,1.9362,1.9746,2.0069,2.0556,2.1112,2.1727,2.3754,2.5075,2.5075,2.5075,2.4912,2.451,2.4645,2.4511,2.4035,2.3977,2.3936,2.3936,2.3694,2.3413,2.3105,2.4089,2.4241,2.3604,2.4985,2.5402,3.3492,3.3432,3.3249,3.2403,3.2136,3.1431,2.8922,2.7533,2.573,2.2116,2.15,2.135,2.0519,2.0923,2.2138,2.4351,2.4583,2.4868,2.5895,2.6768,2.6836,2.5582,2.4886,2.3963,2.2685,2.1453,2.0701,2.0622,2.0622,2.0622,2.0622,1.9381,1.8595,1.847,1.6189,1.4874,1.4747,1.3358,1.2632,1.2632,1.2504,1.2448,1.2448,1.2448,1.2448,1.2448,1.2448,1.2448,1.2448,1.2448,1.248,1.2536,1.2879,1.3207,1.3502,1.3876,1.4312,1.4747,1.4747,1.4842,1.4937,1.4937,1.6534,1.8253,1.7067,1.6691,1.6472,1.5275,1.4937,1.4937,1.4937,1.4937,1.4937,1.4969,1.5906,1.6628,1.6052,1.689,1.759,1.7005,1.7402,1.8194,1.9194,1.9802,2.0463,2.1448,2.1531,2.1544,2.1653,2.2694,2.3494,2.3659,2.4651,2.5277,2.5277,2.5277,2.5222,2.5112,2.5449,2.5614,2.5556,2.5447,2.5356,2.5356,2.4799,2.4474,2.4474,2.4474,2.4474,2.4474,2.4474,2.4814,3.3452,3.3432,3.3391,3.3208,3.2614,3.1917,3.132,2.9408,2.7036,2.4696,2.3677,2.2585,2.0486,2.2504,2.4267,2.3613,2.5723,2.7137,2.619,2.7157,2.7687,2.6866,2.6217,2.5316,2.3993,2.2731,2.1605,2.0683,2.0622,2.0622,2.0622,2.0301,1.9641,1.8501,1.7941,1.715,1.6126,1.4779,1.4113,1.4122,1.2983,1.2448,1.2448,1.2448,1.2448,1.2448,1.2448,1.2448,1.2448,1.2448,1.2632,1.2911,1.2975,1.3358,1.3876,1.3972,1.4874,1.6094,1.6094,1.6785,1.763,1.763,1.8004,1.8408,1.8128,1.8066,1.8004,1.7723,1.763,1.763,1.763,1.763,1.7723,1.8024,1.8459,1.8788,1.8645,1.9221,1.9745,1.9622,2.0109,2.0832,2.1651,2.1393,2.1548,2.2851,2.2618,2.2641,2.3564,2.3905,2.4735,2.6373,2.6763,2.6894,2.6894,2.6894,2.6459,2.5452,2.548,2.5273,2.4785,2.4693,2.4706,2.4706,2.4551,2.4474,2.4474,2.4474,2.4474,2.4474,2.4474,2.4551,3.3989,3.3929,3.3789,3.3351,3.2881,3.2427,3.2008,3.0541,2.8626,2.6299,2.5448,2.4562,2.2784,2.4441,2.5963,2.5548,2.6832,2.7601,2.6737,2.6992,2.7262,2.7204,2.6351,2.5628,2.5257,2.3484,2.2093,2.1497,2.0915,2.0854,2.1436,2.0915,2.0239,1.9517,1.8824,1.8128,1.7474,1.6157,1.5506,1.5496,1.4738,1.4398,1.4398,1.4398,1.4398,1.4398,1.4398,1.4398,1.4398,1.4398,1.4516,1.4706,1.4855,1.5202,1.5707,1.5896,1.6587,1.7442,1.7442,1.791,1.8688,1.9986,2.0416,2.0306,1.9628,1.9412,1.9257,1.8657,1.847,1.847,1.847,1.847,1.8564,1.8967,1.914,1.9449,2.0237,2.1167,2.1798,2.1487,2.1979,2.2691,2.3522,2.3329,2.3488,2.4728,2.4633,2.463,2.5266,2.5595,2.6092,2.6878,2.6931,2.6931,2.6931,2.6931,2.6637,2.5974,2.565,2.531,2.4984,2.4659,2.4474,2.4474,2.4474,2.4474,2.4474,2.4474,2.4474,2.4474,2.4474,2.4474,3.4811,3.4752,3.4465,3.3513,3.329,3.3065,3.2129,3.1404,3.0218,2.7649,2.7235,2.6925,2.5599,2.6497,2.7714,2.858,2.8542,2.8314,2.7961,2.7565,2.7226,2.7046,2.6292,2.5864,2.604,2.4233,2.2942,2.2701,2.1788,2.1575,2.2321,2.1422,2.0823,2.0622,1.9455,1.8855,1.8855,1.7536,1.6848,1.6848,1.6628,1.6534,1.6534,1.6534,1.6534,1.6534,1.6534,1.6534,1.6534,1.6534,1.6534,1.6555,1.6795,1.717,1.7534,1.7938,1.8385,1.8812,1.8812,1.8967,1.9554,2.1819,2.2532,2.235,2.1147,2.078,2.0565,1.9461,1.9183,1.9183,1.9245,1.9245,1.9369,1.9801,1.9881,2.028,2.1642,2.2855,2.3579,2.3143,2.357,2.4259,2.5011,2.5142,2.5479,2.6463,2.6624,2.6624,2.6624,2.6885,2.6915,2.6485,2.6345,2.6332,2.6429,2.6429,2.643,2.6401,2.5885,2.5603,2.5603,2.507,2.4802,2.4802,2.4802,2.4802,2.4802,2.4802,2.4802,2.4802,2.4802,2.4802,3.562,3.5753,3.5505,3.4504,3.4326,3.4128,3.3106,3.2366,3.1332,2.938,2.9617,2.9411,2.6902,2.8298,3.0265,3.1476,3.2122,3.2059,3.0904,3.1174,3.0205,2.6796,2.7204,2.7175,2.5553,2.5598,2.5244,2.4112,2.3903,2.3379,2.2412,2.22,2.1666,2.0652,2.0437,2.0301,2.0301,1.8917,1.8222,1.8191,1.7067,1.6534,1.6534,1.6534,1.6534,1.6534,1.6534,1.6534,1.6534,1.6534,1.6534,1.6555,1.6795,1.717,1.7534,1.7938,1.8955,2.0165,2.0165,2.0964,2.2062,2.2441,2.2532,2.2501,2.2319,2.2259,2.2228,2.2076,2.2001,2.2062,2.2261,2.2335,2.2473,2.3122,2.3273,2.3423,2.3979,2.4205,2.451,2.4983,2.5608,2.6067,2.6196,2.6229,2.6476,2.7175,2.7253,2.7253,2.7253,2.6375,2.5928,2.6376,2.5943,2.5807,2.6398,2.6429,2.6388,2.6298,2.6196,2.6146,2.6146,2.6047,2.5998,2.5998,2.5998,2.5998,2.5998,2.5998,2.5998,2.5998,2.5998,2.5998,3.6642,3.6568,3.6084,3.4733,3.4465,3.4227,3.3249,3.2922,3.2465,3.1156,3.1607,3.1729,2.9998,3.0561,3.1343,3.1399,3.1219,3.07,2.9695,2.9508,2.8905,2.7501,2.7512,2.732,2.6439,2.6292,2.5864,2.4916,2.5168,2.5139,2.4561,2.3168,2.2109,2.1605,2.0946,2.0622,2.0622,1.9993,1.9672,1.9641,1.9072,1.8824,1.8824,1.8824,1.8824,1.8824,1.8824,1.8824,1.8824,1.8824,1.8824,1.8855,1.9338,1.9647,1.9862,2.0385,2.0998,2.1619,2.1619,2.2015,2.2532,2.2532,2.2532,2.2532,2.2532,2.2532,2.2532,2.2532,2.2653,2.2804,2.2881,2.3092,2.3378,2.3829,2.3919,2.4009,2.4414,2.4474,2.469,2.534,2.6005,2.6438,2.6438,2.6438,2.6531,2.684,2.6854,2.673,2.636,2.6135,2.5945,2.5789,2.5841,2.6011,2.6296,2.6326,2.6314,2.625,2.6233,2.6233,2.6233,2.6233,2.6233,2.6233,2.6233,2.6233,2.6233,2.6233,2.651,2.6989,2.6989,2.728,3.77,3.7389,3.6834,3.5364,3.4908,3.4556,3.3613,3.3411,3.3188,3.2261,3.281,3.3168,3.2248,3.1808,3.1663,3.1767,3.0799,2.9828,2.9284,2.8993,2.8614,2.8001,2.7864,2.7652,2.7262,2.6924,2.6468,2.5805,2.638,2.6602,2.6263,2.4382,2.3183,2.2852,2.1987,2.1392,2.1038,2.1038,2.0885,2.0622,2.0622,2.0622,2.0622,2.0622,2.0622,2.0622,2.0622,2.0622,2.0622,2.0622,2.0652,2.0762,2.1344,2.1619,2.1741,2.235,2.2532,2.2532,2.2532,2.2532,2.2532,2.2532,2.2532,2.2532,2.2532,2.2532,2.2562,2.2623,2.2774,2.2971,2.3167,2.3408,2.3679,2.3979,2.4069,2.4129,2.4444,2.4474,2.469,2.534,2.5866,2.6237,2.6407,2.6438,2.6376,2.6222,2.633,2.6176,2.5511,2.5984,2.6155,2.5577,2.5956,2.6292,2.6468,2.6497,2.6556,2.6719,2.6965,2.7065,2.7065,2.7327,2.7443,2.7443,2.7443,2.7443,2.7443,2.7443,2.7773,2.8417,2.8417,2.8818,3.8717,3.8413,3.8122,3.6907,3.6253,3.5601,3.4576,3.3849,3.3188,3.2261,3.2798,3.3175,3.2258,3.1162,3.1384,3.4291,3.3073,3.1818,3.2026,3.277,3.1813,2.7737,2.8538,2.8845,2.7349,2.7745,2.7821,2.7175,2.7716,2.7541,2.6292,2.6116,2.5464,2.4232,2.4142,2.3529,2.2261,2.2261,2.1697,2.0622,2.0622,2.0622,2.0622,2.0622,2.0622,2.0622,2.0622,2.0622,2.0622,2.0622,2.0731,2.1007,2.1405,2.1741,2.1971,2.238,2.2532,2.2532,2.2532,2.2532,2.2532,2.2532,2.2532,2.2532,2.2532,2.2532,2.2592,2.285,2.2911,2.3062,2.3709,2.3859,2.3979,2.4384,2.4444,2.4474,2.4474,2.4474,2.469,2.534,2.5479,2.5727,2.633,2.6438,2.6222,2.5587,2.6052,2.6149,2.5382,2.5857,2.6237,2.6204,2.6233,2.6497,2.7116,2.7175,2.7425,2.8052,2.8891,2.9369,2.9369,3.019,3.0688,3.0688,3.0688,3.0688,3.0688,3.0688,3.0688,3.0744,3.0744,3.0772,4.022,3.949,3.846,3.7301,3.6466,3.5696,3.4752,3.3949,3.3351,3.3,3.3653,3.4225,3.3883,3.2514,3.1824,3.2917,3.1035,2.9403,2.9522,2.9782,2.9694,2.8818,2.8676,2.8521,2.8119,2.8662,2.8738,2.789,2.8052,2.7995,2.7512,2.669,2.604,2.5553,2.4738,2.4053,2.3619,2.3589,2.3379,2.2988,2.2109,2.1344,2.0622,2.0622,2.0622,2.0622,2.0622,2.0622,2.0622,2.0622,2.0762,2.1038,2.1405,2.1741,2.2001,2.241,2.2532,2.2532,2.2532,2.2532,2.2532,2.2532,2.2532,2.2532,2.2532,2.2653,2.2835,2.2925,2.3257,2.3619,2.3859,2.4114,2.4324,2.4444,2.4474,2.4474,2.4474,2.4474,2.4551,2.4799,2.4845,2.4923,2.5155,2.5186,2.5108,2.4892,2.6681,2.7958,2.7698,2.8223,2.8597,2.8597,2.8979,2.934,2.9558,2.9586,2.9671,2.9917,3.0237,3.0435,3.0435,3.0744,3.0912,3.0912,3.0912,3.0912,3.0912,3.0912,3.1219,3.1795,3.1795,3.21,4.028,3.9641,3.8791,3.7286,3.6446,3.5791,3.5198,3.4208,3.3432,3.3432,3.3921,3.4345,3.4345,3.3088,3.1987,3.1663,2.9829,2.8356,2.8042,2.8274,2.8717,2.9386,2.9195,2.9016,2.8914,2.9286,2.9418,2.912,2.8813,2.867,2.867,2.7524,2.6895,2.6895,2.604,2.5376,2.4945,2.4961,2.4738,2.4276,2.3409,2.261,2.1835,2.1835,2.1835,2.1835,2.1392,2.1191,2.1161,2.0854,2.0915,2.1222,2.1589,2.1893,2.2198,2.2441,2.3062,2.3784,2.3784,2.3784,2.3784,2.3784,2.3859,2.3844,2.3469,2.3829,2.4322,2.4009,2.4517,2.5171,2.5319,2.5542,2.572,2.572,2.572,2.572,2.572,2.5381,2.5084,2.5084,2.5084,2.5084,2.5084,2.544,2.5749,2.5851,2.7553,2.8961,2.9265,2.9851,3.0266,3.0266,3.066,3.0912,3.0912,3.0912,3.0912,3.0912,3.1191,3.1378,3.1378,3.1684,3.1823,3.1823,3.1823,3.1823,3.1823,3.1823,3.2127,3.2725,3.2725,3.3047,3.8973,3.8836,3.9161,3.7133,3.6323,3.5999,3.598,3.4693,3.3492,3.3452,3.3432,3.3432,3.3432,3.2696,3.1777,3.0885,2.9958,2.9036,2.8119,2.8746,2.9322,2.937,3.0107,3.0366,2.9653,2.9573,2.9949,3.0853,3.0096,2.9586,2.9539,2.8727,2.8197,2.8186,2.8186,2.76,2.6321,2.6292,2.5658,2.4411,2.4381,2.4351,2.4351,2.4321,2.4291,2.4232,2.2972,2.2412,2.2352,2.1483,2.1344,2.1741,2.1971,2.2305,2.2653,2.2653,2.4188,2.6233,2.6233,2.6233,2.6233,2.6233,2.6435,2.6413,2.53,2.6007,2.7048,2.6158,2.6727,2.7715,2.8097,2.8184,2.8184,2.8184,2.8184,2.8184,2.8184,2.7198,2.6305,2.6305,2.6305,2.6305,2.6305,2.7356,2.8281,2.8514,2.8657,2.9047,2.9955,3.0603,3.0996,3.0996,3.0996,3.0996,3.0996,3.0996,3.1024,3.1052,3.1858,3.2348,3.2348,3.3211,3.3667,3.3667,3.3667,3.364,3.364,3.364,3.364,3.364,3.364,3.364,4.1529,4.0461,3.9685,3.8643,3.7849,3.7237,3.666,3.5558,3.453,3.384,3.3558,3.3432,3.3432,3.2696,3.1777,3.0885,2.9958,2.9036,2.8119,2.8195,2.8612,2.9277,2.8984,2.9168,3.0279,3.038,3.0539,3.0909,3.0688,3.0237,2.9586,2.9302,2.8881,2.8197,2.8186,2.7995,2.7658,2.7629,2.7483,2.7099,2.6175,2.5717,2.5687,2.4738,2.4291,2.4291,2.3903,2.3919,2.4158,2.3904,2.4098,2.4545,2.4605,2.4888,2.523,2.523,2.5674,2.6233,2.6233,2.6233,2.6275,2.6447,2.6576,2.6635,2.6593,2.7001,2.7437,2.7193,2.7559,2.805,2.8155,2.8184,2.8184,2.8184,2.8184,2.8184,2.8184,2.7895,2.7634,2.7634,2.7634,2.7634,2.7634,2.809,2.8503,2.8543,3.0414,3.2031,3.2533,3.278,3.2862,3.2862,3.2862,3.3026,3.3435,3.3441,3.3604,3.3982,3.4224,3.438,3.438,3.462,3.4749,3.4749,3.4374,3.4186,3.4186,3.3803,3.383,3.4186,3.3803,3.4025,3.8497,3.6633,3.5353,3.5842,3.4877,3.4269,3.6219,3.5085,3.3694,3.3873,3.38,3.3674,3.3599,3.3172,3.2469,3.1437,3.0844,3.0176,2.9257,2.9124,2.9322,2.9849,2.9098,2.9132,3.0567,3.0713,3.0922,3.1368,3.1464,3.1247,3.0716,3.0322,2.987,2.9339,2.8938,2.8738,2.8738,2.8371,2.8186,2.8186,2.7408,2.7041,2.7012,2.6246,2.5923,2.5893,2.5346,2.5316,2.5598,2.5198,2.5287,2.5671,2.5818,2.604,2.6351,2.7414,2.779,2.779,2.779,2.7877,2.8039,2.8205,2.8389,2.8514,2.8263,2.8751,2.9397,2.9397,2.9558,2.9719,2.9719,2.9719,2.9719,2.9719,2.9719,2.9719,2.9719,2.9302,2.893,2.893,2.8998,2.9065,2.9065,2.9747,3.0321,3.0414,3.2086,3.3381,3.3586,3.364,3.364,3.364,3.3809,3.4159,3.4674,3.4727,3.486,3.5153,3.5179,3.5179,3.5179,3.5179,3.5179,3.5179,3.4887,3.4727,3.4727,3.4428,3.4428,3.4723,3.4428,3.486,3.2444,3.0185,2.9093,3.0899,2.9708,2.9371,0.0,3.3301,3.1664,3.3245,3.3713,3.385,3.3834,3.3889,3.3523,3.2303,3.2115,3.1798,3.084,3.0711,3.0735,3.0848,3.0149,2.9925,3.0616,3.0712,3.1067,3.201,3.2191,3.2245,3.2265,3.147,3.0996,3.0912,3.0125,2.97,2.97,2.8881,2.8428,2.8342,2.8342,2.8284,2.8186,2.8186,2.8186,2.811,2.6953,2.6615,2.679,2.6053,2.5906,2.6154,2.651,2.6526,2.6651,2.8854,2.9642,2.9661,2.9746,3.0,3.0291,3.051,3.0895,3.1099,3.0096,3.0783,3.1876,3.1876,3.1876,3.1876,3.1876,3.1876,3.1876,3.1876,3.1876,3.1904,3.1959,3.1035,3.0209,3.0237,3.0424,3.0573,3.0573,3.1755,3.2808,3.3066,3.3429,3.364,3.364,3.3695,3.3722,3.3722,3.4159,3.4674,3.5126,3.5232,3.5312,3.5391,3.5391,3.5391,3.5391,3.5391,3.5391,3.5391,3.5312,3.5285,3.5285,3.5206,3.5232,3.5285,3.5206,3.5812,0.0,0.0,0.0,0.0,0.0,0.0,0.0,2.9405,2.9808,3.058,3.1824,3.299,3.3685,3.4251,3.412,3.263,3.2382,3.2004,3.0861,3.0711,3.0998,3.1703,3.1644,3.1351,3.0754,3.0719,3.1079,3.1998,3.2087,3.2158,3.2272,3.21,3.1684,3.094,3.0744,3.0631,3.0631,3.0463,3.0011,2.9273,2.9273,2.891,2.8186,2.8186,2.8186,2.8168,2.7908,2.7959,2.8212,2.8576,2.8863,2.9112,2.9198,2.8374,2.7227,2.7724,2.7909,2.7966,2.8501,2.8734,2.9041,3.0518,3.1063,3.1175,3.1362,3.1661,3.1876,3.1876,3.1876,3.1876,3.1876,3.1876,3.1876,3.1876,3.1876,3.1939,3.2271,3.216,3.2002,3.212,3.2155,3.221,3.221,3.265,3.3087,3.3456,3.3586,3.364,3.364,3.4019,3.424,3.424,3.4723,3.5073,3.5179,3.5681,3.6156,3.6546,3.6621,3.6621,3.6621,3.6621,3.6621,3.6621,3.6156,3.5947,3.5947,3.5444,3.547,3.5947,3.5444,3.5812,0.0,0.0,0.0,0.0,0.0,0.0,0.0,0.0,0.0,0.0,0.0,3.0441,3.1155,0.0,3.3255,3.2715,3.2985,3.302,3.2361,3.2258,3.2448,3.2886,3.2552,3.2034,3.1437,3.1391,3.1385,3.1401,3.1824,3.2085,3.2167,3.2182,3.2201,3.2265,3.1823,3.1601,3.1601,3.1135,3.0808,3.0621,3.0021,2.9206,2.8186,2.8186,2.8186,2.8215,2.8399,2.8508,2.8597,2.8837,2.8844,2.8667,2.8667,2.8004,2.7075,2.7321,2.739,2.7454,2.7765,2.8314,2.9163,3.093,3.1048,3.0678,3.1591,3.1876,3.1876,3.1876,3.1876,3.1876,3.1876,3.1876,3.1876,3.1876,3.2077,3.2243,3.2188,3.2326,3.2492,3.2547,3.2698,3.2842,3.2842,3.3136,3.3489,3.3944,3.3998,3.4106,3.4374,3.4642,3.4821,3.4907,3.5377,3.5683,3.5683,3.6215,3.6677,3.691,3.6933,3.6933,3.6933,3.6933,3.6933,3.6933,3.6675,3.6546,3.6546,3.6208,3.6234,3.652,3.5678,3.5885,0.0,0.0,0.0,0.0,0.0,0.0,0.0,0.0,0.0,0.0,0.0,0.0,0.0,0.0,0.0,3.2605,3.3497,3.4035,3.3886,3.3912,3.3912,3.3846,3.3229,3.261,3.2174,3.2138,3.1821,3.1027,3.151,3.1889,3.2064,3.1897,3.2244,3.3231,3.2557,3.2259,3.2533,3.1795,3.147,3.1541,3.0556,0.0,2.8698,2.8342,2.8186,2.8197,2.8366,2.8428,2.8394,2.8196,2.778,2.722,2.7037,2.6722,2.6374,2.6816,2.6943,2.6987,2.7146,2.792,2.9128,3.1203,3.1164,3.0493,3.1554,3.1876,0.0,3.1876,3.2022,3.2216,3.2216,3.2216,3.2216,3.2216,3.2547,3.2719,3.2299,3.2464,3.2684,3.2684,3.2944,3.3169,3.3169,3.3712,3.4326,3.4843,3.4727,3.4781,3.5478,3.5448,3.542,3.5517,3.6018,3.6314,3.6314,3.6489,3.6707,3.6914,3.6712,3.6507,3.6245,3.612,3.612,3.6197,3.612,3.6349,3.6933,3.6933,3.6933,3.6886,3.4834,3.4736,0.0,0.0,0.0,0.0,0.0,0.0,0.0,0.0,0.0,0.0,0.0,0.0,0.0,0.0,0.0,0.0,3.3406,3.426,3.4035,3.42,3.4266,3.4015,3.3889,3.3487,3.2527,3.2418,3.2287,3.1938,3.1255,3.1212,3.2017,3.1313,0.0,0.0,0.0,3.2329,3.3456,3.3396,3.2533,3.0996,3.0884,3.0716,3.0547,2.8928,2.8186,2.8144,2.7515,2.7483,2.7853,2.7373,2.6994,2.6639,2.5703,2.5309,2.5252,2.5309,2.5347,2.5447,2.6262,0.0,0.0,3.0762,3.1775,3.1674,3.1835,3.1876,3.1876,3.1876,3.2629,3.3423,3.3423,3.3423,3.3423,3.3423,3.3477,3.3505,3.345,3.3477,3.3505,3.3505,3.3532,3.3586,3.3586,3.4954,3.6223,3.6744,3.5852,3.5531,3.677,3.6425,3.6058,3.6073,3.6515,0.0,3.6823,3.5935,3.5839,3.6868,3.5958,3.4847,3.3702,3.3227,3.3181,3.3631,3.3204,3.4268,3.6933,3.6933,3.6933,3.6793,3.1242,3.0443,0.0,0.0,0.0,0.0,0.0,0.0,0.0,0.0,0.0,0.0,0.0,0.0,0.0,0.0,0.0,0.0,3.2029,3.3227,3.311,3.4198,3.4799,3.4299,3.426,3.4015,3.3426,3.334,3.3072,3.2338,3.193,3.181,3.2056,3.1186,3.0999,3.1652,3.1693,3.2312,3.3592,3.364,3.3238,3.2478,3.2478,3.2478,3.2478,3.1704,3.0191,2.8208,2.8575,2.8286,2.7471,2.6362,2.5832,2.5684,0.0,0.0,0.0,0.0,2.5397,2.5916,2.6314,2.6453,2.6694,2.8227,2.8709,2.8709,2.8709,2.9155,3.0062,3.2274,3.3259,3.364,3.364,3.364,3.364,3.364,3.364,3.364,3.364,3.364,3.3749,3.4133,3.4737,0.0,3.5901,3.6657,3.7326,3.7834,3.7707,3.7858,3.8735,3.8859,3.8858,3.8858,3.9091,3.9186,3.9186,3.8757,0.0,0.0,0.0,3.7943,3.6789,3.653,0.0,0.0,0.0,3.1737,3.2959,3.1317,0.0,0.0,2.8405,2.8325,0.0,0.0,0.0,0.0,0.0,0.0,0.0,0.0,0.0,0.0,0.0,0.0,0.0,0.0,0.0,0.0,3.0454,3.2209,3.2479,3.3818,3.4671,3.4375,3.4543,3.4359,3.3497,3.3843,3.3769,3.2934,3.2646,3.245,3.2229,3.1365,3.1075,3.1553,3.1571,3.1756,3.2088,3.2062,3.2062,3.2062,3.2062,3.2062,3.2062,3.2062,3.0636,2.8165,2.8445,2.7897,2.6658,2.5556,2.5086,2.5109,2.535,2.5444,2.5444,2.5444,2.5869,2.6476,2.6756,2.6848,2.6985,2.7738,2.8146,2.837,2.837,2.8189,2.8765,3.2508,3.4466,3.5425,3.5425,3.5425,3.5425,3.5425,3.5425,3.5104,3.389,3.3857,3.4348,3.5267,3.6039,3.6867,3.7997,3.8194,3.8538,3.9499,3.9696,3.9963,4.0713,4.0807,4.0824,4.0808,4.0814,4.0814,4.0814,4.0491,4.0293,4.0284,4.0,3.9468,3.8716,3.7789,3.6614,3.521,3.2333,3.0535,0.0,0.0,0.0,0.0,0.0,0.0,0.0,0.0,0.0,0.0,0.0,0.0,0.0,0.0,0.0,0.0,0.0,0.0,0.0,0.0,0.0,0.0,0.0,0.0,3.2488,3.3019,3.3536,3.4148,3.4896,3.4424,3.2187,3.3434,3.426,3.3989,3.3137,3.2671,3.2634,3.1774,3.1286,3.1331,3.1313,3.031,2.8198,2.8154,2.8154,2.8154,2.8154,2.8154,2.8154,2.8154,2.8109,2.7881,2.6046,2.5176,2.5162,2.5081,2.5086,2.518,2.6036,2.6407,2.6407,2.6407,2.643,2.6571,2.7576,2.796,2.8367,3.1034,3.2506,3.3203,3.3203,3.0776,2.8747,3.2426,3.6629,4.0041,4.0041,4.0041,4.0041,4.0041,4.0041,3.8859,3.4567,3.4428,3.5632,3.7273,3.7229,3.7435,3.9127,3.9401,4.0135,4.229,4.159,0.0,4.2501,4.1614,4.0805,4.0826,4.0826,4.0826,4.0826,3.9641,3.8948,3.8926,3.7868,3.7216,3.7206,3.4051,3.2445,3.2753,3.2634,3.1581,2.9563,0.0,0.0,0.0,0.0,0.0,0.0,0.0,0.0,0.0,0.0,0.0,0.0,0.0,0.0,0.0,0.0,0.0,0.0,0.0,0.0,0.0,0.0,0.0,0.0,3.2562,3.3852,3.441,3.4169,3.3103,3.0918,3.2182,3.2867,3.2266,3.3197,3.3714,3.3421,3.2622,3.2622,3.3583,3.277,3.0927,2.8007,2.7984,2.7984,2.7984,2.7984,2.7984,2.8029,2.9235,2.9785,2.9763,2.908,2.8814,2.8881,2.9454,2.9739,2.976,3.0065,3.0173,2.9891,2.7375,2.8033,3.0324,3.1265,3.1603,3.1729,3.2671,3.3188,3.3432,3.3432,3.2589,3.1858,3.3081,3.4545,3.5714,3.5714,3.5714,3.5887,3.649,3.6449,3.6005,3.5239,3.5046,3.5456,3.6901,3.8017,3.8029,3.5857,3.7699,3.8898,3.7226,3.8948,4.0569,4.1025,4.0955,4.0836,4.0836,4.097,4.1061,4.1061,4.0671,4.0426,4.0449,3.9882,3.93,3.8692,3.7589,3.639,3.5129,3.5102,3.2242,2.6441,0.0,0.0,0.0,0.0,0.0,0.0,0.0,0.0,0.0,0.0,0.0,0.0,0.0,0.0,0.0,0.0,0.0,0.0,0.0,0.0,0.0,0.0,0.0,0.0,0.0,0.0,3.4762,3.3588,0.0,2.9735,2.9924,3.0256,3.0454,3.1489,3.2776,3.4366,3.3103,3.319,3.5136,3.412,3.2548,3.0431,2.9455,2.8969,2.8969,2.8969,2.8969,2.8991,3.0155,3.0719,3.0741,3.1062,3.1211,3.123,3.1843,3.2074,3.2074,3.2074,3.2074,3.1819,2.9716,3.0495,3.2655,3.3249,3.3432,3.3432,3.3432,3.3654,3.3921,3.3921,3.3921,3.3921,3.3921,3.3921,3.3921,3.3921,3.3921,3.408,3.4662,3.4598,3.5042,3.7342,3.695,3.6281,3.6713,3.7557,3.7064,3.3433,3.5248,3.6598,3.4888,3.6921,3.9145,4.0464,4.0894,4.1025,4.1025,4.1153,4.129,4.129,4.129,4.1051,4.0537,4.0334,3.9754,3.869,3.8362,3.7121,3.4728,3.4392,3.1104,0.0,0.0,0.0,0.0,0.0,0.0,0.0,0.0,0.0,0.0,0.0,0.0,0.0,0.0,0.0,0.0,0.0,0.0,0.0,0.0,0.0,0.0,0.0,0.0,0.0,0.0,0.0,3.4986,3.2956,0.0,0.0,0.0,0.0,2.8397,2.804,2.9885,3.4842,3.3068,3.3156,3.5923,3.5305,3.4917,3.4917,3.232,3.1039,3.1039,3.1039,3.0932,3.0784,3.0784,3.0784,3.0826,3.1696,3.2074,3.2074,3.2074,3.2074,3.2046,3.1689,3.1432,3.1377,3.2233,3.2947,3.3432,3.3432,3.3432,3.3432,3.3432,3.4061,3.4799,3.4799,3.4343,0.0,0.0,3.4449,3.4799,3.4799,3.4799,3.4799,3.4799,3.4799,3.5993,4.0328,3.959,3.7781,3.6682,3.6016,3.4755,3.1905,0.0,3.3302,3.4988,3.5587,3.7099,4.0601,4.1125,4.1211,4.1211,4.1211,4.123,4.123,4.123,4.0657,3.9287,3.9192,3.8578,3.7222,3.6244,3.4473,3.1762,3.0738,0.0,0.0,0.0,0.0,0.0,0.0,0.0,0.0,0.0,0.0,0.0,0.0,0.0,0.0,0.0,0.0,0.0,0.0,0.0,0.0,0.0,0.0,0.0,0.0,0.0,0.0,2.8212,2.9487,3.2427,3.0,2.7281,0.0,0.0,0.0,0.0,0.0,0.0,2.8482,3.2603,3.5461,3.679,3.6633,3.654,3.654,3.5848,3.549,3.549,3.549,3.4169,3.1738,3.1738,3.1738,3.1738,3.199,3.2074,3.2074,3.2074,3.2074,3.1559,2.6415,2.2685,2.0222,2.046,2.6021,3.3432,3.3432,3.3432,3.3432,3.3432,3.4061,3.4799,3.4799,0.0,0.0,0.0,0.0,3.4799,3.4799,3.4799,3.4799,3.4799,3.4799,3.5116,3.6284,3.6099,3.5592,3.5289,3.6035,3.4786,2.8694,2.7912,0.0,2.8095,3.3238,3.68,3.5994,3.7507,3.8674,3.8674,3.882,3.893,3.893,3.893,3.8767,3.8415,3.8205,3.7953,3.7557,3.4668,3.2722,3.1996,0.0,0.0,0.0,0.0,0.0,0.0,0.0,0.0,0.0,0.0,0.0,0.0,0.0,0.0,0.0,0.0,0.0,0.0,0.0,0.0,0.0,0.0,0.0,0.0,0.0,0.0,0.0,2.487,2.7262,2.9569,2.6485,2.4157,0.0,0.0,0.0,0.0,0.0,0.0,0.0,0.0,0.0,2.7765,3.4208,3.7492,3.713,3.713,3.713,3.713,3.713,3.613,3.4235,3.2749,3.2074,3.2074,3.2074,3.2074,3.2074,3.2074,2.9243,2.4552,0.0,0.0,0.0,0.0,2.2786,3.1517,2.9334,3.0708,3.3492,3.3895,0.0,0.0,0.0,0.0,0.0,0.0,0.0,2.6111,2.652,3.1194,3.5807,3.5807,3.5807,3.5807,3.5807,3.5807,3.5807,3.5807,3.6522,3.3831,2.3438,2.1714,0.0,0.0,0.0,3.4637,3.4461,3.6653,3.8215,3.8215,3.8349,3.8402,3.8268,3.8279,3.8226,3.8103,3.7961,3.7107,3.5301,3.3212,3.0272,0.0,0.0,0.0,0.0,0.0,0.0,0.0,0.0,0.0,0.0,0.0,0.0,0.0,0.0,0.0,0.0,0.0,0.0,0.0,0.0,0.0,0.0,0.0,0.0,0.0,0.0,0.0,0.0,0.0,2.5225,2.6262,0.0,0.0,0.0,0.0,0.0,0.0,0.0,0.0,0.0,0.0,0.0,0.0,0.0,3.5175,3.4351,3.4346,3.5303,3.7275,3.7275,3.7275,3.7184,3.4136,3.2568,3.2258,3.2708,0.0,3.2135,3.055,0.0,0.0,0.0,0.0,0.0,0.0,0.0,0.0,0.0,0.0,0.0,0.0,0.0,0.0,0.0,0.0,0.0,0.0,0.0,0.0,0.0,0.0,3.713,3.713,3.713,3.6647,3.4894,3.4522,3.4268,3.3447,3.3273,2.9316,0.0,0.0,0.0,0.0,0.0,0.0,3.4521,3.7206,3.8887,3.8887,3.8887,3.8772,3.8582,3.85,3.8408,3.8156,3.7675,3.5745,3.207,3.1595,0.0,0.0,0.0,0.0,0.0,0.0,0.0,0.0,0.0,0.0,0.0,0.0,0.0,0.0,0.0,0.0,0.0,0.0,0.0,0.0,0.0,0.0,0.0,0.0,0.0,0.0,0.0,0.0,0.0,0.0,0.0,0.0,0.0,0.0,0.0,0.0,0.0,0.0,0.0,0.0,0.0,0.0,0.0,0.0,0.0,0.0,0.0,0.0,0.0,0.0,3.8116,3.8116,3.8045,3.6799,3.5114,3.3345,3.6057,3.5699,3.2449,2.2624,0.0,0.0,0.0,0.0,0.0,0.0,0.0,0.0,0.0,0.0,0.0,0.0,0.0,0.0,0.0,0.0,0.0,0.0,0.0,0.0,0.0,0.0,3.713,3.713,3.713,3.4098,2.3119,0.0,0.0,0.0,0.0,0.0,0.0,0.0,0.0,0.0,0.0,0.0,3.3784,3.6884,3.8887,3.8887,3.8887,3.887,3.8836,3.8616,3.8466,3.8443,3.5401,3.2852,0.0,0.0,0.0,0.0,0.0,0.0,0.0,0.0,0.0,0.0,0.0,0.0,0.0,0.0,0.0,0.0,0.0,0.0,0.0,0.0,0.0,0.0,0.0,0.0,0.0,0.0,0.0,0.0,0.0,0.0,0.0,0.0,0.0,0.0,0.0,0.0,0.0,0.0,0.0,0.0,0.0,0.0,0.0,0.0,0.0,0.0,0.0,0.0,0.0,0.0,0.0,0.0,0.0,0.0,0.0,0.0,0.0,0.0,3.4678,3.3402,0.0,0.0,0.0,0.0,0.0,0.0,0.0,0.0,0.0,0.0,0.0,0.0,0.0,0.0,0.0,0.0,0.0,0.0,0.0,0.0,0.0,0.0,0.0,0.0,0.0,0.0,0.0,0.0,0.0,0.0,0.0,0.0,0.0,0.0,0.0,0.0,0.0,0.0,0.0,0.0,3.4139,3.7056,3.9182,3.9182,3.9182,3.9131,3.9012,3.8863,3.7926,3.5878,3.3311,0.0,0.0,0.0,0.0,0.0,0.0,0.0,0.0,0.0,0.0,0.0,0.0,0.0,0.0,0.0,0.0,0.0,0.0,0.0,0.0,0.0,0.0,0.0,0.0,0.0,0.0,0.0,0.0,0.0,0.0,0.0,0.0,0.0,0.0,0.0,0.0,0.0,0.0,0.0,0.0,0.0,0.0,0.0,0.0,0.0,0.0,0.0,0.0,0.0,0.0,0.0,0.0,0.0,0.0,0.0,0.0,0.0,0.0,0.0,2.9181,2.7577,0.0,0.0,0.0,0.0,0.0,0.0,0.0,0.0,0.0,0.0,0.0,0.0,0.0,0.0,0.0,0.0,0.0,0.0,0.0,0.0,0.0,0.0,0.0,0.0,0.0,0.0,0.0,0.0,0.0,0.0,0.0,0.0,0.0,0.0,0.0,0.0,0.0,0.0,0.0,0.0,3.5677,3.7921,3.9787,3.9787,3.9869,3.9823,3.9641,3.9528,3.7782,3.3784,3.1383,0.0,0.0,0.0,0.0,0.0,0.0,0.0,0.0,0.0,0.0,0.0,0.0,0.0,0.0,0.0,0.0,0.0,0.0,0.0,0.0,0.0,0.0,0.0,0.0,0.0,0.0,0.0,0.0,0.0,0.0,0.0,0.0,0.0,0.0,0.0,0.0,0.0,0.0,0.0,0.0,0.0,0.0,0.0,0.0,0.0,0.0,0.0,0.0,0.0,0.0,0.0,0.0,0.0,0.0,0.0,0.0,0.0,0.0,0.0,0.0,0.0,0.0,0.0,0.0,0.0,0.0,0.0,0.0,0.0,0.0,0.0,0.0,0.0,0.0,0.0,0.0,0.0,0.0,0.0,0.0,0.0,0.0,0.0,0.0,0.0,0.0,0.0,0.0,0.0,0.0,0.0,0.0,0.0,0.0,0.0,0.0,0.0,0.0,0.0,0.0,0.0,3.9002,4.0079,4.088,4.088,4.1175,4.1405,4.1374,4.1035,3.9,3.4745,0.0,0.0,0.0,0.0,0.0,0.0,0.0,0.0,0.0,0.0,0.0,0.0,0.0,0.0,0.0,0.0,0.0,0.0,0.0,0.0,0.0,0.0,0.0,0.0,0.0,0.0,0.0,0.0,0.0,0.0,0.0,0.0,0.0,0.0,0.0,0.0,0.0,0.0,0.0,0.0,0.0,0.0,0.0,0.0,0.0,0.0,0.0,0.0,0.0,0.0,0.0,0.0,0.0,0.0,0.0,0.0,0.0,0.0,0.0,0.0,0.0,0.0,0.0,0.0,0.0,0.0,0.0,0.0,0.0,0.0,0.0,0.0,0.0,0.0,0.0,0.0,0.0,0.0,0.0,0.0,0.0,0.0,0.0,0.0,0.0,0.0,0.0,0.0,0.0,0.0,0.0,0.0,0.0,0.0,0.0,0.0,0.0,0.0,0.0,0.0,0.0,0.0,3.8337,3.982,4.0326,4.0958,4.1159,4.1373,4.169,4.151,3.8579,3.1976,0.0,0.0,0.0,0.0,0.0,0.0,0.0,0.0,0.0,0.0,0.0,0.0,0.0,0.0,0.0,0.0,0.0,0.0,0.0,0.0,0.0,0.0,0.0,0.0,0.0,0.0,0.0,0.0,0.0,0.0,0.0,0.0,0.0,0.0,0.0,0.0,0.0,0.0,0.0,0.0,0.0,0.0,0.0,0.0,0.0,0.0,0.0,0.0,0.0,0.0,0.0,0.0,0.0,0.0,0.0,0.0,0.0,0.0,0.0,0.0,0.0,0.0,0.0,0.0,0.0,0.0,0.0,0.0,0.0,0.0,0.0,0.0,0.0,0.0,0.0,0.0,0.0,0.0,0.0,0.0,0.0,0.0,0.0,0.0,0.0,0.0,0.0,0.0,0.0,0.0,0.0,0.0,0.0,0.0,0.0,0.0,0.0,0.0,0.0,0.0,0.0,0.0,3.7856,4.0406,4.0974,4.1388,4.1705,4.2013,4.2407,4.2292,3.8668,3.0368,0.0,0.0,0.0,0.0,0.0,0.0,0.0,0.0,0.0,0.0,0.0,0.0,0.0,0.0,0.0,0.0,0.0,0.0,0.0,0.0,0.0,0.0,0.0,0.0,0.0,0.0,0.0,0.0,0.0,0.0,0.0,0.0,0.0,0.0,0.0,0.0,0.0,0.0,0.0,0.0,0.0,0.0,0.0,0.0,0.0,0.0,0.0,0.0,0.0,0.0,0.0,0.0,0.0,0.0,0.0,0.0,0.0,0.0,0.0,0.0,0.0,0.0,0.0,0.0,0.0,0.0,0.0,0.0,0.0,0.0,0.0,0.0,0.0,0.0,0.0,0.0,0.0,0.0,0.0,0.0,0.0,0.0,0.0,0.0,0.0,0.0,0.0,0.0,0.0,0.0,0.0,0.0,0.0,0.0,0.0,0.0,0.0,0.0,0.0,0.0,0.0,0.0,3.8483,4.2546,4.3632,4.25,4.3283,4.3889,4.3902,4.3804,3.9943,0.0,0.0,0.0,0.0,0.0,0.0,0.0,0.0,0.0,0.0,0.0,0.0,0.0,0.0,0.0,0.0,0.0,0.0,0.0,0.0,0.0,0.0,0.0,0.0,0.0,0.0,0.0,0.0,0.0,0.0,0.0,0.0,0.0,0.0,0.0,0.0,0.0,0.0,0.0,0.0,0.0,0.0,0.0,0.0,0.0,0.0,0.0,0.0,0.0,0.0,0.0,0.0,0.0,0.0,0.0,0.0,0.0,0.0,0.0,0.0,0.0,0.0,0.0,0.0,0.0,0.0,0.0,0.0,0.0,0.0,0.0,0.0,0.0,0.0,0.0,0.0,0.0,0.0,0.0,0.0,0.0,0.0,0.0,0.0,0.0,0.0,0.0,0.0,0.0,0.0,0.0,0.0,0.0,0.0,0.0,0.0,0.0,0.0,0.0,0.0,0.0,0.0,0.0,4.0773,4.3626,4.3993,4.3606,4.3876,4.4058,4.4058,4.3962,4.0112,3.1324,0.0,0.0,0.0,0.0,0.0,0.0,0.0,0.0,0.0,0.0,0.0,0.0,0.0,0.0,0.0,0.0,0.0,0.0,0.0,0.0,0.0,0.0,0.0,0.0,0.0,0.0,0.0,0.0,0.0,0.0,0.0,0.0,0.0,0.0,0.0,0.0,0.0,0.0,0.0,0.0,0.0,0.0,0.0,0.0,0.0,0.0,0.0,0.0,0.0,0.0,0.0,0.0,0.0,0.0,0.0,0.0,0.0,0.0,0.0,0.0,0.0,0.0,0.0,0.0,0.0,0.0,0.0,0.0,0.0,0.0,0.0,0.0,0.0,0.0,0.0,0.0,0.0,0.0,0.0,0.0,0.0,0.0,0.0,0.0,0.0,0.0,0.0,0.0,0.0,0.0,0.0,0.0,0.0,0.0,0.0,0.0,0.0,0.0,0.0,0.0,0.0,0.0,0.0,4.0026,4.4122,4.4122,4.3452,4.2849,4.2468,4.2373,3.8805,3.063,0.0,0.0,0.0,0.0,0.0,0.0,0.0,0.0,0.0,0.0,0.0,0.0,0.0,0.0,0.0,0.0,0.0,0.0,0.0,0.0,0.0,0.0,0.0,0.0,0.0,0.0,0.0,0.0,0.0,0.0,0.0,0.0,0.0,0.0,0.0,0.0,0.0,0.0,0.0,0.0,0.0,0.0,0.0,0.0,0.0,0.0,0.0,0.0,0.0,0.0,0.0,0.0,0.0,0.0,0.0,0.0,0.0,0.0,0.0,0.0,0.0,0.0,0.0,0.0,0.0,0.0,0.0,0.0,0.0,0.0,0.0,0.0,0.0,0.0,0.0,0.0,0.0,0.0,0.0,0.0,0.0,0.0,0.0,0.0,0.0,0.0,0.0,0.0,0.0,0.0,0.0,0.0,0.0,0.0,0.0,0.0,0.0,0.0,0.0,0.0,0.0,0.0,0.0,3.3393,4.3553,4.3687,4.2079,4.0638,3.9744,3.9644,3.6562,2.9248,2.6058,0.0,0.0,0.0,0.0,0.0,0.0,0.0,0.0,0.0,0.0,0.0,0.0,0.0,0.0,0.0,0.0,0.0,0.0,0.0,0.0,0.0,0.0,0.0,0.0,0.0,0.0,0.0,0.0,0.0,0.0,0.0,0.0,0.0,0.0,0.0,0.0,0.0,0.0,0.0,0.0,0.0,0.0,0.0,0.0,0.0,0.0,0.0,0.0,0.0,0.0,0.0,0.0,0.0,0.0,0.0,0.0,0.0,0.0,0.0,0.0,0.0,0.0,0.0,0.0,0.0,0.0,0.0,0.0,0.0,0.0,0.0,0.0,0.0,0.0,0.0,0.0,0.0,0.0,0.0,0.0,0.0,0.0,0.0,0.0,0.0,0.0,0.0,0.0,0.0,0.0,0.0,0.0,0.0,0.0,0.0,0.0,0.0,0.0,0.0,0.0,0.0,0.0,3.4873,3.8036,3.9511,3.9276,3.9153,3.961,3.9644,3.6562,2.9248,2.699,0.0,0.0,0.0,0.0,0.0,0.0,0.0,0.0,0.0,0.0,0.0,0.0,0.0,0.0,0.0,0.0,0.0,0.0,0.0,0.0,0.0,0.0,0.0,0.0,0.0,0.0,0.0,0.0,0.0,0.0,0.0,0.0,0.0,0.0,0.0,0.0,0.0,0.0,0.0,0.0,0.0,0.0,0.0,0.0,0.0,0.0,0.0,0.0,0.0,0.0,0.0,0.0,0.0,0.0,0.0,0.0,0.0,0.0,0.0,0.0,0.0,0.0,0.0,0.0,0.0,0.0,0.0,0.0,0.0,0.0,0.0,0.0,0.0,0.0,0.0,0.0,0.0,0.0,0.0,0.0,0.0,0.0,0.0,0.0,0.0,0.0,0.0,0.0,0.0,0.0,0.0,0.0,0.0,0.0,0.0,0.0,0.0,0.0,0.0,0.0,0.0,0.0,3.5378,3.578,3.6819,3.6953,3.7154,3.7646,3.7679,3.4819,2.8132,2.6915,0.0,0.0,0.0,0.0,0.0,0.0,0.0,0.0,0.0,0.0,0.0,0.0,0.0,0.0,0.0,0.0,0.0,0.0,0.0,0.0,0.0,0.0,0.0,0.0,0.0,0.0,0.0,0.0,0.0,0.0,0.0,0.0,0.0,0.0,0.0,0.0,0.0,0.0,0.0,0.0,0.0,0.0,0.0,0.0,0.0,0.0,0.0,0.0,0.0,0.0,0.0,0.0,0.0,0.0,0.0,0.0,0.0,0.0,0.0,0.0,0.0,0.0,0.0,0.0,0.0,0.0,0.0,0.0,0.0,0.0,0.0,0.0,0.0,0.0,0.0,0.0,0.0,0.0,0.0,0.0,0.0,0.0,0.0,0.0,0.0,0.0,0.0,0.0,0.0,0.0,0.0,0.0,0.0,0.0,0.0,0.0,0.0,0.0,0.0,0.0,0.0,0.0,0.0,3.5378,3.5378,3.5378,3.5378,3.5378,3.5378,3.2808,2.6807,0.0,0.0,0.0,0.0,0.0,0.0,0.0,0.0,0.0,0.0,0.0,0.0,0.0,0.0,0.0,0.0,0.0,0.0,0.0,0.0,0.0,0.0,0.0,0.0,0.0,0.0,0.0,0.0,0.0,0.0,0.0,0.0,0.0,0.0,0.0,0.0,0.0,0.0,0.0,0.0,0.0,0.0,0.0,0.0,0.0,0.0,0.0,0.0,0.0,0.0,0.0,0.0,0.0,0.0,0.0,0.0,0.0,0.0,0.0,0.0,0.0,0.0,0.0,0.0,0.0,0.0,0.0,0.0,0.0,0.0,0.0,0.0,0.0,0.0,0.0,0.0,0.0,0.0,0.0,0.0,0.0,0.0,0.0,0.0,0.0,0.0,0.0,0.0,0.0,0.0,0.0,0.0,0.0,0.0,0.0,0.0,0.0,0.0,0.0,0.0,0.0,0.0,0.0,0.0,3.5378,3.5378,3.5378,3.5378,3.5378,3.5378,3.2808,2.6807,0.0,0.0,0.0,0.0,0.0,0.0,0.0,0.0,0.0,0.0,0.0,0.0,0.0,0.0]}],[{"header":{"parameterUnit":"kt","parameterCategory":2,"dx":1,"dy":1,"la1":29.285339999999998,"la2":30.599998999999997,"lo1":-89.70041500000002,"lo2":-87.6738589999976,"nx":112,"ny":82,"refTime":"2022-10-02T18:00:00:Z","depth":0,"parameterNumber":2,"parameterNumberName":"V-component_of_WINDS"},"data":[5.6937,5.772,5.66,4.7417,4.4673,4.0419,2.5776,2.5623,2.9273,3.1738,3.3315,3.4844,3.6677,3.3283,0.0,0.0,0.0,0.0,0.0,1.9497,2.0046,2.1141,2.6582,0.0,0.0,3.8085,4.5488,5.7,5.6131,5.9252,6.8881,6.9408,6.9408,6.9408,6.9408,6.9408,6.9408,6.9408,6.9671,7.023,7.1245,7.2029,7.2668,7.3758,7.4247,7.4247,7.4247,7.4623,7.5155,7.5155,7.6176,7.7648,7.7304,7.8056,7.9146,7.7717,7.6696,7.6057,7.6057,7.6057,7.6395,7.8582,7.9302,7.9302,7.9302,7.9302,7.9302,7.9302,7.9302,7.9302,7.9302,7.9302,7.9302,7.9302,7.9302,7.9302,7.9302,7.9302,7.9302,7.9302,7.9302,7.9302,7.9302,7.9302,7.9302,7.9302,7.9302,7.9302,7.9302,7.9302,7.9302,7.9302,7.9302,7.9302,7.9302,7.9302,7.9302,7.9302,7.9302,7.9302,7.9302,7.9302,7.9302,7.9302,7.9302,7.9302,7.9302,7.9302,7.9302,7.9302,7.9302,7.9302,5.0487,5.1561,5.0487,3.9639,4.0122,3.9017,2.2744,2.3999,2.7757,2.4833,2.7849,3.0481,2.8868,0.0,0.0,0.0,0.0,0.0,0.0,1.9993,2.1127,2.2839,3.0379,3.5904,3.7151,4.2672,4.9435,5.7226,5.677,6.0003,6.8919,6.9408,6.9408,6.9408,6.9408,6.9408,6.9408,6.9408,6.9408,6.9408,7.0455,7.0944,7.0982,7.2104,7.2593,7.2593,7.2593,7.2931,7.3382,7.3382,7.4403,7.5837,7.5155,7.6019,7.741,7.5944,7.4923,7.4247,7.4247,7.3532,7.2969,7.5236,7.7492,7.9302,7.9302,7.9302,7.9302,7.9302,7.9302,7.9302,7.9302,7.9302,7.9302,7.9302,7.9302,7.9302,7.9302,7.9302,7.9302,7.9302,7.9302,7.9302,7.9302,7.9302,7.9302,7.9302,7.9302,7.9302,7.9302,7.9302,7.9302,7.9302,7.9302,7.9302,7.9302,7.9302,7.9302,7.9302,7.9302,7.9302,7.9302,7.9302,7.9302,7.9302,7.9302,7.9302,7.9302,7.9302,7.9302,7.9302,7.9302,7.9302,4.3685,4.3587,4.2252,3.1366,3.1672,3.1966,2.156,2.3899,2.7694,2.5582,2.8129,3.0229,2.867,2.8411,0.0,0.0,0.0,0.0,0.0,2.1383,2.3326,2.4983,3.2294,3.9886,4.6619,4.3007,4.5672,5.8838,5.3646,5.5605,6.8693,6.9408,6.9408,6.9408,6.9408,6.9408,6.9408,6.9408,6.9408,6.9408,6.9408,6.9408,6.9408,6.9408,6.9408,6.9408,6.9408,7.0267,7.1653,7.1653,7.263,7.4096,7.3076,7.3264,7.4096,7.4096,7.4096,7.4096,7.4096,7.2034,6.9408,6.9408,7.3732,7.8996,7.8996,7.8996,7.8996,7.8996,7.8996,7.8996,7.8996,7.9146,7.9302,7.9302,7.9302,7.9302,7.9302,7.9302,7.9302,7.9302,7.9302,7.9302,7.9302,7.9146,7.8996,7.8996,7.919,7.9302,7.9302,7.9302,7.9302,7.9302,7.9302,7.9302,7.9302,7.9302,7.9302,7.9302,7.9302,7.9302,7.9302,7.9302,7.9302,7.9302,7.9302,7.9302,7.9302,7.9302,7.9302,7.9302,7.9302,7.9302,3.5541,3.6937,3.8461,3.201,3.1202,3.0353,2.4127,2.2245,2.1943,2.2475,2.2515,0.0,0.0,0.0,2.2112,0.0,0.0,2.7426,2.364,2.9835,3.4929,3.5495,3.7579,4.248,5.1515,5.23,5.6244,6.5949,6.053,6.0455,6.8957,6.9408,6.9408,6.9408,6.9408,6.9408,6.9408,6.9408,6.9408,6.9408,6.9408,6.9408,6.9408,6.9408,6.9408,6.9408,6.9408,6.9633,7.0042,7.0042,7.0982,7.2405,7.2104,7.1465,7.0718,7.0718,7.0718,7.0718,7.0718,7.0117,6.9408,6.9408,7.0611,7.2115,7.2115,7.2115,7.2115,7.2115,7.2115,7.2115,7.2115,7.5687,7.9302,7.9302,7.9302,7.9302,7.9302,7.9302,7.9302,7.9302,7.9302,7.9302,7.9302,7.5311,7.2115,7.2115,7.6213,7.9302,7.9302,7.9302,7.9302,7.9302,7.9302,7.9302,7.9302,7.9302,7.9302,7.9302,7.9302,7.9302,7.9302,7.9302,7.9302,7.9302,7.9302,7.9302,7.9302,7.9302,7.9302,7.9302,7.9302,7.9302,3.327,3.4852,3.6626,3.0581,3.1032,3.1037,2.3751,2.1665,2.1157,2.0688,0.0,0.0,0.0,0.0,0.0,0.0,2.7008,3.0472,2.7095,3.4707,4.0879,4.1613,4.5413,4.9702,5.3996,5.5952,6.0121,6.7753,6.2828,6.2372,6.9032,6.9408,6.9408,6.9408,6.9408,6.9408,6.9408,6.9408,6.9408,6.9408,6.9408,6.9408,6.9408,6.9408,6.9408,6.9408,6.9408,6.9408,6.9408,6.9408,6.9934,7.0756,7.0756,7.0192,6.9408,6.9408,6.9408,6.9408,6.9408,6.9408,6.9408,6.9408,6.9408,6.9408,6.9408,6.9408,6.9408,6.9408,6.9408,6.9408,6.9408,7.2265,7.516,7.516,7.516,7.516,7.516,7.516,7.516,7.516,7.516,7.516,7.516,7.1927,6.9408,6.9408,7.2679,7.516,7.516,7.516,7.516,7.516,7.516,7.6288,7.9077,7.9302,7.9302,7.9302,7.9302,7.9302,7.9302,7.9302,7.9302,7.9302,7.9302,7.9302,7.9302,7.9302,7.9302,7.9302,7.9302,7.9302,3.3325,3.4022,3.4801,2.7967,3.0243,3.1816,2.2933,0.0,2.4109,2.2141,0.0,2.1564,2.1903,0.0,0.0,2.2338,3.0114,3.5116,3.174,3.8706,4.4674,4.6059,5.4063,5.8312,5.5312,5.6699,6.0384,6.6668,6.3091,6.3162,6.9069,6.9408,6.9408,6.9408,6.9408,6.9408,6.9408,6.9408,6.9408,6.9408,6.9408,6.9408,6.9408,6.9408,6.9408,6.9408,6.9408,6.9408,6.9408,6.9408,6.9408,6.9408,6.9408,6.9408,6.9408,6.9408,6.9408,6.9408,6.9408,6.9408,6.9408,6.9408,6.9408,6.9408,6.9408,6.9408,6.9408,6.9408,6.9408,6.9408,6.9408,6.9408,6.9408,6.9408,6.9408,6.9408,6.9408,6.9408,6.9408,6.9408,6.9408,6.9408,6.9408,6.9408,6.9408,6.9408,6.9408,6.9408,6.9408,6.9408,6.9408,6.9408,6.9408,7.1777,7.768,7.8168,7.8507,7.9265,7.9302,7.9302,7.9302,7.9302,7.9302,7.9302,7.9302,7.9302,7.9302,7.9302,7.9302,7.9302,7.9302,7.9302,2.5262,2.4791,2.6324,2.6363,2.5344,2.5477,0.0,0.0,0.0,3.5772,3.5998,3.5555,3.706,3.6571,3.6315,3.7482,4.2734,4.5511,4.2098,4.9999,5.6248,5.6582,5.8312,5.9214,5.8575,6.1202,6.4585,6.8581,6.8017,6.8054,6.9333,6.9408,6.9408,6.9408,6.9408,6.9408,6.9408,6.9408,6.9408,6.9408,6.9408,6.9408,6.9408,6.9408,6.9408,6.9408,6.9408,6.9408,6.9408,6.9408,6.9408,6.9408,6.9408,6.9408,6.9408,6.9408,6.9408,6.9408,6.9408,6.9408,6.9408,6.9408,6.9408,6.9408,6.9408,6.9408,6.9408,6.9408,6.9408,6.9408,6.9408,6.9408,6.9408,6.9408,6.9408,6.9408,6.9408,6.9408,6.9408,6.9408,6.9408,6.9408,6.9408,6.9408,6.9408,6.9408,6.9408,6.9408,6.9408,6.9408,6.9408,6.9408,6.9408,6.9934,7.1213,7.1288,7.3581,7.8964,7.9302,7.9302,7.9302,7.9302,7.9302,7.9302,7.9302,7.9302,7.9302,7.9302,7.9302,7.9302,7.9302,7.9302,2.358,2.3459,2.4676,2.4211,2.4694,0.0,0.0,2.666,2.834,3.4006,3.4585,3.5415,3.965,4.054,4.0669,4.0812,4.641,5.1052,5.1883,5.6319,5.9477,5.9477,5.9477,5.9477,5.9477,6.1653,6.4129,6.669,6.8425,6.9408,6.9408,6.9408,6.9408,6.9408,6.9408,6.9408,6.9408,6.9408,6.9408,6.9408,6.9408,6.9408,6.9408,6.9408,6.9408,6.9408,6.9408,6.9408,6.9408,6.9408,6.9408,6.9408,6.9408,6.9408,6.9408,6.9408,6.9408,6.9408,6.9408,6.9408,6.9408,6.9408,6.9408,6.9408,6.9408,6.9408,6.9408,6.9408,6.9408,6.9408,6.9408,6.9408,6.9408,6.9408,6.9408,6.9408,6.9408,6.9408,6.9408,6.9408,6.9408,6.9408,6.9408,6.9505,6.9567,6.9402,6.9408,6.9408,6.9408,6.9408,6.9408,6.9408,6.9408,6.9408,6.9408,6.9408,7.0799,7.4145,7.4333,7.4333,7.4333,7.7529,7.9302,7.9302,7.9302,7.9302,7.9302,7.9302,7.9302,7.9302,7.9302,7.9302,2.3013,2.3468,2.4302,2.2992,2.487,0.0,2.46,2.5445,2.8012,3.2925,3.4306,3.6239,4.1639,4.4094,4.492,4.3707,4.9055,5.4807,5.8913,5.9477,5.9477,5.9477,5.9477,5.9477,5.9477,6.0901,6.2513,6.4199,6.7184,6.9032,6.937,6.9408,6.9408,6.9408,6.9408,6.9408,6.9408,6.9408,6.9408,6.9408,6.9408,6.9408,6.9408,6.9408,6.9408,6.9408,6.9408,6.9408,6.9408,6.9408,6.9408,6.9408,6.9408,6.9408,6.9408,6.9408,6.9408,6.9408,6.9408,6.9408,6.9408,6.9408,6.9408,6.9408,6.9408,6.9408,6.9408,6.9408,6.9408,6.9408,6.9408,6.9408,6.9408,6.9408,6.9408,6.9408,6.9408,6.9408,6.9408,6.9408,6.9408,6.9408,6.9408,6.9563,6.9611,6.9422,6.9408,6.9408,6.9408,6.9408,6.9408,6.9408,6.9408,6.9408,6.9408,6.9408,6.9408,6.9408,6.9408,6.9408,6.9408,7.4521,7.7379,7.7379,7.7379,7.8018,7.9302,7.8018,7.8056,7.9302,7.9302,7.9302,1.9076,0.0,0.0,2.4712,2.3017,0.0,3.7738,3.7817,3.8058,4.8744,5.2139,5.3513,5.4476,5.6045,5.7202,5.7274,5.8048,5.8838,5.9402,5.9477,5.9477,5.9477,5.9477,5.9477,5.9477,6.0901,6.2513,6.4199,6.6094,6.7791,6.9333,6.9408,6.9408,6.9408,6.9408,6.9408,6.9408,6.9408,6.9408,6.9408,6.9408,6.9408,6.9408,6.9408,6.9408,6.9408,6.9408,6.9408,6.9408,6.9408,6.9408,6.9408,6.9408,6.9408,6.9408,6.9408,6.9408,6.9408,6.9408,6.9408,6.9408,6.9408,6.9408,6.9408,6.9408,6.9408,6.9408,6.9408,6.9408,6.9408,6.9408,6.9408,6.9408,6.9408,6.9408,6.9408,6.9408,6.9408,6.9408,6.9408,6.9408,6.9408,6.9408,6.9412,6.9427,6.9375,6.9408,6.9408,6.9408,6.9408,6.9408,6.9408,6.9408,6.9408,6.9408,6.9408,6.9408,6.9408,6.9408,6.9408,6.9408,7.0085,7.0498,7.0498,7.0498,7.3393,7.9296,7.3393,7.3544,7.9302,7.9302,7.9302,1.8624,1.877,1.9643,2.2824,0.0,0.0,3.3398,3.5075,3.7438,4.6101,4.8546,5.0668,5.5552,5.7194,5.82,5.9318,5.9477,5.9477,5.9477,5.9477,5.9477,5.9477,5.9477,5.9477,5.9477,6.0901,6.2099,6.2813,6.5342,6.7195,6.7866,6.8844,6.9408,6.9408,6.9408,6.9408,6.9408,6.9408,6.9408,6.9408,6.9408,6.9408,6.9408,6.9408,6.9408,6.9408,6.9408,6.9408,6.9408,6.9408,6.9408,6.9408,6.9408,6.9408,6.9408,6.9408,6.9408,6.9408,6.9408,6.9408,6.9408,6.9408,6.9408,6.9408,6.9408,6.9408,6.9408,6.9408,6.9408,6.9408,6.9408,6.9408,6.9408,6.9408,6.9408,6.9408,6.9408,6.9408,6.9408,6.9408,6.9408,6.9408,6.9408,6.9408,6.9408,6.9408,6.9408,6.9462,6.9607,6.9487,6.9408,6.9408,6.9408,6.9408,6.9408,6.9408,6.9408,6.9408,6.9408,6.9408,6.9408,6.9408,6.9408,6.9408,6.9408,7.0761,7.3506,7.0761,7.0799,7.3544,7.3544,7.3544,1.8543,0.0,0.0,0.0,0.0,0.0,3.3444,3.5338,3.7797,4.3927,4.5687,4.7944,5.4027,5.609,5.7294,5.857,5.9176,5.9477,5.9477,5.9477,5.9477,5.9477,5.9477,5.9477,5.9477,6.0525,6.1352,6.1761,6.4101,6.5873,6.6819,6.8017,6.8919,6.937,6.9408,6.9408,6.9408,6.9408,6.9408,6.9408,6.9408,6.9408,6.9408,6.9408,6.9408,6.9408,6.9408,6.9408,6.9408,6.9408,6.9408,6.9408,6.9408,6.9408,6.9408,6.9408,6.9408,6.9408,6.9408,6.9408,6.9408,6.9408,6.9408,6.9408,6.9408,6.9408,6.9408,6.9408,6.9408,6.9408,6.9408,6.9408,6.9408,6.9408,6.9408,6.9408,6.9408,6.9408,6.9408,6.9408,6.9408,6.9408,6.9408,6.9408,6.9408,6.9408,6.9408,6.9482,6.9629,6.9519,6.9408,6.9408,6.9408,6.9408,6.9408,6.9408,6.9408,6.9408,6.9408,6.9408,6.9408,6.9408,6.9408,6.9408,6.9408,6.9408,6.9408,6.9408,6.9408,6.9408,6.9408,6.9408,0.0,0.0,0.0,3.1112,3.1097,3.2414,4.5124,4.4457,4.2637,4.778,5.0016,5.1291,5.1922,5.4611,5.681,5.6978,5.8424,5.9477,5.9477,5.9477,5.9477,5.9477,5.9477,5.9477,5.9477,5.9515,6.0187,6.1686,6.1911,6.342,6.6706,6.6894,6.7716,6.9333,6.9408,6.9408,6.9408,6.9408,6.9408,6.9408,6.9408,6.9408,6.9408,6.9408,6.9408,6.9408,6.9408,6.9408,6.9408,6.9408,6.9408,6.9408,6.9408,6.9408,6.9408,6.9408,6.9408,6.9408,6.9408,6.9408,6.9408,6.9408,6.9408,6.9408,6.9408,6.9408,6.9408,6.9408,6.9408,6.9408,6.9408,6.9408,6.9408,6.9408,6.9408,6.9408,6.9408,6.9408,6.9408,6.9408,6.9408,6.9408,6.9408,6.9408,6.9408,6.9408,6.9408,6.9413,6.9424,6.9375,6.9408,6.9408,6.9408,6.9408,6.9408,6.9408,6.9408,6.9408,6.9408,6.9408,6.9408,6.9408,6.9408,6.9408,6.9408,6.9408,6.9408,6.9408,6.9408,6.9408,6.9408,6.9408,2.2169,2.3921,2.629,3.3255,3.6174,3.8726,4.4258,4.5925,4.6797,4.8491,4.9345,5.0162,5.1422,5.2454,5.3579,5.4921,5.6567,5.8101,5.9313,5.9477,5.9477,5.9477,5.9477,5.9477,5.9477,5.9477,5.9703,6.0224,6.1239,6.233,6.3457,6.5648,6.7119,6.7716,6.8806,6.9408,6.9408,6.9408,6.9408,6.9408,6.9408,6.9408,6.9408,6.9408,6.9408,6.9408,6.9408,6.9408,6.9408,6.9408,6.9408,6.9408,6.9408,6.9408,6.9408,6.9408,6.9408,6.9408,6.9408,6.9408,6.9408,6.9408,6.9408,6.9408,6.9408,6.9408,6.9408,6.9408,6.9408,6.9408,6.9408,6.9408,6.9408,6.9408,6.9408,6.9408,6.9408,6.9408,6.9408,6.9408,6.9408,6.9408,6.9408,6.9408,6.9408,6.9408,6.9408,6.9408,6.9408,6.9408,6.9408,6.9408,6.9408,6.9408,6.9408,6.9408,6.9408,6.9408,6.9408,6.9408,6.9408,6.9408,6.9408,6.9408,6.9408,6.9408,6.9408,6.9408,6.9408,6.9408,6.9408,6.9408,2.4172,2.6207,2.8622,3.5678,3.9785,4.2733,4.5114,4.7347,4.8888,4.8888,4.8897,4.9273,5.0397,5.1013,5.1993,5.3877,5.5638,5.74,5.9168,5.9453,5.9489,5.9489,5.9489,5.9489,5.9489,5.9489,5.9502,5.954,6.0442,6.1253,6.1859,6.3895,6.5342,6.5944,6.7034,6.7861,6.8468,6.9069,6.9408,6.9408,6.9408,6.9408,6.9408,6.9408,6.9408,6.9408,6.9408,6.9408,6.9408,6.9408,6.9408,6.9408,6.9408,6.9408,6.9408,6.9408,6.9408,6.9408,6.9408,6.9408,6.9408,6.9408,6.9408,6.9408,6.9408,6.9408,6.9408,6.9408,6.9408,6.9408,6.9408,6.9408,6.9408,6.9408,6.9408,6.9408,6.9408,6.9408,6.9408,6.9408,6.9408,6.9408,6.9408,6.9408,6.9408,6.9408,6.9408,6.9408,6.9408,6.9408,6.9408,6.9408,6.9408,6.9408,6.9408,6.9408,6.9408,6.9408,6.9408,6.9408,6.9408,6.9408,6.9408,6.9408,6.9408,6.9408,6.9408,6.9408,6.9408,6.9408,6.9408,6.9408,2.4279,2.7176,3.07,3.8741,4.2208,4.4511,4.798,4.8858,4.8968,4.8968,4.8905,4.8845,4.8938,5.0273,5.1913,5.3642,5.5416,5.722,5.8932,5.9363,5.9485,5.9497,5.9497,5.9497,5.9497,5.9497,5.9536,5.9695,5.9547,6.0179,6.1804,6.1864,6.2555,6.4167,6.4312,6.5112,6.6706,6.843,6.9333,6.9408,6.9408,6.9408,6.9408,6.9408,6.9408,6.9408,6.9295,6.9333,6.9408,6.9408,6.9408,6.9408,6.9408,6.9408,6.9408,6.9408,6.9408,6.9408,6.9408,6.9408,6.9408,6.9408,6.9408,6.9408,6.9408,6.9408,6.9408,6.9408,6.9408,6.9408,6.9408,6.9408,6.9408,6.9408,6.9408,6.9408,6.9408,6.9408,6.9408,6.9408,6.9408,6.9408,6.9408,6.9408,6.9408,6.9408,6.9408,6.9408,6.9408,6.9408,6.9408,6.9408,6.9408,6.9408,6.9408,6.9408,6.9408,6.9408,6.9408,6.9408,6.9408,6.9408,6.9408,6.9408,6.9408,6.9408,6.9408,6.9408,6.9408,6.9408,6.9408,6.9408,2.805,3.3551,3.822,4.3804,4.6107,4.7231,4.8151,4.8664,4.8968,4.8968,4.8951,4.8891,4.8862,4.9196,5.0048,5.1744,5.3465,5.5254,5.714,5.8501,5.9405,5.9611,5.9629,5.9629,5.9629,5.9629,5.964,5.966,5.9643,5.9792,6.01,6.1285,6.2107,6.2442,6.3678,6.4543,6.4999,6.6663,6.8167,6.9408,6.9408,6.9408,6.9408,6.9408,6.9408,6.9333,6.8054,6.8242,6.9408,6.9408,6.9408,6.9408,6.9408,6.9408,6.9408,6.9408,6.9408,6.9408,6.9408,6.9408,6.9408,6.9408,6.9408,6.9408,6.9408,6.9408,6.9408,6.9408,6.9408,6.9408,6.9408,6.9408,6.9408,6.9408,6.9408,6.9408,6.9408,6.9408,6.9408,6.9408,6.9408,6.9408,6.9408,6.9408,6.9408,6.9408,6.9408,6.9408,6.9408,6.9408,6.9408,6.9408,6.9408,6.9408,6.9408,6.9408,6.9408,6.9408,6.9408,6.9408,6.9408,6.9408,6.9408,6.9408,6.9408,6.9408,6.9408,6.9408,6.9408,6.9408,6.9408,6.9408,2.7402,3.4165,4.086,4.571,4.7459,4.8007,4.8252,4.8639,4.8968,4.8968,4.8839,4.8743,4.8845,4.8827,4.934,5.1026,5.2169,5.3692,5.6227,5.7485,5.8473,5.9342,5.9517,5.9607,5.9607,5.9629,5.9678,5.9743,5.9722,5.9649,5.9564,6.0403,6.0866,6.0772,6.1709,6.255,6.3227,6.4172,6.5873,6.828,6.9032,6.9408,6.937,6.8618,6.7866,6.7142,6.6964,6.742,6.828,6.828,6.8731,6.9333,6.8581,6.8731,6.9408,6.9408,6.9408,6.9408,6.9408,6.9408,6.9408,6.9408,6.9408,6.9408,6.9408,6.9408,6.9408,6.9408,6.9408,6.9408,6.9408,6.9408,6.9408,6.9408,6.9408,6.9408,6.9408,6.9408,6.9408,6.9408,6.9408,6.9408,6.9408,6.9408,6.9408,6.9408,6.9408,6.9408,6.9408,6.9408,6.9408,6.9408,6.9408,6.9408,6.9408,6.9408,6.9408,6.9408,6.9408,6.9408,6.9408,6.9408,6.9408,6.9408,6.9408,6.9408,6.9408,6.9408,6.9408,6.9408,6.9408,6.9408,2.6194,3.2801,4.0525,4.5664,4.7247,4.7694,4.8138,4.8544,4.8876,4.8911,4.8621,4.8489,4.8839,4.8845,4.9297,5.0762,5.1254,5.2566,5.5622,5.6447,5.7305,5.8933,5.9318,5.9473,5.9473,5.9568,5.9664,5.9788,5.9687,5.9664,5.9655,5.9554,5.9483,5.9509,5.9468,6.013,6.1479,6.1733,6.3307,6.6212,6.7904,6.8726,6.8651,6.6964,6.5492,6.443,6.5643,6.6325,6.655,6.655,6.7377,6.8618,6.734,6.7753,6.9069,6.9333,6.9408,6.9408,6.9408,6.9408,6.9408,6.9408,6.9408,6.9408,6.9408,6.9408,6.9408,6.9408,6.9408,6.9408,6.9408,6.9408,6.9408,6.9408,6.9408,6.9408,6.9408,6.9408,6.9408,6.9408,6.9408,6.9408,6.9408,6.9408,6.9408,6.9408,6.9408,6.9408,6.9408,6.9408,6.9408,6.9408,6.9408,6.9408,6.9408,6.9408,6.9408,6.9408,6.9408,6.9408,6.9408,6.9408,6.9408,6.9408,6.9408,6.9408,6.9408,6.9408,6.9408,6.9408,6.9408,6.9322,3.3287,3.6863,3.9778,4.5093,4.6841,4.7346,4.7424,4.7807,4.826,4.8475,4.8444,4.8425,4.8513,4.8737,4.8997,4.918,5.0415,5.2089,5.4166,5.5602,5.7115,5.9036,5.9285,5.9307,5.9307,5.9338,5.9364,5.9381,5.9464,5.9537,5.9502,5.9595,5.9621,5.9643,5.9558,5.9619,5.9883,6.1164,6.2099,6.2706,6.4392,6.5219,6.5144,6.3457,6.3302,6.4275,6.3189,6.3495,6.4768,6.4768,6.4956,6.5332,6.6437,6.7044,6.7458,6.8881,6.9408,6.9408,6.9408,6.9408,6.9408,6.9408,6.9408,6.9408,6.9408,6.9408,6.9408,6.9408,6.9408,6.9408,6.9408,6.9408,6.9408,6.9408,6.9408,6.9408,6.9408,6.9408,6.9408,6.9408,6.9408,6.9408,6.9408,6.9408,6.9408,6.9408,6.9408,6.9408,6.9408,6.9408,6.9408,6.9408,6.9408,6.9408,6.9408,6.9408,6.9408,6.9408,6.9408,6.9408,6.9408,6.9408,6.9408,6.9408,6.9408,6.9408,6.9408,6.9408,6.9408,6.9408,6.9408,6.8923,3.0872,3.5261,3.9492,4.2805,4.5378,4.7142,4.7213,4.7586,4.8134,4.8867,4.8404,4.8007,4.8352,4.8558,4.8719,4.8856,4.9573,5.0982,5.3467,5.4545,5.6014,5.8582,5.8992,5.9082,5.9082,5.9224,5.9285,5.9285,5.9335,5.9404,5.9483,5.9404,5.9437,5.9593,5.9378,5.9307,5.9307,6.0068,6.0904,6.1725,6.2601,6.349,6.4275,6.1728,6.1051,6.1803,6.1799,6.2287,6.3039,6.3039,6.3528,6.4355,6.4247,6.531,6.6969,6.7791,6.8618,6.9408,6.9408,6.9408,6.9408,6.9408,6.9408,6.9408,6.9408,6.9408,6.9408,6.9408,6.9408,6.9408,6.9408,6.9408,6.9408,6.9408,6.9408,6.9408,6.9408,6.9408,6.9408,6.9408,6.9408,6.9408,6.9408,6.9408,6.9408,6.9408,6.9408,6.9408,6.9408,6.9408,6.9408,6.9408,6.9408,6.9408,6.9408,6.9408,6.9408,6.9408,6.9408,6.9408,6.9408,6.9408,6.9408,6.9408,6.9408,6.9408,6.9408,6.9408,6.9311,6.9066,6.8738,6.8327,2.8887,3.3906,3.9604,4.1408,4.3824,4.6092,4.7295,4.7532,4.7804,4.8803,4.8111,4.7542,4.8094,4.8264,4.8392,4.8804,4.8888,4.9846,5.2733,5.3556,5.4861,5.7688,5.8522,5.8869,5.8869,5.9045,5.9155,5.9155,5.9195,5.9252,5.9362,5.9205,5.9243,5.946,5.922,5.9097,5.908,5.9163,5.9795,6.102,6.1174,6.1938,6.3102,6.0553,5.9407,5.9552,6.0788,6.1315,6.1315,6.1315,6.2099,6.3189,6.2212,6.3462,6.5836,6.6174,6.7377,6.8844,6.8844,6.9069,6.9408,6.9408,6.9408,6.9408,6.9408,6.9408,6.9408,6.9408,6.9408,6.9408,6.9408,6.9408,6.9408,6.9408,6.9408,6.9408,6.9408,6.9408,6.9408,6.9408,6.9408,6.9408,6.9408,6.9408,6.9408,6.9408,6.9408,6.9408,6.9408,6.9408,6.9408,6.9408,6.9408,6.9408,6.9408,6.9408,6.9408,6.9408,6.9408,6.9408,6.9408,6.9408,6.9408,6.9408,6.9408,6.9392,6.9316,6.9316,6.9079,6.8609,6.8066,6.7855,3.4726,3.7478,4.031,4.3145,4.2777,4.2969,4.7581,4.7597,4.6683,4.7005,4.7177,4.7329,4.7476,4.7739,4.7977,4.8392,4.8451,4.9168,5.1249,5.2876,5.4466,5.6191,5.776,5.8722,5.8722,5.8742,5.8762,5.8762,5.8857,5.8947,5.8975,5.9147,5.928,5.9298,5.9185,5.9098,5.9077,5.8988,5.9019,5.9144,5.929,5.9409,5.9559,5.9259,5.923,5.9477,5.9627,5.9703,5.9703,5.9703,5.9778,6.0041,6.1315,6.2024,6.2442,6.4016,6.5643,6.7119,6.7119,6.8092,6.9408,6.9408,6.9408,6.9408,6.9408,6.9408,6.9408,6.9408,6.9408,6.9408,6.9408,6.9408,6.9408,6.9408,6.9408,6.9408,6.9408,6.9408,6.9408,6.9408,6.9408,6.9408,6.9408,6.9408,6.9408,6.9408,6.9408,6.9408,6.9408,6.9408,6.9408,6.9408,6.9408,6.9408,6.9408,6.9408,6.9408,6.9408,6.9408,6.9408,6.9408,6.9408,6.9408,6.9408,6.9408,6.9294,6.9048,6.9048,6.8661,6.7928,6.7855,6.7855,2.6851,3.0554,3.4691,3.7003,4.0542,4.4049,4.637,4.7096,4.7436,4.8022,4.8296,4.8214,4.753,4.7509,4.7765,4.8295,4.8412,4.9099,5.1032,5.277,5.4435,5.5982,5.7665,5.8719,5.8719,5.8719,5.8719,5.8719,5.8744,5.8828,5.8896,5.891,5.8988,5.9045,5.8916,5.8877,5.8846,5.8803,5.8784,5.8796,5.8908,5.8896,5.8746,5.8982,5.9158,5.9267,5.9398,5.9477,5.9477,5.9477,5.9477,5.9552,6.0149,6.0976,6.1874,6.2588,6.4553,6.6856,6.6856,6.7979,6.9408,6.9408,6.9408,6.9408,6.9408,6.9408,6.9408,6.9408,6.9408,6.9408,6.9408,6.9408,6.9408,6.9408,6.9408,6.9408,6.9408,6.9408,6.9408,6.9408,6.9408,6.9408,6.9408,6.9408,6.9408,6.9408,6.9408,6.9408,6.9408,6.9408,6.9408,6.9408,6.9408,6.9408,6.9408,6.9408,6.9408,6.9408,6.9408,6.9408,6.9408,6.9408,6.9322,6.9176,6.9176,6.9036,6.8782,6.8611,6.8383,6.8069,6.7901,6.7855,2.2192,2.581,3.0144,3.183,3.7216,4.2267,4.3092,4.4731,4.6443,4.7743,4.8188,4.8257,4.8039,4.7572,4.7537,4.8621,4.8509,4.879,5.0249,5.2387,5.4249,5.5357,5.7375,5.8719,5.8719,5.8719,5.8719,5.8719,5.8719,5.8725,5.8827,5.8744,5.8731,5.8833,5.8744,5.8668,5.8648,5.8645,5.8621,5.8594,5.8711,5.8671,5.8527,5.8797,5.8954,5.9048,5.9211,5.933,5.9374,5.9374,5.9398,5.9477,5.9477,6.0154,6.1127,6.1127,6.2936,6.546,6.5949,6.7227,6.8731,6.9257,6.9408,6.9408,6.9408,6.9408,6.9408,6.9408,6.9408,6.9408,6.9408,6.9408,6.9408,6.9408,6.9408,6.9408,6.9408,6.9408,6.9408,6.9408,6.9408,6.9408,6.9408,6.9408,6.9408,6.9408,6.9408,6.9408,6.9408,6.9408,6.9408,6.9408,6.9408,6.9408,6.9408,6.9408,6.9408,6.9408,6.9408,6.9408,6.9408,6.9322,6.92,6.8986,6.8923,6.8738,6.8492,6.8319,6.8188,6.8112,6.791,6.7855,2.4638,2.6108,2.8173,2.9608,3.2747,3.5844,3.7258,3.9905,4.2758,4.5209,4.6009,4.6945,4.898,4.7875,4.7319,4.9415,4.8768,4.8102,4.8372,5.1532,5.3841,5.3878,5.6707,5.8719,5.8719,5.8719,5.8719,5.8719,5.8719,5.8719,5.8688,5.8719,5.8719,5.8688,5.8719,5.8641,5.852,5.8499,5.8463,5.8299,5.8448,5.852,5.8513,5.852,5.8682,5.8884,5.8884,5.8956,5.9088,5.9088,5.9262,5.9477,5.9477,5.9477,5.9515,5.9515,6.0525,6.2099,6.3791,6.545,6.7157,6.8844,6.9408,6.9408,6.9408,6.9408,6.9408,6.9408,6.9408,6.9408,6.9408,6.9408,6.9408,6.9408,6.9408,6.9408,6.9408,6.9408,6.9408,6.9408,6.9408,6.9408,6.9408,6.9408,6.9408,6.9408,6.9408,6.9408,6.9408,6.9408,6.9408,6.9408,6.9408,6.9408,6.9408,6.9408,6.9408,6.9408,6.9408,6.9408,6.9408,6.9127,6.8986,6.9024,6.8762,6.8484,6.8238,6.823,6.8095,6.7819,6.7855,6.7855,1.988,2.2898,2.6572,2.928,3.3144,3.6437,3.6868,4.0314,4.3973,4.584,4.5737,4.5686,4.6898,4.6993,4.7276,4.8364,4.8235,4.8174,4.8744,5.1725,5.3841,5.3841,5.6707,5.8719,5.8719,5.8719,5.8719,5.8719,5.8719,5.8719,5.8719,5.8719,5.8719,5.8719,5.8719,5.8668,5.8641,5.8565,5.8493,5.8463,5.8411,5.8367,5.8367,5.847,5.8555,5.8631,5.882,5.8915,5.8981,5.9071,5.9082,5.9063,5.9063,5.9063,5.908,5.92,6.0142,6.1516,6.2235,6.3455,6.5043,6.6848,6.7407,6.7655,6.9,6.9408,6.9408,6.9408,6.9408,6.9311,6.8929,6.885,6.885,6.885,6.885,6.885,6.885,6.885,6.8897,6.9085,6.9115,6.9194,6.9349,6.9408,6.9408,6.9408,6.9408,6.9408,6.9408,6.9408,6.9408,6.9408,6.9408,6.9408,6.9408,6.9408,6.9408,6.9408,6.9223,6.9115,6.9115,6.887,6.8639,6.8484,6.8391,6.8221,6.7955,6.7955,6.791,6.7855,6.7855,6.7855,1.936,2.2505,2.585,2.8824,3.2188,3.4943,3.5568,3.7372,3.9405,4.1093,4.1429,4.18,4.3245,4.5861,4.8169,4.9197,4.8976,4.8669,4.8598,5.15,5.3671,5.3835,5.6707,5.8719,5.8719,5.8719,5.8719,5.8719,5.8719,5.8719,5.8719,5.8719,5.8719,5.8719,5.8719,5.8719,5.8719,5.8564,5.8499,5.8499,5.8381,5.8328,5.8328,5.8352,5.8345,5.8389,5.8534,5.8645,5.8768,5.8821,5.8883,5.8877,5.8877,5.8877,5.8933,5.8979,5.9585,6.0468,6.1195,6.2472,6.405,6.5854,6.6827,6.7513,6.8749,6.9123,6.9123,6.9123,6.9123,6.8874,6.7973,6.7746,6.7895,6.8484,6.8633,6.8633,6.8633,6.8633,6.8639,6.883,6.8857,6.8903,6.9061,6.9123,6.9147,6.9223,6.9234,6.9294,6.936,6.9408,6.9408,6.9408,6.9408,6.9408,6.9408,6.9408,6.9408,6.9408,6.9055,6.8857,6.8857,6.8633,6.8391,6.823,6.8129,6.7999,6.7855,6.7855,6.7855,6.7855,6.7855,6.7855,2.1668,2.3955,2.575,2.8063,3.0236,3.2201,3.3887,3.2194,3.0844,3.2755,3.4239,3.5986,3.8528,4.4174,4.9029,5.0904,5.0398,4.9446,4.8469,5.1378,5.3705,5.3926,5.6879,5.8793,5.8533,5.8645,5.8719,5.8719,5.8719,5.8719,5.8719,5.8719,5.8719,5.8719,5.8719,5.8719,5.8719,5.8562,5.852,5.8527,5.8374,5.8344,5.8299,5.8191,5.8106,5.8106,5.8106,5.8247,5.8491,5.8513,5.8631,5.8839,5.8852,5.8846,5.8839,5.8852,5.8846,5.9063,6.0541,6.2055,6.3643,6.5496,6.7061,6.8276,6.8551,6.8633,6.8596,6.8484,6.8425,6.8105,6.6742,6.6406,6.6779,6.8217,6.8544,6.8544,6.844,6.8395,6.8366,6.8276,6.835,6.8432,6.8447,6.8521,6.8712,6.8929,6.8998,6.9067,6.9311,6.9333,6.9333,6.9333,6.9333,6.9333,6.9333,6.9333,6.9295,6.9182,6.882,6.8611,6.8611,6.8335,6.8205,6.8205,6.7955,6.7855,6.7855,6.7855,6.7855,6.7855,6.7855,6.7855,1.7066,2.0868,2.4586,2.5452,3.0104,3.483,3.624,3.3149,3.0422,3.1886,3.1877,3.255,3.584,3.9012,4.2734,4.76,4.9154,5.0196,5.1428,5.4694,5.6509,5.5309,5.8395,5.9596,5.7028,5.7932,5.8719,5.8719,5.8719,5.8719,5.8719,5.8719,5.8719,5.8719,5.8719,5.8719,5.8719,5.8562,5.8548,5.8654,5.8544,5.8478,5.847,5.8222,5.8106,5.8106,5.8106,5.8146,5.8216,5.8441,5.8441,5.8307,5.8527,5.8484,5.8344,5.8534,5.8484,5.8389,5.8949,5.9262,5.9956,6.305,6.4297,6.5107,6.7807,6.8633,6.8372,6.7157,6.6524,6.6436,6.7241,6.7462,6.7573,6.7943,6.8017,6.7684,6.651,6.6215,6.5904,6.4808,6.5626,6.6616,6.6793,6.7821,6.8655,6.8712,6.872,6.8741,6.8789,6.8796,6.8796,6.8796,6.8796,6.8796,6.8796,6.8796,6.828,6.7098,6.7829,6.8319,6.8319,6.8069,6.7919,6.7919,6.7892,6.7855,6.7855,6.7855,6.7855,6.7855,6.7855,6.7855,1.9405,2.3451,2.6149,2.2409,2.6352,3.1042,3.0486,2.8388,2.6806,2.7759,2.8034,2.9422,3.3795,3.6044,3.9056,4.4568,4.6404,4.7905,4.9974,5.2736,5.4846,5.558,5.7589,5.881,5.8513,5.8638,5.8719,5.8719,5.8719,5.8719,5.8719,5.8719,5.8719,5.8719,5.8719,5.8719,5.8719,5.8634,5.8634,5.8719,5.858,5.8507,5.85,5.8238,5.8106,5.8106,5.8106,5.8106,5.8159,5.8262,5.8268,5.8122,5.8262,5.8231,5.813,5.8262,5.8231,5.813,5.827,5.874,5.9612,6.1506,6.2626,6.3685,6.6377,6.6639,6.6157,6.6825,6.5177,6.3472,6.4319,6.454,6.4715,6.5424,6.5608,6.5387,6.454,6.4356,6.4104,6.337,6.454,6.5514,6.4881,6.6713,6.7784,6.6423,6.7471,6.8216,6.7627,6.8156,6.8633,6.8633,6.8633,6.8633,6.8633,6.797,6.7493,6.7381,6.7781,6.8043,6.8043,6.7901,6.7855,6.7855,6.7855,6.7855,6.7855,6.7855,6.7855,6.7855,6.7855,6.7855,2.2922,2.716,2.8845,2.1626,2.3307,2.6146,2.3824,2.285,2.2599,2.3021,2.4016,2.6312,3.1281,3.332,3.5957,4.1146,4.2815,4.4592,4.7975,5.0148,5.2556,5.5667,5.654,5.7797,6.0228,5.938,5.8719,5.8719,5.8719,5.8719,5.8719,5.8719,5.8719,5.8719,5.8719,5.8719,5.8719,5.8719,5.8719,5.8719,5.8587,5.8515,5.85,5.8253,5.8122,5.8106,5.8106,5.8106,5.8106,5.8106,5.8106,5.8106,5.8106,5.8106,5.8106,5.8106,5.8106,5.8106,5.8106,5.9072,6.0295,6.0553,6.1548,6.2947,6.4614,6.4126,6.3574,6.6308,6.3979,6.0701,6.0958,6.0995,6.1364,6.2653,6.2984,6.2911,6.269,6.2616,6.2542,6.2284,6.361,6.4319,6.2874,6.5084,6.6241,6.3704,6.5661,6.7031,6.5917,6.6936,6.7747,6.7747,6.7971,6.812,6.812,6.7122,6.6974,6.8082,6.7494,6.7229,6.7487,6.7487,6.7598,6.7855,6.7855,6.7855,6.7855,6.7855,6.7855,6.7855,6.7855,6.78,1.8239,2.4531,3.0615,2.9619,2.9224,2.8926,2.8524,2.5114,2.2084,2.2154,2.1906,2.27,2.608,2.7466,3.004,3.5797,3.876,4.3296,5.1827,5.4831,5.6348,5.7042,5.8794,5.9172,5.7149,5.8006,5.8719,5.8719,5.8719,5.8719,5.8719,5.8719,5.8719,5.8719,5.8719,5.8719,5.8719,5.8719,5.8719,5.8719,5.8585,5.8514,5.85,5.8359,5.8222,5.8106,5.8106,5.8106,5.8106,5.8106,5.8106,5.8106,5.8106,5.8106,5.8106,5.8106,5.8106,5.8106,5.8106,5.8298,5.874,6.0185,6.0811,6.1327,6.2874,6.3205,6.3095,6.3574,6.2248,6.0958,6.2284,6.2616,6.269,6.2911,6.2984,6.2616,6.129,6.0995,6.059,5.9146,6.025,6.1327,6.1069,6.2505,6.3554,6.3118,6.3458,6.3733,6.3517,6.3701,6.3849,6.3849,6.5112,6.5961,6.5961,6.6995,6.7143,6.6035,6.4547,6.4347,6.5792,6.5866,6.6492,6.7819,6.7855,6.7855,6.7855,6.7855,6.7855,6.7855,6.7855,6.7772,2.1943,2.5984,2.9423,2.7531,2.8596,2.9684,2.8199,2.67,2.5477,2.4912,2.4064,2.4357,2.7531,2.6525,2.7674,3.5002,3.6548,3.9426,4.6995,5.0974,5.4157,5.69,5.7617,5.8119,5.8559,5.8659,5.8719,5.8719,5.8719,5.8719,5.8719,5.8719,5.8719,5.8719,5.8719,5.8719,5.8719,5.8719,5.8719,5.8719,5.8555,5.8505,5.8514,5.8441,5.8381,5.8344,5.8344,5.8313,5.8222,5.8222,5.8191,5.8106,5.8106,5.8106,5.8106,5.8106,5.8106,5.8106,5.8106,5.8106,5.8262,5.9035,5.9293,5.9587,6.1216,6.1061,6.0361,6.0361,5.9845,5.944,6.0177,6.0361,6.0361,6.0361,6.0361,6.0177,5.944,5.9293,5.9072,5.8298,5.9477,6.0369,5.944,6.1318,6.2395,6.0619,6.1842,6.269,6.1842,6.3242,6.3979,6.3095,6.524,6.6419,6.5571,6.6161,6.6271,6.5535,6.5571,6.5571,6.5498,6.6308,6.7119,6.7819,6.7855,6.7809,6.7732,6.7732,6.7675,6.753,6.753,6.748,2.7824,0.0,2.9428,2.679,2.8933,3.0997,0.0,2.8502,2.8739,2.7379,2.5891,2.5769,2.8652,2.6319,2.6377,3.405,3.5053,3.6818,4.2272,4.6877,5.1253,5.5496,5.5629,5.6414,5.9117,5.8884,5.8571,5.8571,5.8641,5.8719,5.8719,5.8719,5.8719,5.8719,5.8719,5.8719,5.8719,5.8719,5.8719,5.8719,5.8613,5.8534,5.8513,5.8507,5.8522,5.8507,5.8507,5.8463,5.8366,5.8366,5.8268,5.8146,5.8146,5.813,5.8106,5.8106,5.8106,5.8106,5.8106,5.8106,5.8106,5.8106,5.8106,5.8364,5.9661,5.9146,5.8106,5.8106,5.8106,5.8106,5.8106,5.8106,5.8106,5.8106,5.8106,5.8106,5.8106,5.8106,5.8106,5.8106,5.9182,5.9624,5.8327,6.0177,6.0987,5.8475,6.025,6.14,6.0214,6.2579,6.3877,6.2579,6.4973,6.6382,6.5571,6.5748,6.5583,6.482,6.5886,6.6033,6.482,6.5923,6.6915,6.7678,6.7715,6.7638,6.7563,6.7563,6.7436,6.7271,6.7271,6.7031,0.0,3.3933,3.3504,3.4317,3.4778,3.4502,3.2501,3.1077,0.0,2.7171,2.478,2.3684,2.55,2.4757,2.5464,3.0197,3.4003,3.8008,4.2653,4.6844,5.0216,5.2393,5.3858,5.4932,5.555,5.714,5.8146,5.8146,5.8477,5.8719,5.8719,5.8719,5.8719,5.8719,5.8719,5.8719,5.8719,5.8719,5.8719,5.8719,5.8712,5.8634,5.8513,5.8513,5.8521,5.8507,5.8507,5.85,5.8493,5.8493,5.8404,5.8284,5.8284,5.823,5.8106,5.8106,5.8106,5.8106,5.8106,5.8106,5.8106,5.8106,5.8106,5.8143,5.8254,5.8217,5.8106,5.8106,5.8106,5.8106,5.8106,5.8106,5.8106,5.8106,5.8106,5.8106,5.8106,5.8106,5.8106,5.8106,5.8217,5.8254,5.8143,5.8327,5.8409,5.8143,5.8327,5.8446,5.8335,5.9882,6.0958,6.0811,6.2321,6.3905,6.5387,6.6521,6.5852,6.282,6.2711,6.2711,6.2637,6.2711,6.4208,6.725,6.7276,6.7312,6.7255,6.7255,6.7292,6.7271,6.7271,6.6326,3.4765,3.6135,3.7045,3.5605,3.6929,3.7752,3.4845,3.3191,3.1511,2.8863,2.6352,2.5086,2.6627,2.5279,2.6551,3.4651,3.5543,3.7704,4.4887,4.7912,4.9999,5.1731,5.4385,5.6118,5.6291,5.7188,5.7755,5.7755,5.8122,5.8344,5.8344,5.8578,5.8592,5.8352,5.8578,5.8719,5.8719,5.8719,5.8719,5.8719,5.8719,5.8705,5.8634,5.8634,5.862,5.8643,5.8643,5.8571,0.0,5.8521,5.8448,5.8328,5.8328,5.823,5.8106,5.8106,5.8106,5.8106,5.8106,5.8106,5.8106,5.8106,5.8106,5.8106,5.8106,5.8106,5.8106,5.8106,5.8106,5.8106,5.8106,5.8106,5.8106,5.8106,5.8106,5.8106,5.8106,5.8106,5.8106,5.8106,5.8106,5.8106,5.8106,5.8063,5.7997,5.7997,5.7942,5.7873,5.7873,5.9274,6.0263,6.0282,6.2635,6.4843,6.6445,6.6038,6.517,6.3929,6.4851,6.4961,6.3893,6.4851,6.5993,6.7234,6.7271,6.677,6.5795,6.6405,6.6438,6.6014,6.4029,6.3311,3.6309,3.742,3.8472,3.6893,3.827,3.9328,3.6492,3.4882,3.3108,3.0004,2.7217,2.5851,2.7486,2.6314,2.7886,3.6492,3.7347,3.9384,4.6382,4.8646,5.0196,5.1976,5.3899,5.5297,5.5945,5.684,5.7369,5.7369,5.7712,5.7952,5.7952,5.8322,5.8389,5.8114,5.8521,5.8719,5.8719,5.8719,5.8719,5.8719,5.8719,5.8719,5.8719,5.8719,5.8719,5.8719,5.8719,5.8648,5.8555,5.8555,5.8484,5.8359,5.8381,5.8276,5.8191,5.8159,5.8106,5.8106,5.8106,5.8106,5.8106,5.8106,5.8106,5.8106,5.8106,5.8106,5.8106,5.8106,5.8106,5.8106,5.8106,5.8106,5.8106,5.8106,5.8106,5.8106,5.8106,5.8106,5.8106,5.8106,5.8066,5.8071,5.8071,5.793,5.7856,5.7856,5.7788,5.7744,5.7744,5.9505,6.081,6.0791,6.3256,6.5467,6.6886,6.5944,6.5096,6.4587,6.5519,6.5573,6.438,6.4894,6.5392,6.5899,6.5415,6.464,6.3553,6.4207,6.427,6.3768,6.162,6.0946,3.828,3.7901,3.7464,3.8893,3.9265,3.8936,3.7629,3.6223,3.4087,3.0163,2.6883,2.5345,2.7446,2.7728,2.9256,3.4247,3.9176,4.3524,4.6755,4.8806,5.0782,5.2989,5.1899,5.1775,5.3828,5.5796,5.6952,5.6952,5.7322,5.7543,5.7543,5.7919,5.8098,5.8106,5.8477,5.8719,5.8719,5.8719,5.8719,5.8719,5.8719,5.8719,5.8719,5.8719,5.8719,5.8719,5.8719,5.8719,5.8719,5.8719,5.8634,5.8513,5.8529,5.8448,5.8276,5.8146,5.8106,5.8106,5.8106,5.8106,5.8106,5.8106,5.8106,5.8106,5.8106,5.8106,5.8106,5.8106,5.8106,5.8106,5.8106,5.8106,5.8106,5.8106,5.8106,5.8106,5.8106,5.8106,5.8106,5.8106,5.8014,5.7933,5.7933,5.7823,5.7744,5.7744,5.7735,5.7735,5.7735,6.0472,6.237,6.2406,6.38,6.5216,6.6365,6.6462,6.5788,6.4235,6.3765,6.3535,6.3511,6.1663,6.1354,6.2939,6.1443,6.0652,6.0616,6.0616,6.0639,6.0568,6.0639,5.9775,3.7667,3.7357,3.7355,3.8349,3.894,3.906,3.8178,3.6546,3.4301,3.1209,2.8378,2.703,2.8946,2.943,3.1442,3.7313,4.0671,4.3595,4.669,4.8757,5.0635,5.2384,5.2565,5.3224,5.4964,5.598,5.6567,5.6567,5.6927,5.714,5.714,5.7246,5.7434,5.7703,5.809,5.8419,5.8719,5.8719,5.8719,5.8719,5.8719,5.8719,5.8719,5.8719,5.8719,5.8719,5.8719,5.8719,5.8719,5.8719,5.8613,5.8492,5.8515,5.8374,5.8191,5.8159,5.8106,5.8106,5.8106,5.8106,5.8106,5.8106,5.8106,5.8106,5.8106,5.8106,5.8106,5.8106,5.8106,5.8106,5.8106,5.8106,5.8106,5.8106,5.8106,5.8106,5.8106,5.8055,5.7972,5.7972,5.7873,5.7788,5.7788,5.7589,5.7469,5.7469,5.7382,5.7729,5.8807,5.9759,6.1208,6.3397,6.4532,6.526,6.5605,6.5663,6.4999,6.3442,6.3221,6.2672,6.1584,6.0961,6.0862,6.1336,6.0888,6.0107,5.9029,5.9839,5.9106,5.7003,5.8833,5.83,3.7282,3.713,3.7311,3.8116,3.8592,3.8769,3.8377,3.6876,3.4724,3.1719,2.9777,2.8999,3.0288,3.1191,3.3791,4.0097,4.2876,4.5263,4.8315,5.0249,5.1774,5.2921,5.3501,5.426,5.5489,5.6048,5.637,5.637,5.6585,5.6709,5.6709,5.6886,5.7071,5.7313,5.7823,5.8253,5.8455,5.862,5.8719,5.8719,5.8719,5.8719,5.8719,5.8719,5.8719,5.8719,5.8719,5.8719,5.8719,5.8719,5.8671,5.8587,5.8514,5.8419,5.8261,5.8222,5.8146,5.8106,5.8106,5.8106,5.8106,5.8106,5.789,5.7686,5.7868,5.7874,5.7935,5.8074,5.8106,5.8106,5.8106,5.8106,5.8106,5.8106,5.801,5.7927,5.8038,5.7863,5.7742,5.7813,5.768,5.7515,5.7347,5.7163,5.6983,5.6824,5.6735,5.7044,5.7977,5.9175,6.0669,6.2546,6.4279,6.5323,6.5323,6.5323,6.4898,6.3954,6.3169,6.2325,6.141,6.0004,5.9243,5.9243,5.8645,5.7858,5.6918,5.7621,5.7021,5.5188,5.6782,5.6888,3.7075,3.713,3.7293,3.7981,3.8256,3.8299,3.8294,3.7294,3.5414,3.2066,3.1245,3.121,3.1446,3.3081,3.6304,4.223,4.5276,4.7962,5.0891,5.2534,5.3605,5.4089,5.4371,5.4784,5.5449,5.5978,5.6301,5.637,5.637,5.637,5.637,5.6688,5.6911,5.6952,5.7642,5.8034,5.8066,5.8441,5.8641,5.8641,5.8668,5.8719,5.8719,5.8719,5.8719,5.8719,5.8719,5.8719,5.8719,5.8719,5.8712,5.8661,5.8548,5.8514,5.8485,5.8359,5.8214,5.8066,5.8066,5.8042,5.8018,5.8018,5.7543,5.7022,5.7388,5.7498,5.7561,5.789,5.8018,5.8018,5.8018,5.8018,5.8018,5.801,5.772,5.7516,5.7759,5.748,5.7309,5.7525,5.7366,5.716,5.6952,5.6704,5.6509,5.6426,5.6273,5.6309,5.6592,5.9121,6.0806,6.0742,6.3289,6.5001,6.5001,6.5001,6.4859,6.4576,6.2891,6.1838,6.1698,5.861,5.695,5.695,5.5536,5.4808,5.4808,5.4808,5.4808,5.4808,5.4808,5.557,3.7111,3.713,3.7166,3.7329,3.785,3.8291,3.8292,3.8066,3.6999,3.4147,3.3893,3.3721,3.1964,3.5495,3.9407,4.1472,4.5991,4.9721,5.1124,5.2377,5.3257,5.3591,5.3827,5.4214,5.4771,5.5389,5.5919,5.6348,5.637,5.637,5.637,5.6446,5.6639,5.6941,5.712,5.7323,5.7659,5.8058,5.8224,5.8261,5.8564,5.8719,5.8719,5.8719,5.8719,5.8719,5.8719,5.8719,5.8719,5.8719,5.8641,5.8541,5.8527,5.8441,5.8359,5.8336,5.8034,5.7668,5.7668,5.7471,5.7217,5.7217,5.7101,5.6972,5.7061,5.7081,5.7101,5.7188,5.7217,5.7217,5.7217,5.7217,5.7188,5.7055,5.6915,5.6768,5.6855,5.6623,5.6442,5.6485,5.6394,5.6657,5.7811,5.6934,5.6876,5.9142,5.854,5.8694,6.1186,6.2072,6.2195,6.1477,6.2012,6.241,6.241,6.241,6.1399,5.9063,5.8513,5.7692,5.6496,5.5707,5.5328,5.5328,5.4981,5.4808,5.4808,5.4808,5.4808,5.4808,5.4808,5.4981,3.6568,3.6624,3.6753,3.7202,3.7618,3.801,3.8315,3.78,3.6847,3.542,3.5431,3.5406,3.4546,3.8043,4.1751,4.3862,4.7546,5.0636,5.2123,5.2974,5.3433,5.3462,5.3803,5.4109,5.4242,5.5074,5.5728,5.6001,5.6221,5.6244,5.6025,5.6221,5.6468,5.6682,5.6876,5.7061,5.7265,5.765,5.7868,5.7832,5.803,5.8154,5.8154,5.8154,5.8154,5.8154,5.8154,5.8154,5.8154,5.8154,5.8085,5.8038,5.7961,5.787,5.7735,5.7684,5.7489,5.7275,5.7275,5.713,5.6881,5.6438,5.6283,5.6364,5.6603,5.6678,5.673,5.6891,5.6952,5.6952,5.6952,5.6952,5.6921,5.6788,5.669,5.6585,5.6267,5.6614,5.7065,5.7183,5.7727,5.8349,5.8959,5.8383,5.8319,5.9699,5.9286,5.937,6.0997,6.1887,6.1844,6.0636,6.0488,6.0488,6.0488,6.0488,5.9829,5.8254,5.7526,5.6763,5.5952,5.5224,5.4808,5.4808,5.4808,5.4808,5.4808,5.4808,5.4808,5.4808,5.4808,5.4808,3.5734,3.5791,3.612,3.7057,3.7257,3.7456,3.8163,3.7384,3.6495,3.6401,3.6806,3.7315,3.7641,4.051,4.3925,4.7272,4.9499,5.1544,5.3713,5.4173,5.4089,5.3585,5.3832,5.3997,5.3912,5.4749,5.5302,5.5401,5.5848,5.5931,5.5596,5.5989,5.6255,5.637,5.6703,5.6865,5.6865,5.7246,5.7452,5.7452,5.7516,5.7543,5.7543,5.7543,5.7543,5.7543,5.7543,5.7543,5.7543,5.7543,5.7543,5.7498,5.7389,5.7278,5.7128,5.7002,5.6899,5.684,5.684,5.6788,5.6589,5.5836,5.5593,5.5667,5.6094,5.6231,5.631,5.6621,5.6715,5.6715,5.6694,5.6694,5.6652,5.6503,5.6434,5.6292,5.5742,5.6568,5.7544,5.8007,5.9267,6.0137,5.9828,5.9773,5.9754,5.9699,5.971,5.971,5.971,6.0384,6.0453,5.9398,5.9086,5.8884,5.8841,5.8841,5.8673,5.8353,5.7212,5.6589,5.6589,5.533,5.466,5.466,5.466,5.466,5.466,5.466,5.466,5.466,5.466,5.466,3.4927,3.4791,3.5044,3.6083,3.6252,3.6438,3.742,3.7812,3.784,3.7269,3.9482,4.1091,3.9464,4.2551,4.6438,4.9586,5.1468,5.342,5.5969,5.6167,5.5486,5.3965,5.3462,5.3477,5.4103,5.4123,5.429,5.4719,5.481,5.5077,5.556,5.5645,5.5895,5.6359,5.6437,5.6446,5.6446,5.6845,5.7032,5.7042,5.7388,5.7543,5.7543,5.7543,5.7543,5.7543,5.7543,5.7543,5.7543,5.7543,5.7543,5.7498,5.7389,5.7278,5.7128,5.7002,5.6752,5.6454,5.6454,5.6163,5.574,5.563,5.5593,5.5605,5.5679,5.5703,5.5715,5.5776,5.5764,5.574,5.5621,5.5631,5.5535,5.5309,5.5246,5.5182,5.4984,5.5093,5.5622,5.7032,5.8457,5.9417,5.936,5.9346,5.9817,6.1127,6.13,6.13,6.13,5.9239,5.815,5.9155,5.8184,5.7289,5.6935,5.6921,5.6269,5.4673,5.4385,5.4283,5.4283,5.4077,5.3975,5.3975,5.3975,5.3975,5.3975,5.3975,5.3975,5.3975,5.3975,5.3975,3.3797,3.3877,3.4392,3.581,3.612,3.6345,3.7293,3.7582,3.7677,3.7837,4.0637,4.2879,4.2398,4.478,4.7411,4.905,4.93,5.0159,5.2687,5.3097,5.3168,5.3396,5.3347,5.3403,5.376,5.3832,5.3997,5.4358,5.4283,5.4297,5.4602,5.5249,5.5681,5.5919,5.621,5.637,5.637,5.6556,5.6628,5.6639,5.6793,5.6876,5.6876,5.6876,5.6876,5.6876,5.6876,5.6876,5.6876,5.6876,5.6876,5.6865,5.6663,5.6557,5.6481,5.6295,5.6069,5.5954,5.5954,5.58,5.5593,5.5593,5.5593,5.5593,5.5593,5.5593,5.5593,5.5593,5.5544,5.5482,5.5409,5.5322,5.5243,5.505,5.501,5.4971,5.4834,5.4808,5.5293,5.6832,5.8323,5.9294,5.9294,5.9294,5.9502,6.0196,6.0314,6.0037,5.9204,5.7765,5.6767,5.6588,5.5813,5.523,5.5053,5.5039,5.4707,5.3895,5.3861,5.3861,5.3861,5.3861,5.3861,5.3861,5.3861,5.3861,5.3861,5.3861,5.3683,5.3401,5.3401,5.3253,3.2845,3.297,3.3531,3.5133,3.5639,3.598,3.6965,3.7148,3.7348,3.8151,4.0652,4.2885,4.3581,4.5163,4.6832,4.8223,4.754,4.7619,4.9902,5.0728,5.1422,5.2318,5.2821,5.3189,5.3433,5.3561,5.3746,5.4025,5.3789,5.3722,5.3847,5.4682,5.5201,5.5339,5.5729,5.6001,5.6175,5.6175,5.6233,5.637,5.637,5.637,5.637,5.637,5.637,5.637,5.637,5.637,5.637,5.637,5.6359,5.6278,5.606,5.5954,5.5907,5.5667,5.5593,5.5593,5.5593,5.5593,5.5593,5.5593,5.5593,5.5593,5.5593,5.5593,5.5581,5.5556,5.5494,5.5372,5.5332,5.523,5.5114,5.4984,5.4945,5.4919,5.4821,5.4808,5.5293,5.6832,5.8011,5.8843,5.9225,5.9294,5.9155,5.8809,5.9051,5.8621,5.6714,5.6123,5.5456,5.4385,5.4037,5.3832,5.3746,5.3731,5.3702,5.3664,5.3498,5.3405,5.3405,5.3272,5.3212,5.3212,5.3212,5.3212,5.3212,5.3212,5.2998,5.2612,5.2612,5.2393,3.2236,3.1948,3.2237,3.3451,3.4215,3.4947,3.5961,3.6698,3.7348,3.8151,3.9435,4.0649,4.1428,4.2354,4.4254,4.7963,4.8122,4.8416,5.0271,5.1688,5.2105,5.0821,5.155,5.2509,5.3388,5.3227,5.323,5.3477,5.3242,5.3332,5.3832,5.3918,5.4145,5.4666,5.4706,5.5013,5.5621,5.5621,5.5884,5.637,5.637,5.637,5.637,5.637,5.637,5.637,5.637,5.637,5.637,5.637,5.6289,5.6187,5.6037,5.5907,5.5776,5.5654,5.5593,5.5593,5.5593,5.5593,5.5593,5.5593,5.5593,5.5593,5.5593,5.5593,5.5569,5.5422,5.5397,5.5334,5.5101,5.5037,5.4984,5.4848,5.4821,5.4808,5.4808,5.4808,5.5293,5.6832,5.7227,5.7699,5.9051,5.9294,5.8809,5.747,5.8427,5.8134,5.4979,5.4211,5.3943,5.3875,5.3861,5.3731,5.3507,5.3477,5.3392,5.3108,5.2526,5.2174,5.2174,5.1703,5.1453,5.1453,5.1453,5.1453,5.1453,5.1453,5.1453,5.142,5.142,5.1403,3.2136,3.2014,3.1951,3.3183,3.4043,3.485,3.5791,3.6605,3.7202,3.7464,3.9709,4.1703,4.1982,4.305,4.436,4.5725,4.4685,4.437,4.6285,4.6974,4.7926,4.9602,5.0428,5.1387,5.2815,5.2652,5.2654,5.3151,5.3108,5.3139,5.3347,5.3678,5.3912,5.4103,5.4439,5.4745,5.4975,5.4988,5.5077,5.5242,5.5681,5.606,5.637,5.637,5.637,5.637,5.637,5.637,5.637,5.637,5.6278,5.6175,5.6037,5.5907,5.5764,5.5642,5.5593,5.5593,5.5593,5.5593,5.5593,5.5593,5.5593,5.5593,5.5593,5.5544,5.5469,5.5432,5.5294,5.514,5.5037,5.4967,5.4874,5.4821,5.4808,5.4808,5.4808,5.4808,5.4981,5.5536,5.564,5.5813,5.6333,5.6402,5.6229,5.5744,5.5163,5.4356,5.3208,5.2802,5.2601,5.2601,5.2348,5.219,5.2111,5.2094,5.2046,5.1949,5.1719,5.1603,5.1603,5.142,5.1319,5.1319,5.1319,5.1319,5.1319,5.1319,5.1133,5.0821,5.0821,5.063,3.1013,3.1216,3.1307,3.2163,3.3506,3.4752,3.5352,3.6364,3.713,3.713,3.8978,4.0615,4.0615,4.1597,4.2497,4.2692,4.1819,4.1597,4.3129,4.3747,4.5132,4.8071,4.9072,5.0321,5.2297,5.1697,5.1535,5.24,5.2656,5.2734,5.2734,5.3298,5.3576,5.3576,5.3912,5.4186,5.4344,5.4379,5.4439,5.4605,5.5065,5.5438,5.5789,5.5789,5.5789,5.5789,5.6001,5.6118,5.6129,5.6244,5.6221,5.6106,5.5966,5.5848,5.5727,5.563,5.5334,5.5028,5.5028,5.5028,5.5028,5.5028,5.4954,5.4919,5.5122,5.4967,5.4709,5.4889,5.4664,5.4366,5.4297,5.4234,5.415,5.415,5.415,5.415,5.415,5.4352,5.4489,5.4489,5.4489,5.4489,5.4489,5.4324,5.4136,5.4045,5.307,5.2314,5.2189,5.1899,5.1703,5.1703,5.147,5.1319,5.1319,5.1319,5.1319,5.1319,5.115,5.108,5.108,5.089,5.0804,5.0804,5.0804,5.0804,5.0804,5.0804,5.0612,5.0273,5.0273,5.0107,2.8838,2.9464,3.0288,3.0339,3.2455,3.4537,3.4556,3.5848,3.7075,3.7111,3.713,3.713,3.713,3.7779,3.8506,3.9177,3.9937,4.066,4.1299,4.2617,4.4196,4.6157,4.7487,4.9251,5.1751,5.0393,4.9905,5.1221,5.1801,5.2094,5.2078,5.2703,5.3031,5.308,5.308,5.3302,5.3818,5.3832,5.4096,5.4586,5.46,5.4613,5.4613,5.4626,5.4639,5.4666,5.5289,5.556,5.5584,5.5966,5.606,5.5907,5.5776,5.5644,5.5544,5.5544,5.481,5.3861,5.3861,5.3861,5.3861,5.3861,5.3678,5.3561,5.418,5.3844,5.3371,5.3855,5.3533,5.3028,5.2913,5.2866,5.2866,5.2866,5.2866,5.2866,5.2866,5.338,5.3784,5.3784,5.3784,5.3784,5.3784,5.3257,5.2771,5.2516,5.2438,5.2267,5.1883,5.1504,5.1268,5.1268,5.1268,5.1268,5.1268,5.1268,5.1251,5.1235,5.0737,5.0471,5.0471,4.9999,4.9738,4.9738,4.9738,4.9757,4.9757,4.9757,4.9757,4.9757,4.9757,4.9757,3.0103,3.0145,3.0041,3.0703,3.1971,3.3198,3.3778,3.4828,3.5953,3.6809,3.7066,3.713,3.713,3.7779,3.8506,3.9177,3.9937,4.066,4.1299,4.1752,4.257,4.418,4.5006,4.6509,4.917,4.8974,4.9411,5.1188,5.1453,5.1719,5.2094,5.2255,5.2575,5.3031,5.308,5.3139,5.3272,5.3287,5.3362,5.3473,5.3889,5.4067,5.4082,5.4439,5.4639,5.4639,5.481,5.4845,5.474,5.4893,5.4767,5.4568,5.4541,5.4454,5.4338,5.4338,5.413,5.3861,5.3861,5.3861,5.3798,5.3629,5.3523,5.3494,5.3557,5.3352,5.313,5.3298,5.3152,5.2894,5.2882,5.2866,5.2866,5.2866,5.2866,5.2866,5.2866,5.3019,5.3156,5.3156,5.3156,5.3156,5.3156,5.283,5.2565,5.2501,5.1439,5.0583,5.0397,5.0237,5.0183,5.0183,5.0183,5.0075,4.9803,4.9754,4.9644,4.9386,4.9219,4.9156,4.9156,4.8987,4.8942,4.8942,4.9206,4.9337,4.9337,4.9646,4.9628,4.9337,4.9646,4.9449,2.6028,2.592,2.6071,2.7815,2.8718,3.002,3.308,3.3844,3.4437,3.6365,3.6846,3.691,3.703,3.7412,3.7974,3.8735,3.9257,3.9773,4.0407,4.0503,4.1155,4.2827,4.2837,4.3547,4.5693,4.6734,4.7958,4.9655,5.0536,5.1116,5.1437,5.167,5.1932,5.2321,5.2544,5.2654,5.2654,5.2939,5.308,5.308,5.3358,5.3503,5.3517,5.3812,5.3969,5.3983,5.42,5.4214,5.4123,5.4269,5.4228,5.4047,5.3977,5.3912,5.3803,5.3227,5.3031,5.3031,5.3031,5.2986,5.2943,5.2769,5.2627,5.2516,5.2738,5.2474,5.2158,5.2158,5.2111,5.2063,5.2063,5.2063,5.2063,5.2063,5.2063,5.2063,5.2063,5.2255,5.2461,5.2461,5.2381,5.23,5.23,5.1915,5.1538,5.1439,5.0548,4.984,4.9793,4.9757,4.9757,4.9757,4.9597,4.9356,4.8949,4.8911,4.8816,4.8606,4.8587,4.8587,4.8587,4.8587,4.8587,4.8587,4.8797,4.8911,4.8911,4.9168,4.9168,4.8961,4.9168,4.8816,1.935,1.9392,2.0537,2.3153,2.4004,2.5644,0.0,3.1809,3.1906,3.4766,3.5682,3.6023,3.6401,3.6661,3.7149,3.8116,3.8274,3.8489,3.9164,3.9265,3.9919,4.1736,4.0884,4.0766,4.2236,4.4169,4.5951,4.7513,4.9216,5.0312,5.0524,5.0979,5.1268,5.1319,5.1785,5.203,5.203,5.2575,5.2908,5.2954,5.2954,5.2985,5.308,5.308,5.308,5.3077,5.3547,5.3673,5.3586,5.3864,5.3935,5.3773,5.3683,5.3421,5.3019,5.1853,5.1406,5.1439,5.1522,5.1506,5.1424,5.1603,5.1418,5.125,5.1801,5.1485,5.095,5.095,5.095,5.095,5.095,5.095,5.095,5.095,5.095,5.0933,5.0898,5.1333,5.1736,5.1719,5.1521,5.1389,5.1389,5.0757,5.0219,4.9958,4.9853,4.9757,4.9757,4.972,4.9702,4.9702,4.9356,4.8949,4.8625,4.8549,4.8491,4.8433,4.8433,4.8433,4.8433,4.8433,4.8433,4.8433,4.8491,4.851,4.851,4.8568,4.8549,4.851,4.8568,4.8122,0.0,0.0,0.0,0.0,0.0,0.0,0.0,2.4374,2.5487,2.7655,3.0167,3.2349,3.3429,3.5007,3.655,3.7786,3.7998,3.8268,3.9147,3.9265,3.9233,3.9106,3.886,3.9679,4.2135,4.277,4.4283,4.7384,4.7965,4.8874,5.0475,5.063,5.089,5.1302,5.142,5.1487,5.1487,5.1587,5.1851,5.2271,5.2271,5.256,5.308,5.308,5.308,5.3047,5.3184,5.3071,5.2851,5.2699,5.2542,5.2317,5.227,5.086,4.8804,4.8568,4.8462,4.856,4.9303,4.9519,4.9736,5.098,5.1316,5.1248,5.1179,5.1039,5.095,5.095,5.095,5.095,5.095,5.095,5.095,5.095,5.095,5.0866,5.0655,5.0726,5.0781,5.0662,5.0594,5.0559,5.0559,5.0276,4.999,4.9835,4.9793,4.9757,4.9757,4.9498,4.93,4.93,4.8961,4.8664,4.8587,4.822,4.7817,4.752,4.751,4.751,4.751,4.751,4.751,4.751,4.7817,4.7975,4.7975,4.8394,4.8375,4.7975,4.8394,4.8122,0.0,0.0,0.0,0.0,0.0,0.0,0.0,0.0,0.0,0.0,0.0,2.8201,2.9824,0.0,3.4175,3.578,3.6714,3.7446,3.8016,3.8104,3.7992,3.7664,3.7903,3.8688,4.0192,4.1281,4.2755,4.4846,4.5662,4.6958,4.9005,4.9086,4.9526,5.0524,5.0804,5.0942,5.0942,5.1184,5.1337,5.1405,5.1801,5.2352,5.308,5.308,5.308,5.3065,5.2923,5.2779,5.2601,5.1558,5.0595,4.9778,4.9778,4.8626,4.7014,4.7442,4.7621,4.7672,4.815,4.849,4.8959,5.0597,5.048,4.9817,5.068,5.095,5.095,5.095,5.095,5.095,5.095,5.095,5.095,5.095,5.0778,5.0673,5.0708,5.062,5.0514,5.0479,5.029,5.0151,5.0151,5.0003,4.9767,4.9504,4.9467,4.9393,4.9206,4.9018,4.8425,4.7281,4.6788,4.6555,4.6555,4.6094,4.6213,4.7189,4.7219,4.7219,4.7219,4.7219,4.7219,4.7219,4.742,4.752,4.752,4.7778,4.7758,4.754,4.7132,4.6399,0.0,0.0,0.0,0.0,0.0,0.0,0.0,0.0,0.0,0.0,0.0,0.0,0.0,0.0,0.0,3.3324,3.526,3.6578,3.6819,3.6846,3.6846,3.6855,3.7311,3.7803,3.8175,3.9731,4.1143,4.2123,4.3369,4.4966,4.6926,4.7178,4.7859,4.9209,4.9657,5.0032,5.0397,5.0821,5.0979,5.0845,5.1488,0.0,5.2719,5.2954,5.308,5.3031,5.238,5.2087,5.189,5.022,4.8667,4.7325,4.6948,4.6341,4.5797,4.6506,4.6784,4.6802,4.6666,4.6871,4.765,5.0117,4.9873,4.8859,5.0435,5.095,0.0,5.095,5.0813,5.0691,5.0691,5.0691,5.0691,5.0691,5.0479,5.0322,5.0638,5.0532,5.039,5.039,5.0129,4.9935,4.9935,4.9571,4.9194,4.8735,4.8911,4.8873,4.8275,4.8345,4.7704,4.582,4.5281,4.5045,4.5045,4.4068,4.4529,4.7089,4.6621,4.6154,4.5925,4.6024,4.6024,4.5915,4.6024,4.6472,4.7219,4.7219,4.7219,4.716,4.4137,4.261,0.0,0.0,0.0,0.0,0.0,0.0,0.0,0.0,0.0,0.0,0.0,0.0,0.0,0.0,0.0,0.0,3.4293,3.6419,3.6578,3.6475,3.6465,3.6596,3.6661,3.7028,3.7875,3.8167,3.9168,4.1341,4.2191,4.3257,4.4782,4.5508,0.0,0.0,0.0,4.8214,4.9835,4.9921,5.0397,5.1268,5.1336,5.1437,5.1537,5.2593,5.308,5.2931,5.0942,4.9965,4.9672,4.8505,4.741,4.6257,4.4518,4.3781,4.3683,4.3781,4.3847,4.3745,4.3172,0.0,0.0,4.9229,5.0789,5.0628,5.0886,5.095,5.095,5.095,5.0425,4.9903,4.9903,4.9903,4.9903,4.9903,4.9866,4.9848,4.9885,4.9866,4.9848,4.9848,4.983,4.9793,4.9793,4.8609,4.7528,4.703,4.7903,4.8236,4.701,4.7469,4.7796,4.7546,4.716,0.0,4.692,4.413,4.3767,4.703,4.4405,4.2273,4.1249,4.1632,4.1668,4.1208,4.165,4.3664,4.7219,4.7219,4.7219,4.704,3.7815,3.5059,0.0,0.0,0.0,0.0,0.0,0.0,0.0,0.0,0.0,0.0,0.0,0.0,0.0,0.0,0.0,0.0,3.1269,3.3082,3.3146,3.4686,3.5957,3.6382,3.6419,3.6596,3.7083,3.711,3.7753,3.9273,3.9606,4.0623,4.2588,4.3369,4.4015,4.4529,4.6168,4.7905,4.9744,4.9757,4.998,5.0433,5.0433,5.0433,5.0433,5.0923,5.1834,5.2982,5.1617,4.9995,4.8187,4.6066,4.4969,4.4486,0.0,0.0,0.0,0.0,4.3115,4.276,4.2472,4.2385,4.2772,4.5172,4.5945,4.5945,4.5945,4.5708,4.6072,4.9343,5.0012,4.9757,4.9757,4.9757,4.9757,4.9757,4.9757,4.9757,4.9757,4.9757,4.9683,4.9374,4.8811,0.0,4.7914,4.729,4.6715,4.6255,4.6408,4.6285,4.5504,4.5448,4.4898,4.3584,4.3273,4.3187,4.3187,4.1881,0.0,0.0,0.0,4.3076,4.3122,4.3342,0.0,0.0,0.0,3.9323,4.102,3.8588,0.0,0.0,3.3257,3.1561,0.0,0.0,0.0,0.0,0.0,0.0,0.0,0.0,0.0,0.0,0.0,0.0,0.0,0.0,0.0,0.0,2.7906,3.0035,2.9631,3.2092,3.3997,3.4188,3.5305,3.5853,3.526,3.5977,3.6772,3.7471,3.7721,3.8587,4.0291,4.1015,4.1425,4.1635,4.3653,4.5617,4.7461,4.7478,4.7478,4.7478,4.7478,4.7478,4.7478,4.7478,4.8321,4.9845,4.9642,4.8381,4.629,4.4209,4.334,4.3327,4.3142,4.3087,4.3087,4.3087,4.2789,4.2371,4.215,4.2092,4.2003,4.1464,4.1097,4.0942,4.0942,4.1159,4.2099,4.5365,4.7275,4.8314,4.8314,4.8314,4.8314,4.8314,4.8314,4.8595,4.9541,4.9609,4.9225,4.843,4.6808,4.5476,4.5183,4.5117,4.5073,4.4842,4.477,4.4481,4.3899,4.376,4.3066,4.1391,4.1172,4.1172,4.1172,4.0315,4.078,4.3105,4.2382,4.2464,4.3761,4.2807,4.212,4.1822,3.7941,3.5831,0.0,0.0,0.0,0.0,0.0,0.0,0.0,0.0,0.0,0.0,0.0,0.0,0.0,0.0,0.0,0.0,0.0,0.0,0.0,0.0,0.0,0.0,0.0,0.0,2.696,2.8798,2.9932,2.894,3.272,3.4462,3.2082,3.4584,3.6419,3.6568,3.7291,3.775,3.7832,3.8459,3.8808,3.8821,3.8884,3.9814,4.1658,4.1642,4.1642,4.1642,4.1642,4.1642,4.1642,4.1642,4.1673,4.1825,4.3081,4.3551,4.3472,4.3387,4.334,4.3285,4.2643,4.2414,4.2414,4.2414,4.24,4.2266,4.1663,4.1452,4.1083,3.9059,3.7892,3.7283,3.7283,3.9214,4.0864,3.826,4.0994,4.4666,4.4666,4.4666,4.4666,4.4666,4.4666,4.5598,4.9025,4.9168,4.8209,4.6806,4.3445,4.1033,4.1639,4.1747,4.1834,4.206,4.3068,0.0,4.2224,4.3045,4.371,4.3637,4.3637,4.3637,4.3637,4.0516,3.9547,4.188,3.8957,3.8161,4.047,3.7079,3.4945,3.4552,3.4351,3.4089,3.3711,0.0,0.0,0.0,0.0,0.0,0.0,0.0,0.0,0.0,0.0,0.0,0.0,0.0,0.0,0.0,0.0,0.0,0.0,0.0,0.0,0.0,0.0,0.0,0.0,2.6812,2.9169,2.8271,3.0363,3.0802,2.7961,3.0673,3.2475,3.2056,3.5021,3.6873,3.7037,3.7693,3.7693,3.6891,3.7614,3.9143,4.1375,4.1391,4.1391,4.1391,4.1391,4.1391,4.136,4.0517,4.0114,4.013,4.0581,4.0771,4.0723,4.0216,4.0007,3.999,3.9762,3.968,3.9893,4.1705,4.122,3.9564,3.8825,3.8551,3.8447,3.775,3.7348,3.713,3.713,3.7821,3.839,3.7391,3.8324,3.9621,3.9621,3.9621,3.9465,3.896,4.1153,4.3532,4.4203,4.4356,4.3981,4.2826,4.0546,3.832,3.6728,3.8112,3.8686,3.6542,3.8149,3.9478,3.9059,3.9077,3.9092,3.9092,3.9006,3.8966,3.8966,3.7884,3.7534,3.8342,3.7394,3.7457,3.8946,3.7794,3.695,3.6536,3.6508,3.357,2.7561,0.0,0.0,0.0,0.0,0.0,0.0,0.0,0.0,0.0,0.0,0.0,0.0,0.0,0.0,0.0,0.0,0.0,0.0,0.0,0.0,0.0,0.0,0.0,0.0,0.0,0.0,2.7837,2.8719,0.0,2.5396,2.6796,2.8122,2.8743,3.0843,3.3316,3.6057,3.5266,3.4975,3.5521,3.655,3.7857,3.9435,4.031,4.0707,4.0707,4.0707,4.0707,4.0691,3.9836,3.9451,3.9435,3.9182,3.9063,3.8999,3.85,3.8309,3.8309,3.8309,3.8309,3.8471,3.9976,3.9385,3.7814,3.7293,3.713,3.713,3.713,3.6928,3.6735,3.6735,3.6735,3.6735,3.6735,3.6735,3.6735,3.6735,3.6735,3.6587,3.6089,3.8173,4.0669,4.1884,4.1673,4.0694,3.8645,3.7557,3.5948,3.2819,3.4113,3.4844,3.2784,3.4055,3.5674,3.6876,3.674,3.6536,3.6536,3.6449,3.641,3.641,3.641,3.6279,3.5943,3.6,3.6189,3.6555,3.6844,3.6162,3.4426,3.4655,3.107,0.0,0.0,0.0,0.0,0.0,0.0,0.0,0.0,0.0,0.0,0.0,0.0,0.0,0.0,0.0,0.0,0.0,0.0,0.0,0.0,0.0,0.0,0.0,0.0,0.0,0.0,0.0,2.6998,2.7288,0.0,0.0,0.0,0.0,2.6049,2.4972,2.7235,3.4202,3.1449,3.119,3.4615,3.546,3.5843,3.5843,3.8051,3.9152,3.9152,3.9152,3.9237,3.9401,3.9401,3.9401,3.9368,3.8622,3.8309,3.8309,3.8309,3.8309,3.8233,3.764,3.7211,3.686,3.6114,3.6391,3.713,3.713,3.713,3.713,3.713,3.6605,3.5957,3.5957,3.5447,0.0,0.0,3.5556,3.5957,3.5957,3.5957,3.5957,3.5957,3.5957,3.7231,4.1807,4.1041,3.8405,3.481,3.4629,3.3857,2.9915,0.0,3.0249,3.0583,3.0935,3.2321,3.541,3.5907,3.5982,3.5982,3.5982,3.5959,3.5959,3.5959,3.5577,3.472,3.4713,3.4319,3.3442,3.3947,3.2394,2.8442,2.8884,0.0,0.0,0.0,0.0,0.0,0.0,0.0,0.0,0.0,0.0,0.0,0.0,0.0,0.0,0.0,0.0,0.0,0.0,0.0,0.0,0.0,0.0,0.0,0.0,0.0,0.0,1.9007,2.0504,2.1514,2.103,1.9482,0.0,0.0,0.0,0.0,0.0,0.0,2.573,3.067,3.3505,3.3749,3.3975,3.4075,3.4075,3.4693,3.4952,3.4952,3.4952,3.6244,3.8587,3.8587,3.8587,3.8587,3.8379,3.8309,3.8309,3.8309,3.8309,3.7403,2.8576,2.2415,1.8449,1.8241,2.622,3.713,3.713,3.713,3.713,3.713,3.6605,3.5957,3.5957,0.0,0.0,0.0,0.0,3.5957,3.5957,3.5957,3.5957,3.5957,3.5957,3.6284,3.7532,3.7341,3.6616,3.5637,3.4609,3.1946,2.5836,2.483,0.0,2.4102,2.8893,3.2202,3.122,3.2604,3.3693,3.3693,3.3523,3.3396,3.3396,3.3396,3.3294,3.3064,3.3248,3.3247,3.3009,3.0773,2.9077,2.8121,0.0,0.0,0.0,0.0,0.0,0.0,0.0,0.0,0.0,0.0,0.0,0.0,0.0,0.0,0.0,0.0,0.0,0.0,0.0,0.0,0.0,0.0,0.0,0.0,0.0,0.0,0.0,1.6696,1.8649,1.9226,1.665,1.493,0.0,0.0,0.0,0.0,0.0,0.0,0.0,0.0,0.0,2.4136,2.9802,3.3025,3.3432,3.3432,3.3432,3.3432,3.3432,3.4399,3.6234,3.7632,3.8309,3.8309,3.8309,3.8309,3.8309,3.8309,3.3788,2.6213,0.0,0.0,0.0,0.0,2.0539,3.2317,3.031,3.2931,3.7075,3.6707,0.0,0.0,0.0,0.0,0.0,0.0,0.0,2.5969,2.5443,3.0058,3.4844,3.4844,3.4844,3.4844,3.4844,3.4844,3.4844,3.4844,3.4094,3.0229,2.0084,1.8301,0.0,0.0,0.0,2.942,2.8981,3.0858,3.2244,3.2244,3.2143,3.2081,3.2182,3.2227,3.229,3.2435,3.2601,3.208,3.0686,2.8807,2.6228,0.0,0.0,0.0,0.0,0.0,0.0,0.0,0.0,0.0,0.0,0.0,0.0,0.0,0.0,0.0,0.0,0.0,0.0,0.0,0.0,0.0,0.0,0.0,0.0,0.0,0.0,0.0,0.0,0.0,1.818,1.7756,0.0,0.0,0.0,0.0,0.0,0.0,0.0,0.0,0.0,0.0,0.0,0.0,0.0,2.9548,3.0559,3.0621,3.1544,3.3269,3.3269,3.3269,3.3371,3.6327,3.7839,3.8104,3.7668,0.0,3.7959,3.5769,0.0,0.0,0.0,0.0,0.0,0.0,0.0,0.0,0.0,0.0,0.0,0.0,0.0,0.0,0.0,0.0,0.0,0.0,0.0,0.0,0.0,0.0,3.3432,3.3432,3.3432,3.2889,3.0804,3.0308,3.0251,2.9918,2.9828,2.5937,0.0,0.0,0.0,0.0,0.0,0.0,2.7954,3.0128,3.149,3.149,3.149,3.1572,3.1804,3.1843,3.2014,3.2373,3.2,3.0461,2.7573,2.7194,0.0,0.0,0.0,0.0,0.0,0.0,0.0,0.0,0.0,0.0,0.0,0.0,0.0,0.0,0.0,0.0,0.0,0.0,0.0,0.0,0.0,0.0,0.0,0.0,0.0,0.0,0.0,0.0,0.0,0.0,0.0,0.0,0.0,0.0,0.0,0.0,0.0,0.0,0.0,0.0,0.0,0.0,0.0,0.0,0.0,0.0,0.0,0.0,0.0,0.0,3.2303,3.2303,3.2386,3.3683,3.5383,3.7156,3.4366,3.4738,3.6277,2.2477,0.0,0.0,0.0,0.0,0.0,0.0,0.0,0.0,0.0,0.0,0.0,0.0,0.0,0.0,0.0,0.0,0.0,0.0,0.0,0.0,0.0,0.0,3.3432,3.3432,3.3432,2.987,1.6816,0.0,0.0,0.0,0.0,0.0,0.0,0.0,0.0,0.0,0.0,0.0,2.7236,2.9802,3.149,3.149,3.149,3.1512,3.1554,3.1762,3.1885,3.1972,2.9573,2.7414,0.0,0.0,0.0,0.0,0.0,0.0,0.0,0.0,0.0,0.0,0.0,0.0,0.0,0.0,0.0,0.0,0.0,0.0,0.0,0.0,0.0,0.0,0.0,0.0,0.0,0.0,0.0,0.0,0.0,0.0,0.0,0.0,0.0,0.0,0.0,0.0,0.0,0.0,0.0,0.0,0.0,0.0,0.0,0.0,0.0,0.0,0.0,0.0,0.0,0.0,0.0,0.0,0.0,0.0,0.0,0.0,0.0,0.0,2.9195,2.8528,0.0,0.0,0.0,0.0,0.0,0.0,0.0,0.0,0.0,0.0,0.0,0.0,0.0,0.0,0.0,0.0,0.0,0.0,0.0,0.0,0.0,0.0,0.0,0.0,0.0,0.0,0.0,0.0,0.0,0.0,0.0,0.0,0.0,0.0,0.0,0.0,0.0,0.0,0.0,0.0,2.7034,2.9344,3.1062,3.1062,3.1062,3.1126,3.1275,3.14,3.0747,2.9053,2.7156,0.0,0.0,0.0,0.0,0.0,0.0,0.0,0.0,0.0,0.0,0.0,0.0,0.0,0.0,0.0,0.0,0.0,0.0,0.0,0.0,0.0,0.0,0.0,0.0,0.0,0.0,0.0,0.0,0.0,0.0,0.0,0.0,0.0,0.0,0.0,0.0,0.0,0.0,0.0,0.0,0.0,0.0,0.0,0.0,0.0,0.0,0.0,0.0,0.0,0.0,0.0,0.0,0.0,0.0,0.0,0.0,0.0,0.0,0.0,2.2215,2.0875,0.0,0.0,0.0,0.0,0.0,0.0,0.0,0.0,0.0,0.0,0.0,0.0,0.0,0.0,0.0,0.0,0.0,0.0,0.0,0.0,0.0,0.0,0.0,0.0,0.0,0.0,0.0,0.0,0.0,0.0,0.0,0.0,0.0,0.0,0.0,0.0,0.0,0.0,0.0,0.0,2.778,2.9098,3.022,3.022,3.0112,3.0111,3.0349,3.0434,2.9155,2.607,2.4519,0.0,0.0,0.0,0.0,0.0,0.0,0.0,0.0,0.0,0.0,0.0,0.0,0.0,0.0,0.0,0.0,0.0,0.0,0.0,0.0,0.0,0.0,0.0,0.0,0.0,0.0,0.0,0.0,0.0,0.0,0.0,0.0,0.0,0.0,0.0,0.0,0.0,0.0,0.0,0.0,0.0,0.0,0.0,0.0,0.0,0.0,0.0,0.0,0.0,0.0,0.0,0.0,0.0,0.0,0.0,0.0,0.0,0.0,0.0,0.0,0.0,0.0,0.0,0.0,0.0,0.0,0.0,0.0,0.0,0.0,0.0,0.0,0.0,0.0,0.0,0.0,0.0,0.0,0.0,0.0,0.0,0.0,0.0,0.0,0.0,0.0,0.0,0.0,0.0,0.0,0.0,0.0,0.0,0.0,0.0,0.0,0.0,0.0,0.0,0.0,0.0,3.0369,2.932,2.8592,2.8592,2.8166,2.7895,2.794,2.8236,2.7372,2.4841,0.0,0.0,0.0,0.0,0.0,0.0,0.0,0.0,0.0,0.0,0.0,0.0,0.0,0.0,0.0,0.0,0.0,0.0,0.0,0.0,0.0,0.0,0.0,0.0,0.0,0.0,0.0,0.0,0.0,0.0,0.0,0.0,0.0,0.0,0.0,0.0,0.0,0.0,0.0,0.0,0.0,0.0,0.0,0.0,0.0,0.0,0.0,0.0,0.0,0.0,0.0,0.0,0.0,0.0,0.0,0.0,0.0,0.0,0.0,0.0,0.0,0.0,0.0,0.0,0.0,0.0,0.0,0.0,0.0,0.0,0.0,0.0,0.0,0.0,0.0,0.0,0.0,0.0,0.0,0.0,0.0,0.0,0.0,0.0,0.0,0.0,0.0,0.0,0.0,0.0,0.0,0.0,0.0,0.0,0.0,0.0,0.0,0.0,0.0,0.0,0.0,0.0,2.9617,3.0177,2.9433,2.848,2.8189,2.7874,2.7398,2.767,2.5838,2.1164,0.0,0.0,0.0,0.0,0.0,0.0,0.0,0.0,0.0,0.0,0.0,0.0,0.0,0.0,0.0,0.0,0.0,0.0,0.0,0.0,0.0,0.0,0.0,0.0,0.0,0.0,0.0,0.0,0.0,0.0,0.0,0.0,0.0,0.0,0.0,0.0,0.0,0.0,0.0,0.0,0.0,0.0,0.0,0.0,0.0,0.0,0.0,0.0,0.0,0.0,0.0,0.0,0.0,0.0,0.0,0.0,0.0,0.0,0.0,0.0,0.0,0.0,0.0,0.0,0.0,0.0,0.0,0.0,0.0,0.0,0.0,0.0,0.0,0.0,0.0,0.0,0.0,0.0,0.0,0.0,0.0,0.0,0.0,0.0,0.0,0.0,0.0,0.0,0.0,0.0,0.0,0.0,0.0,0.0,0.0,0.0,0.0,0.0,0.0,0.0,0.0,0.0,2.8494,2.9323,2.8391,2.7851,2.7375,2.683,2.6274,2.6459,2.4163,1.8382,0.0,0.0,0.0,0.0,0.0,0.0,0.0,0.0,0.0,0.0,0.0,0.0,0.0,0.0,0.0,0.0,0.0,0.0,0.0,0.0,0.0,0.0,0.0,0.0,0.0,0.0,0.0,0.0,0.0,0.0,0.0,0.0,0.0,0.0,0.0,0.0,0.0,0.0,0.0,0.0,0.0,0.0,0.0,0.0,0.0,0.0,0.0,0.0,0.0,0.0,0.0,0.0,0.0,0.0,0.0,0.0,0.0,0.0,0.0,0.0,0.0,0.0,0.0,0.0,0.0,0.0,0.0,0.0,0.0,0.0,0.0,0.0,0.0,0.0,0.0,0.0,0.0,0.0,0.0,0.0,0.0,0.0,0.0,0.0,0.0,0.0,0.0,0.0,0.0,0.0,0.0,0.0,0.0,0.0,0.0,0.0,0.0,0.0,0.0,0.0,0.0,0.0,2.764,2.5976,2.4342,2.6268,2.4958,2.3954,2.393,2.4188,2.2226,0.0,0.0,0.0,0.0,0.0,0.0,0.0,0.0,0.0,0.0,0.0,0.0,0.0,0.0,0.0,0.0,0.0,0.0,0.0,0.0,0.0,0.0,0.0,0.0,0.0,0.0,0.0,0.0,0.0,0.0,0.0,0.0,0.0,0.0,0.0,0.0,0.0,0.0,0.0,0.0,0.0,0.0,0.0,0.0,0.0,0.0,0.0,0.0,0.0,0.0,0.0,0.0,0.0,0.0,0.0,0.0,0.0,0.0,0.0,0.0,0.0,0.0,0.0,0.0,0.0,0.0,0.0,0.0,0.0,0.0,0.0,0.0,0.0,0.0,0.0,0.0,0.0,0.0,0.0,0.0,0.0,0.0,0.0,0.0,0.0,0.0,0.0,0.0,0.0,0.0,0.0,0.0,0.0,0.0,0.0,0.0,0.0,0.0,0.0,0.0,0.0,0.0,0.0,2.3987,2.4275,2.3762,2.4389,2.3978,2.3642,2.3642,2.39,2.1921,1.6941,0.0,0.0,0.0,0.0,0.0,0.0,0.0,0.0,0.0,0.0,0.0,0.0,0.0,0.0,0.0,0.0,0.0,0.0,0.0,0.0,0.0,0.0,0.0,0.0,0.0,0.0,0.0,0.0,0.0,0.0,0.0,0.0,0.0,0.0,0.0,0.0,0.0,0.0,0.0,0.0,0.0,0.0,0.0,0.0,0.0,0.0,0.0,0.0,0.0,0.0,0.0,0.0,0.0,0.0,0.0,0.0,0.0,0.0,0.0,0.0,0.0,0.0,0.0,0.0,0.0,0.0,0.0,0.0,0.0,0.0,0.0,0.0,0.0,0.0,0.0,0.0,0.0,0.0,0.0,0.0,0.0,0.0,0.0,0.0,0.0,0.0,0.0,0.0,0.0,0.0,0.0,0.0,0.0,0.0,0.0,0.0,0.0,0.0,0.0,0.0,0.0,0.0,0.0,2.1198,2.3522,2.3522,2.3165,2.2843,2.267,2.2768,2.0905,1.6308,0.0,0.0,0.0,0.0,0.0,0.0,0.0,0.0,0.0,0.0,0.0,0.0,0.0,0.0,0.0,0.0,0.0,0.0,0.0,0.0,0.0,0.0,0.0,0.0,0.0,0.0,0.0,0.0,0.0,0.0,0.0,0.0,0.0,0.0,0.0,0.0,0.0,0.0,0.0,0.0,0.0,0.0,0.0,0.0,0.0,0.0,0.0,0.0,0.0,0.0,0.0,0.0,0.0,0.0,0.0,0.0,0.0,0.0,0.0,0.0,0.0,0.0,0.0,0.0,0.0,0.0,0.0,0.0,0.0,0.0,0.0,0.0,0.0,0.0,0.0,0.0,0.0,0.0,0.0,0.0,0.0,0.0,0.0,0.0,0.0,0.0,0.0,0.0,0.0,0.0,0.0,0.0,0.0,0.0,0.0,0.0,0.0,0.0,0.0,0.0,0.0,0.0,0.0,1.7499,2.3218,2.329,2.2433,2.1665,2.1244,2.119,1.9466,1.5429,1.3746,0.0,0.0,0.0,0.0,0.0,0.0,0.0,0.0,0.0,0.0,0.0,0.0,0.0,0.0,0.0,0.0,0.0,0.0,0.0,0.0,0.0,0.0,0.0,0.0,0.0,0.0,0.0,0.0,0.0,0.0,0.0,0.0,0.0,0.0,0.0,0.0,0.0,0.0,0.0,0.0,0.0,0.0,0.0,0.0,0.0,0.0,0.0,0.0,0.0,0.0,0.0,0.0,0.0,0.0,0.0,0.0,0.0,0.0,0.0,0.0,0.0,0.0,0.0,0.0,0.0,0.0,0.0,0.0,0.0,0.0,0.0,0.0,0.0,0.0,0.0,0.0,0.0,0.0,0.0,0.0,0.0,0.0,0.0,0.0,0.0,0.0,0.0,0.0,0.0,0.0,0.0,0.0,0.0,0.0,0.0,0.0,0.0,0.0,0.0,0.0,0.0,0.0,1.8518,2.0251,2.1036,2.0911,2.09,2.1172,2.119,1.9466,1.5429,1.4257,0.0,0.0,0.0,0.0,0.0,0.0,0.0,0.0,0.0,0.0,0.0,0.0,0.0,0.0,0.0,0.0,0.0,0.0,0.0,0.0,0.0,0.0,0.0,0.0,0.0,0.0,0.0,0.0,0.0,0.0,0.0,0.0,0.0,0.0,0.0,0.0,0.0,0.0,0.0,0.0,0.0,0.0,0.0,0.0,0.0,0.0,0.0,0.0,0.0,0.0,0.0,0.0,0.0,0.0,0.0,0.0,0.0,0.0,0.0,0.0,0.0,0.0,0.0,0.0,0.0,0.0,0.0,0.0,0.0,0.0,0.0,0.0,0.0,0.0,0.0,0.0,0.0,0.0,0.0,0.0,0.0,0.0,0.0,0.0,0.0,0.0,0.0,0.0,0.0,0.0,0.0,0.0,0.0,0.0,0.0,0.0,0.0,0.0,0.0,0.0,0.0,0.0,1.8861,1.9075,1.9629,1.97,1.9807,2.0096,2.0113,1.8538,1.486,1.4236,0.0,0.0,0.0,0.0,0.0,0.0,0.0,0.0,0.0,0.0,0.0,0.0,0.0,0.0,0.0,0.0,0.0,0.0,0.0,0.0,0.0,0.0,0.0,0.0,0.0,0.0,0.0,0.0,0.0,0.0,0.0,0.0,0.0,0.0,0.0,0.0,0.0,0.0,0.0,0.0,0.0,0.0,0.0,0.0,0.0,0.0,0.0,0.0,0.0,0.0,0.0,0.0,0.0,0.0,0.0,0.0,0.0,0.0,0.0,0.0,0.0,0.0,0.0,0.0,0.0,0.0,0.0,0.0,0.0,0.0,0.0,0.0,0.0,0.0,0.0,0.0,0.0,0.0,0.0,0.0,0.0,0.0,0.0,0.0,0.0,0.0,0.0,0.0,0.0,0.0,0.0,0.0,0.0,0.0,0.0,0.0,0.0,0.0,0.0,0.0,0.0,0.0,0.0,1.8861,1.8861,1.8861,1.8861,1.8861,1.8861,1.7467,1.4197,0.0,0.0,0.0,0.0,0.0,0.0,0.0,0.0,0.0,0.0,0.0,0.0,0.0,0.0,0.0,0.0,0.0,0.0,0.0,0.0,0.0,0.0,0.0,0.0,0.0,0.0,0.0,0.0,0.0,0.0,0.0,0.0,0.0,0.0,0.0,0.0,0.0,0.0,0.0,0.0,0.0,0.0,0.0,0.0,0.0,0.0,0.0,0.0,0.0,0.0,0.0,0.0,0.0,0.0,0.0,0.0,0.0,0.0,0.0,0.0,0.0,0.0,0.0,0.0,0.0,0.0,0.0,0.0,0.0,0.0,0.0,0.0,0.0,0.0,0.0,0.0,0.0,0.0,0.0,0.0,0.0,0.0,0.0,0.0,0.0,0.0,0.0,0.0,0.0,0.0,0.0,0.0,0.0,0.0,0.0,0.0,0.0,0.0,0.0,0.0,0.0,0.0,0.0,0.0,1.8861,1.8861,1.8861,1.8861,1.8861,1.8861,1.7467,1.4197,0.0,0.0,0.0,0.0,0.0,0.0,0.0,0.0,0.0,0.0,0.0,0.0,0.0,0.0]}]]]